[[{"header":{"parameterUnit":"m.s-1","parameterCategory":1,"la1":30.6,"la2":28.766,"lo1":-90.7593,"lo2":-88.6598,"dx":0.0162,"dy":0.0183,"nx":116,"ny":114,"refTime":"2022-12-24T18:00:00:Z","depth":0,"parameterNumber":2,"parameterNumberName":"U-component_of_WINDS"},"data":[0.0,0.0,0.0,0.0,0.0,0.0,0.0,0.0,0.0,0.0,0.0,0.0,0.0,0.0,0.0,0.0,0.0,0.0,0.0,0.0,0.0,0.0,0.0,0.0,0.0,0.0,0.0,0.0,0.0,0.0,0.0,0.0,0.0,0.0,0.0,0.0,0.0,0.0,0.0,0.0,0.0,0.0,0.0,0.0,0.0,0.0,0.0,0.0,0.0,0.0,0.0,0.0,0.0,0.0,0.0,0.0,0.0,0.0,0.0,0.0,0.0,0.0,0.0,0.0,0.0,0.0,0.0,0.0,0.0,0.0,0.0,0.0,0.0,0.0,0.0,0.0,0.0,0.0,0.0,0.0,0.0,0.0,0.0,0.0,0.0,0.0,0.0,0.0,0.0,0.0,0.0,0.0,0.0,0.0,0.0,0.0,0.0,0.0,0.0,0.0,0.0,0.0,0.0,0.0,0.0,0.0,0.0,0.0,0.0,0.0,0.0,0.0,0.0,0.0,0.0,0.0,0.0,0.0,0.0,0.0,0.0,0.0,0.0,0.0,0.0,0.0,0.0,0.0,0.0,0.0,0.0,0.0,0.0,0.0,0.0,0.0,0.0,0.0,0.0,0.0,0.0,0.0,0.0,0.0,0.0,0.0,0.0,0.0,0.0,0.0,0.0,0.0,0.0,0.0,0.0,0.0,0.0,0.0,0.0,0.0,0.0,0.0,0.0,0.0,0.0,0.0,0.0,0.0,0.0,0.0,0.0,0.0,0.0,0.0,0.0,0.0,0.0,0.0,0.0,0.0,0.0,0.0,0.0,0.0,0.0,0.0,0.0,0.0,0.0,0.0,0.0,0.0,0.0,0.0,0.0,0.0,0.0,0.0,0.0,0.0,0.0,0.0,0.0,0.0,0.0,0.0,0.0,0.0,0.0,0.0,0.0,0.0,0.0,0.0,0.0,0.0,0.0,0.0,0.0,0.0,0.0,0.0,0.0,0.0,0.0,0.0,0.0,0.0,0.0,0.0,0.0,0.0,0.0,0.0,0.0,0.0,0.0,0.0,0.0,0.0,0.0,0.0,0.0,0.0,0.0,0.0,0.0,0.0,0.0,0.0,0.0,0.0,0.0,0.0,0.0,0.0,0.0,0.0,0.0,0.0,0.0,0.0,0.0,0.0,0.0,0.0,0.0,0.0,0.0,0.0,0.0,0.0,0.0,0.0,0.0,0.0,0.0,0.0,0.0,0.0,0.0,0.0,0.0,0.0,0.0,0.0,0.0,0.0,0.0,0.0,0.0,0.0,0.0,0.0,0.0,0.0,0.0,0.0,0.0,0.0,0.0,0.0,0.0,0.0,0.0,0.0,0.0,0.0,0.0,0.0,0.0,0.0,0.0,0.0,0.0,0.0,0.0,0.0,0.0,0.0,0.0,0.0,0.0,0.0,0.0,0.0,0.0,0.0,0.0,0.0,0.0,0.0,0.0,0.0,0.0,0.0,0.0,0.0,0.0,0.0,0.0,0.0,0.0,0.0,0.0,0.0,0.0,0.0,0.0,0.0,0.0,0.0,0.0,0.0,0.0,0.0,0.0,0.0,0.0,0.0,0.0,0.0,0.0,0.0,0.0,0.0,0.0,0.0,0.0,0.0,0.0,0.0,0.0,0.0,0.0,0.0,0.0,0.0,0.0,0.0,0.0,0.0,0.0,0.0,0.0,0.0,0.0,0.0,0.0,0.0,0.0,0.0,0.0,0.0,0.0,0.0,0.0,0.0,0.0,0.0,0.0,0.0,0.0,0.0,0.0,0.0,0.0,0.0,0.0,0.0,0.0,0.0,0.0,0.0,0.0,0.0,0.0,0.0,0.0,0.0,0.0,0.0,0.0,0.0,0.0,0.0,0.0,0.0,0.0,0.0,0.0,0.0,0.0,0.0,0.0,0.0,0.0,0.0,0.0,0.0,0.0,0.0,0.0,0.0,0.0,0.0,0.0,0.0,0.0,0.0,0.0,0.0,0.0,0.0,0.0,0.0,0.0,0.0,0.0,0.0,0.0,0.0,0.0,0.0,0.0,0.0,0.0,0.0,0.0,0.0,0.0,0.0,0.0,0.0,0.0,0.0,0.0,0.0,0.0,0.0,0.0,0.0,0.0,0.0,0.0,0.0,0.0,0.0,0.0,0.0,0.0,0.0,0.0,0.0,0.0,0.0,0.0,0.0,0.0,0.0,0.0,0.0,0.0,0.0,0.0,0.0,0.0,0.0,0.0,0.0,0.0,0.0,0.0,0.0,0.0,0.0,0.0,0.0,0.0,0.0,0.0,0.0,0.0,0.0,0.0,0.0,0.0,0.0,0.0,0.0,0.0,0.0,0.0,0.0,0.0,0.0,0.0,0.0,0.0,0.0,0.0,0.0,0.0,0.0,0.0,0.0,0.0,0.0,0.0,0.0,0.0,0.0,0.0,0.0,0.0,0.0,0.0,0.0,0.0,0.0,0.0,0.0,0.0,0.0,0.0,0.0,0.0,0.0,0.0,0.0,0.0,0.0,0.0,0.0,0.0,0.0,0.0,0.0,0.0,0.0,0.0,0.0,0.0,0.0,0.0,0.0,0.0,0.0,0.0,0.0,0.0,0.0,0.0,0.0,0.0,0.0,0.0,0.0,0.0,0.0,0.0,0.0,0.0,0.0,0.0,0.0,0.0,0.0,0.0,0.0,0.0,0.0,0.0,0.0,0.0,0.0,0.0,0.0,0.0,0.0,0.0,0.0,0.0,0.0,0.0,0.0,0.0,0.0,0.0,0.0,0.0,0.0,0.0,0.0,0.0,0.0,0.0,0.0,0.0,0.0,0.0,0.0,0.0,0.0,0.0,0.0,0.0,0.0,0.0,0.0,0.0,0.0,0.0,0.0,0.0,0.0,0.0,0.0,0.0,0.0,0.0,0.0,0.0,0.0,0.0,0.0,0.0,0.0,0.0,0.0,0.0,0.0,0.0,0.0,0.0,0.0,0.0,0.0,0.0,0.0,0.0,0.0,0.0,0.0,0.0,0.0,0.0,0.0,0.0,0.0,0.0,0.0,0.0,0.0,0.0,0.0,0.0,0.0,0.0,0.0,0.0,0.0,0.0,0.0,0.0,0.0,0.0,0.0,0.0,0.0,0.0,0.0,0.0,0.0,0.0,0.0,0.0,0.0,0.0,0.0,0.0,0.0,0.0,0.0,0.0,0.0,0.0,0.0,0.0,0.0,0.0,0.0,0.0,0.0,0.0,0.0,0.0,0.0,0.0,0.0,0.0,0.0,0.0,0.0,0.0,0.0,0.0,0.0,0.0,0.0,0.0,0.0,0.0,0.0,0.0,0.0,0.0,0.0,0.0,0.0,0.0,0.0,0.0,0.0,0.0,0.0,0.0,0.0,0.0,0.0,0.0,0.0,0.0,0.0,0.0,0.0,0.0,0.0,0.0,0.0,0.0,0.0,0.0,0.0,0.0,0.0,0.0,0.0,0.0,0.0,0.0,0.0,0.0,0.0,0.0,0.0,0.0,0.0,0.0,0.0,0.0,0.0,0.0,0.0,0.0,0.0,0.0,0.0,0.0,0.0,0.0,0.0,0.0,0.0,0.0,0.0,0.0,0.0,0.0,0.0,0.0,0.0,0.0,0.0,0.0,0.0,0.0,0.0,0.0,0.0,0.0,0.0,0.0,0.0,0.0,0.0,0.0,0.0,0.0,0.0,0.0,0.0,0.0,0.0,0.0,0.0,0.0,0.0,0.0,0.0,0.0,0.0,0.0,0.0,0.0,0.0,0.0,0.0,0.0,0.0,0.0,0.0,0.0,0.0,0.0,0.0,0.0,0.0,0.0,0.0,0.0,0.0,0.0,0.0,0.0,0.0,0.0,0.0,0.0,0.0,0.0,0.0,0.0,0.0,0.0,0.0,0.0,0.0,0.0,0.0,0.0,0.0,0.0,0.0,0.0,0.0,0.0,0.0,0.0,0.0,0.0,0.0,0.0,0.0,0.0,0.0,0.0,0.0,0.0,0.0,0.0,0.0,0.0,0.0,0.0,0.0,0.0,0.0,0.0,0.0,0.0,0.0,0.0,0.0,0.0,0.0,0.0,0.0,0.0,0.0,0.0,0.0,0.0,0.0,0.0,0.0,0.0,0.0,0.0,0.0,0.0,0.0,0.0,0.0,0.0,0.0,0.0,0.0,0.0,0.0,0.0,0.0,0.0,0.0,0.0,0.0,0.0,0.0,0.0,0.0,0.0,0.0,0.0,0.0,0.0,0.0,0.0,0.0,0.0,0.0,0.0,0.0,0.0,0.0,0.0,0.0,0.0,0.0,0.0,0.0,0.0,0.0,0.0,0.0,0.0,0.0,0.0,0.0,0.0,0.0,0.0,0.0,0.0,0.0,0.0,0.0,0.0,0.0,0.0,0.0,0.0,0.0,0.0,0.0,0.0,0.0,0.0,0.0,0.0,0.0,0.0,0.0,0.0,0.0,0.0,0.0,0.0,0.0,0.0,0.0,0.0,0.0,0.0,0.0,0.0,0.0,0.0,0.0,0.0,0.0,0.0,0.0,0.0,0.0,0.0,0.0,0.0,0.0,0.0,0.0,0.0,0.0,0.0,0.0,0.0,0.0,0.0,0.0,0.0,0.0,0.0,0.0,0.0,0.0,0.0,0.0,0.0,0.0,0.0,0.0,0.0,0.0,0.0,0.0,0.0,0.0,0.0,0.0,0.0,0.0,0.0,0.0,0.0,0.0,0.0,0.0,0.0,0.0,0.0,0.0,0.0,0.0,0.0,0.0,0.0,0.0,0.0,0.0,0.0,0.0,0.0,0.0,0.0,0.0,0.0,0.0,0.0,0.0,0.0,0.0,0.0,0.0,0.0,0.0,0.0,0.0,0.0,0.0,0.0,0.0,0.0,0.0,0.0,0.0,0.0,0.0,0.0,0.0,0.0,0.0,0.0,0.0,0.0,0.0,0.0,0.0,0.0,0.0,0.0,0.0,0.0,0.0,0.0,0.0,0.0,0.0,0.0,0.0,0.0,0.0,0.0,0.0,0.0,0.0,0.0,0.0,0.0,0.0,0.0,0.0,0.0,0.0,0.0,0.0,0.0,0.0,0.0,0.0,0.0,0.0,0.0,0.0,0.0,0.0,0.0,0.0,0.0,0.0,0.0,0.0,0.0,0.0,0.0,0.0,0.0,0.0,0.0,0.0,0.0,0.0,0.0,0.0,0.0,0.0,0.0,0.0,0.0,0.0,0.0,0.0,0.0,0.0,0.0,0.0,0.0,0.0,0.0,0.0,0.0,0.0,0.0,0.0,0.0,0.0,0.0,0.0,0.0,0.0,0.0,0.0,0.0,0.0,0.0,0.0,0.0,0.0,0.0,0.0,0.0,0.0,0.0,0.0,0.0,0.0,0.0,0.0,0.0,0.0,0.0,0.0,0.0,0.0,0.0,0.0,0.0,0.0,0.0,0.0,0.0,0.0,0.0,0.0,0.0,0.0,0.0,0.0,0.0,0.0,0.0,0.0,0.0,0.0,0.0,0.0,0.0,0.0,0.0,0.0,0.0,0.0,0.0,0.0,0.0,0.0,0.0,0.0,0.0,0.0,0.0,0.0,0.0,0.0,0.0,0.0,0.0,0.0,0.0,0.0,0.0,0.0,0.0,0.0,0.0,0.0,0.0,0.0,0.0,0.0,0.0,0.0,0.0,0.0,0.0,0.0,0.0,0.0,0.0,0.0,0.0,0.0,0.0,0.0,0.0,0.0,0.0,0.0,0.0,0.0,0.0,0.0,0.0,0.0,0.0,0.0,0.0,0.0,0.0,0.0,0.0,0.0,0.0,0.0,0.0,0.0,0.0,0.0,0.0,0.0,0.0,0.0,0.0,0.0,0.0,0.0,0.0,0.0,0.0,0.0,0.0,0.0,0.0,0.0,0.0,0.0,0.0,0.0,0.0,0.0,0.0,0.0,0.0,0.0,0.0,0.0,0.0,0.0,0.0,0.0,0.0,0.0,0.0,0.0,0.0,0.0,0.0,0.0,0.0,0.0,0.0,0.0,0.0,0.0,0.0,0.0,0.0,0.0,0.0,0.0,0.0,0.0,0.1863,0.0,0.0,0.0,0.0,0.0,0.0,0.0,0.0,0.0,0.0,0.0,0.0,0.0,0.0,0.0,0.0,0.0,0.0,0.0,0.0,0.0,0.0,0.0,0.0,-0.2044,-0.2117,-0.2044,-0.2107,0.0,0.0,0.0,0.0,0.0,0.0,0.0,0.0,0.0,0.0,-0.1134,-0.1136,-0.1288,-0.1571,-0.0915,-0.0223,0.0482,0.0,0.0,0.0,0.0,0.0,0.0,0.0,0.0,0.0,0.0,0.0,0.0,0.0,0.0,0.0,0.0,0.0,0.0,0.0,0.0,0.0,0.0,0.0,0.0,0.0,0.0,0.0,0.0,0.0,0.0,0.0,0.0,0.0,0.0,0.0,0.0,0.0,0.0,0.0,0.0,0.0,0.0,0.0,0.0,0.0,0.0,0.0,0.0,0.0,0.0,0.0,0.0,0.0,0.0,0.0,0.0,0.0,0.0,0.0,0.0,0.0,0.0,0.0,0.0,0.0,0.0,0.0,0.0,0.0,0.0,0.0,0.2016,0.0,0.0,0.0,0.0,0.0,0.0,0.0,0.0,0.0,0.0,0.0,0.0,0.0,0.0,0.0,0.0,0.0,0.0,0.0,0.0,0.0,-0.1925,-0.2068,-0.2259,-0.2356,-0.2335,-0.2353,-0.2356,-0.2335,-0.2242,0.0,0.0,0.0,0.0,0.0,-0.19,-0.1876,-0.1909,-0.2047,-0.22,-0.2376,-0.2197,-0.1528,0.0,0.0,0.0,0.0,0.0,0.0,0.0,0.0,0.0,0.0,0.0,0.0,0.0,0.0,0.0,0.0,0.0,0.0,0.0,0.0,0.0,0.0,0.0,0.0,0.0,0.0,0.0,0.0,0.0,0.0,0.0,0.0,0.0,0.0,0.0,0.0,0.0,0.0,0.0,0.0,0.0,0.0,0.0,0.0,0.0,0.0,0.0,0.0,0.0,0.0,0.0,0.0,0.0,0.0,0.0,0.0,0.0,0.0,0.0,0.0,0.0,0.0,0.0,0.0,0.0,0.2136,0.2126,0.2208,0.1424,0.1137,0.1231,0.1191,0.1407,0.1827,0.243,0.0,0.0,0.0,0.0,0.0,0.0,0.0,0.0,0.0,0.0,0.0,0.0,0.0,0.0,0.0,0.0,0.0,0.0,0.0,-0.222,-0.241,-0.2565,-0.2596,-0.248,-0.2577,-0.2593,-0.2478,-0.2509,0.0,0.0,0.0,0.0,-0.2338,-0.2153,-0.2429,-0.3164,0.0,-0.3898,-0.3498,-0.3688,-0.3261,-0.231,-0.163,0.0,0.0,0.0,0.0,0.0,0.0,0.0,0.0,0.0,0.0,0.0,0.0,0.0,0.0,0.0,0.0,0.0,0.0,0.0,0.0,0.0,0.0,0.0,0.0,0.0,0.0,0.0,0.0,0.0,0.0,0.0,0.0,0.0,0.0,0.0,0.0,0.0,0.0,0.0,0.0,0.0,0.0,0.0,-0.0915,-0.0966,0.0,0.0,0.0,0.0,0.0,0.0,0.0,0.0,0.0,0.0,0.0,0.0,0.0,0.2386,0.2445,0.1768,0.1458,0.154,0.0708,0.0329,0.0351,0.0229,0.0306,0.0531,0.0593,0.0,0.0992,0.1316,0.0,0.0,0.0,0.0,0.0,0.0,0.0,0.0,0.0,0.0,0.0,0.0,0.0,0.0,0.0,0.0,0.0,0.0,0.0,0.0,0.0,-0.2873,-0.299,-0.3006,-0.313,-0.3122,-0.2905,-0.2846,0.0,0.0,-0.2681,-0.272,-0.2844,-0.3167,-0.3691,-0.4407,-0.4394,-0.4404,-0.4429,-0.4232,-0.4039,-0.3805,-0.3319,-0.2546,-0.1556,-0.1169,0.0,0.0,0.0,0.0,0.0,0.0,0.0,0.0,0.0,0.0,0.0,0.0,0.0,0.0,0.0,0.0,0.0,0.0,0.0,0.0,0.0,0.0,0.0,0.0,0.0,0.0,0.0,0.0,0.0,0.0,0.0,0.0,0.0,0.0,0.0,0.0,0.0,0.0,0.0,-0.0641,-0.0666,-0.0822,-0.0646,-0.0508,0.0,0.0,0.0,0.0,0.0,0.0,0.0,0.0,0.0,0.1662,0.1707,0.1541,0.1096,0.0751,0.058,0.0616,0.0191,0.0,0.0,0.0195,0.0336,0.0476,0.0873,0.1098,0.12,0.1242,0.1421,0.1682,0.0,0.0,0.0,0.0,0.1724,0.1701,0.0,0.0,0.0,0.0,0.0,0.0,0.0,0.0,0.0,0.0,0.0,0.0,-0.3103,-0.3392,-0.359,-0.3676,-0.3788,-0.3719,-0.3378,-0.3193,-0.3103,0.0,-0.289,-0.2894,-0.3145,-0.394,-0.4553,-0.4947,-0.4719,-0.4654,-0.4733,-0.4417,-0.4366,-0.4513,-0.43,-0.3436,-0.2132,-0.1886,-0.1552,0.0,0.0,0.0,0.0,0.0,0.0,0.0,0.0,0.0,0.0,0.0,0.0,0.0,0.0,0.0,0.0,0.0,0.0,0.0,0.0,0.0,0.0,0.0,0.0,0.0,0.0,0.0,0.0,0.0,0.0,0.0,0.0,0.0,0.0,0.0,0.0,0.0,0.0,-0.053,-0.0505,-0.0653,-0.0505,-0.0333,0.0,0.0,0.0,0.0,0.0,0.0,0.186,0.1863,0.1595,0.0996,0.0977,0.0667,0.0,0.0,0.0,0.0,0.0088,0.0118,0.0149,0.0479,0.0693,0.0789,0.1294,0.157,0.1611,0.1516,0.1597,0.1804,0.181,0.1787,0.1808,0.1815,0.1823,0.1834,0.0,0.0,0.0,0.0,0.0,0.0,0.0,0.0,0.0,0.0,0.0,-0.2978,-0.377,-0.4258,-0.4501,-0.445,-0.4505,-0.4323,-0.3805,-0.3526,-0.3381,-0.3381,-0.3128,-0.2996,-0.3013,-0.3987,-0.4412,-0.4241,-0.5056,-0.4958,-0.4066,-0.4346,-0.4325,-0.4038,-0.4143,-0.4082,-0.3829,-0.3122,-0.2995,-0.3127,0.0,0.0,0.0,0.0,0.0,0.0,0.0,0.0,0.0,0.0,0.0,0.0,0.0,0.0,0.0,0.0,0.0,0.0,0.0,0.0,0.0,0.0,0.0,0.0,0.0,0.0,0.0,0.0,0.0,0.0,0.0,0.0,0.0,0.0,0.0,0.0,0.0,0.0,0.0,-0.0603,-0.0424,0.0,0.0,0.0,0.0,0.0073,0.0101,0.013,0.0132,0.0133,0.0108,0.0056,0.0057,0.0058,0.0,0.0,0.0,0.0,0.0312,0.0468,0.0493,0.0876,0.1218,0.145,0.1563,0.1729,0.1975,0.1886,0.1834,0.1809,0.1808,0.1808,0.1812,0.187,0.1899,0.1898,0.0,0.0,0.0,-0.0328,-0.0906,-0.1435,-0.1668,-0.2102,-0.2616,-0.321,-0.3473,-0.3873,-0.4597,-0.4629,-0.4936,-0.5782,-0.5513,-0.5426,-0.5707,-0.5118,-0.4653,-0.4443,-0.4428,-0.4663,-0.5182,-0.4734,-0.4718,-0.5175,-0.4963,-0.4775,-0.464,-0.4456,-0.439,-0.445,-0.4328,-0.4214,-0.4097,-0.3718,-0.3321,-0.2903,-0.2353,-0.1951,0.0,0.0,0.0,0.0,0.0,0.0,0.0,0.0,0.0,0.0,0.0,0.0,0.0,0.0,0.0,0.0,0.0,0.0,0.0,0.0,0.0,0.0,0.0,0.0,0.0,0.0,0.0,0.0,0.0,0.0,0.0,0.0,0.0,0.0,0.0,0.0,0.0,-0.0382,-0.0221,0.0,0.0,-0.0048,0.0,0.0,0.0,0.0,0.0,0.0,0.0,0.0,0.0,0.0091,0.0313,0.0349,0.0481,0.0709,0.0817,0.0886,0.0882,0.1248,0.1477,0.1568,0.182,0.198,0.2073,0.2053,0.2005,0.1982,0.1982,0.2025,0.2041,0.2033,0.2037,0.2045,0.0,0.0,0.0,-0.0495,-0.1147,-0.1786,-0.2119,-0.259,-0.3131,-0.3759,-0.4193,-0.4672,-0.5298,-0.5552,-0.5951,-0.6647,-0.6608,-0.6626,-0.6831,-0.6232,-0.5802,-0.5649,-0.5375,-0.5359,-0.5625,-0.4771,-0.4648,-0.5297,-0.4705,-0.4548,-0.4766,-0.4454,-0.4389,-0.4547,-0.4389,-0.4267,-0.423,-0.4085,-0.3668,-0.309,-0.3038,-0.2706,-0.2175,0.0,0.0,0.0,0.0,0.0,0.0,0.0,0.0,0.0,0.0,0.0,0.0,0.0,0.0,0.0,0.0,0.0,0.0,0.0,0.0,0.0,0.0,0.0,0.0,0.0,0.0,0.0,0.0,0.0,0.0,0.0,0.0,0.0,0.0,0.0,-0.0715,-0.1218,-0.0844,-0.0537,-0.0544,-0.0206,0.0,0.0,0.0,0.0,0.0,0.0,0.0061,0.0195,0.0192,0.0386,0.0726,0.0765,0.0838,0.0943,0.1189,0.1229,0.1127,0.1604,0.1809,0.1809,0.2029,0.2122,0.212,0.2144,0.2152,0.2166,0.2114,0.2112,0.217,0.2116,0.2116,0.2122,0.0,0.0,-0.0823,-0.0894,-0.1523,-0.2261,-0.2987,-0.3118,-0.3463,-0.4386,-0.4861,-0.5318,-0.5858,-0.703,-0.755,-0.7022,-0.7736,-0.7884,-0.7061,-0.6803,-0.6781,0.0,0.0,0.0,-0.424,-0.4153,-0.425,-0.4554,-0.4431,-0.4364,-0.4364,-0.4364,-0.4364,-0.4364,-0.4344,-0.4344,-0.4344,-0.43,-0.4151,-0.3903,-0.3831,-0.3343,-0.2626,0.0,0.0,0.0,0.0,0.0,0.0,0.0,0.0,0.0,0.0,0.0,0.0,0.0,0.0,0.0,0.0,0.0,0.0,0.0,0.0,0.0,0.0,0.0,0.0,0.0,0.0,0.0,0.0,0.0,0.0,0.0,0.0,0.0,-0.1478,-0.1618,-0.1991,-0.3023,-0.2242,-0.1591,-0.1542,-0.0602,0.0,0.0028,0.0,0.0,0.0,0.0,0.0195,0.0593,0.0602,0.0813,0.1203,0.1204,0.1005,0.0667,0.1369,0.151,0.1159,0.186,0.2211,0.2212,0.2211,0.2211,0.2214,0.2279,0.2291,0.2277,0.2163,0.2091,0.2116,0.2115,0.2133,0.2191,-0.0025,-0.0462,-0.0848,-0.1012,-0.1738,-0.2473,-0.3019,-0.3474,-0.3987,-0.4638,-0.5116,-0.5613,-0.6199,-0.6836,-0.7552,-0.8353,-0.8734,-0.9058,-0.934,-0.8903,-0.8652,0.0,0.0,0.0,-0.7147,-0.6645,-0.6187,-0.5733,-0.5794,-0.583,-0.583,-0.583,-0.583,-0.5808,-0.5324,-0.5104,-0.506,-0.4523,-0.4257,-0.4181,-0.4117,-0.3868,-0.3477,0.0,0.0,0.0,0.0,0.0,0.0,0.0,0.0,0.0,0.0,0.0,0.0,0.0,0.0,0.0,0.0,0.0,0.0,0.0,0.0,0.0,0.0,0.0,0.0,0.0,0.0,0.0,0.0,0.0,0.0,0.0,0.0,-0.1872,-0.2524,-0.2105,-0.1811,-0.2017,-0.1865,-0.1397,-0.0535,-0.0168,0.0087,0.0354,0.0123,0.0095,0.0356,0.0356,0.0424,0.0535,0.0806,0.1152,0.1546,0.1332,0.1418,0.1815,0.1744,0.1788,0.1982,0.2123,0.2222,0.2277,0.222,0.2223,0.2279,0.2288,0.2303,0.2281,0.2275,0.2228,0.2233,0.2249,0.2232,0.2186,-0.005,-0.0587,-0.1082,-0.1315,-0.2121,-0.2872,-0.3287,-0.3834,-0.4396,-0.4937,-0.5511,-0.606,-0.6562,-0.7274,-0.7987,-0.8646,-0.9297,-0.9753,-0.9989,-0.9866,0.0,0.0,0.0,-0.8247,-0.8088,-0.7424,-0.6918,-0.6585,-0.6455,-0.6406,-0.6406,-0.6406,-0.6406,-0.6384,-0.5988,-0.5813,-0.5791,-0.5366,-0.5186,-0.5161,-0.4841,-0.4419,-0.3979,-0.3505,-0.303,-0.2555,-0.1919,-0.149,-0.1064,0.0048,0.0,0.0,0.0,0.0,0.0,0.0,0.0,0.0,0.0,0.0,0.0,0.0,0.0,0.0,0.0,0.0,0.0,0.0,0.0,0.0,0.0,0.0,0.0,0.0,-0.1578,-0.2408,-0.3993,-0.3487,-0.299,-0.3008,-0.2595,-0.182,-0.0586,-0.0058,0.0362,0.0737,0.0569,0.0551,0.0757,0.0761,0.0835,0.0984,0.1229,0.1547,0.1907,0.1585,0.1637,0.204,0.1825,0.1873,0.2076,0.2189,0.2263,0.0,0.2286,0.2337,0.2366,0.2379,0.2386,0.0,0.0,0.0,0.0,0.0,0.2279,0.2229,-0.0067,-0.0754,-0.139,-0.1676,-0.2538,-0.3315,-0.3645,-0.414,-0.4674,-0.521,-0.5867,-0.6424,-0.68,-0.7929,-0.8577,-0.8374,-0.9572,-1.0159,-0.9775,-1.0146,0.0,-0.9169,-0.9155,-0.8807,-0.806,-0.7469,-0.7231,-0.7346,-0.6922,-0.6691,-0.6675,-0.6675,-0.6666,-0.6653,-0.6561,-0.6517,-0.6517,-0.6428,-0.6406,-0.634,-0.5747,-0.5049,-0.4299,-0.4037,-0.3486,-0.2778,-0.2232,-0.1924,-0.1539,0.0138,0.0,0.0,0.0,0.0,0.0,0.0,0.0,0.0,0.0,0.0,0.0,0.0,0.0,0.0,0.0,0.0,0.0,0.0,0.0,0.0,0.0,0.0,0.0,0.0,-0.1682,-0.2458,-0.5466,-0.5248,-0.4747,-0.4725,-0.3716,-0.2503,-0.1211,-0.0397,0.0253,0.0633,0.065,0.0627,0.066,0.0,0.0,0.0,0.0,0.1715,0.2205,0.1861,0.1733,0.1754,0.1789,0.1801,0.1858,0.2147,0.2345,0.2375,0.2405,0.2435,0.2505,0.2497,0.2495,0.2504,0.2378,0.2306,0.2303,0.2315,0.2306,0.2305,-0.0185,-0.0821,-0.1423,-0.1795,-0.2599,-0.3315,-0.3645,-0.4062,-0.4531,-0.5064,-0.5361,-0.576,-0.6428,-0.7616,-0.8457,-0.8689,-0.9823,-1.0608,-1.0729,0.0,-1.0781,-1.0595,-1.0757,-1.0446,-0.9601,-0.9548,-0.9327,-0.8881,-0.8663,-0.8497,-0.8339,-0.8339,-0.827,-0.8142,-0.7558,-0.729,-0.7246,-0.665,-0.6406,-0.6384,-0.6254,-0.58,-0.5083,-0.4396,-0.3968,-0.3717,-0.3555,-0.3007,-0.2226,-0.1374,-0.0724,-0.0036,0.1266,0.0,0.0,0.0,0.0,0.0,0.0,0.0,0.0,0.0,0.0,0.0,0.0,0.0,0.0,0.0,0.0,0.0,0.0,0.0,0.0,-0.1693,-0.2652,-0.3821,-0.5575,-0.5758,-0.5074,-0.3279,-0.3027,-0.2498,-0.1222,-0.1934,-0.2342,-0.1989,-0.2208,-0.2243,-0.1976,-0.1952,-0.1384,-0.0101,0.0171,0.0931,0.2174,0.1869,0.1856,0.2184,0.0,0.0,0.2223,0.2273,0.2315,0.2307,0.2373,0.2404,0.2435,0.2465,0.2489,0.2499,0.2394,0.2369,0.2368,0.24,0.2398,0.2394,-0.0219,-0.0838,-0.1406,-0.1742,-0.2659,-0.3414,-0.3619,-0.4075,-0.4572,-0.5036,-0.5216,-0.5606,-0.642,-0.7185,-0.7814,-0.8212,-0.9327,-1.0343,0.0,-1.1058,-1.1036,-1.1139,-1.091,-1.0641,-1.0307,-0.9816,-0.9494,-0.9398,-0.9096,-0.8891,-0.8797,-0.8797,-0.8731,-0.859,-0.8208,-0.805,-0.8025,-0.765,-0.7496,-0.7452,-0.6962,-0.6631,-0.6322,-0.5118,-0.4493,-0.4155,-0.3454,-0.2774,-0.2072,-0.1241,-0.072,-0.0212,0.1118,0.1658,0.1931,0.0,0.0,0.0,0.0,0.0,0.0,0.0,0.0,0.0,0.0,0.0,0.0,0.0,0.0,0.0473,0.0,0.0,-0.0025,-0.1977,-0.2636,-0.3579,-0.5522,-0.5367,-0.471,-0.3753,-0.3731,-0.3307,-0.2022,-0.2529,-0.2808,-0.2432,-0.2566,-0.2586,-0.2418,-0.2385,-0.2048,-0.1309,-0.1149,-0.0677,0.0101,-0.048,-0.0451,0.0139,0.0281,0.0641,0.1227,0.195,0.2283,0.2299,0.2381,0.241,0.2388,0.2457,0.2516,0.2487,0.2442,0.2404,0.2467,0.2452,0.2446,0.2442,-0.0219,-0.0788,-0.1315,-0.1676,-0.2718,-0.3527,-0.3602,-0.4102,-0.4597,-0.4995,-0.5176,-0.5573,-0.6375,-0.6762,-0.7236,-0.7935,-0.8849,0.0,0.0,-1.1129,-1.1069,-1.123,-1.0666,-1.0417,-1.0549,-0.9538,-0.9179,-0.9512,-0.9079,-0.8834,-0.8797,-0.8797,-0.8731,-0.859,-0.859,-0.8568,-0.852,-0.852,-0.8498,-0.8388,-0.7588,-0.7382,-0.7416,-0.5969,-0.5037,-0.436,-0.3206,-0.2408,-0.1762,-0.0895,-0.0561,-0.0285,0.0975,0.1331,0.1463,0.2475,0.2779,0.0,0.0,0.0,0.0,0.0,0.0,0.0,0.0,0.0,0.0625,-0.0554,-0.0282,-0.0022,-0.0686,0.0125,0.0077,-0.2357,-0.2508,-0.3114,-0.5485,-0.5078,-0.4629,-0.4952,-0.4731,-0.4166,-0.3099,-0.3276,-0.3319,-0.2984,-0.2953,-0.2953,-0.2953,-0.2945,-0.2807,-0.2507,-0.2467,-0.2319,-0.1998,-0.2632,-0.2653,-0.1984,-0.1481,-0.0911,-0.0284,0.1183,0.1876,0.1884,0.2237,0.2418,0.2387,0.245,0.2498,0.2458,0.2433,0.2415,0.2493,0.247,0.2498,0.2456,-0.0219,-0.0597,-0.1075,-0.1761,-0.2773,-0.3546,-0.3673,-0.405,-0.4446,-0.4788,-0.5008,-0.5343,-0.592,-0.648,-0.7412,-0.8902,-0.9249,0.0,-1.0977,-1.1015,-1.1014,-1.1025,-1.0723,-1.0498,-1.0332,-0.9745,-0.9445,-0.9512,-0.9213,-0.8982,-0.8797,-0.8797,-0.8731,-0.859,-0.859,-0.8472,-0.8245,-0.8245,-0.8138,-0.7966,-0.7856,-0.783,-0.7768,-0.6852,-0.5671,-0.4449,-0.3988,-0.3006,-0.1888,-0.1762,-0.1338,-0.0732,-0.002,0.0308,0.0725,0.2185,0.0,0.2624,0.3356,0.2745,0.0,0.1242,0.0804,0.0306,0.0,0.0,-0.0648,-0.1906,-0.1376,-0.0837,-0.1384,-0.0615,-0.0549,-0.2631,-0.2964,-0.3671,-0.5623,-0.5988,-0.6039,-0.6035,-0.509,-0.4327,-0.4128,-0.532,-0.6071,-0.6014,-0.6014,-0.6014,-0.6014,-0.5909,-0.5241,-0.4021,-0.384,-0.3198,-0.1936,-0.2056,-0.2083,-0.1983,-0.1978,-0.1925,-0.1791,-0.038,0.0278,0.0423,0.1795,0.2399,0.2386,0.2389,0.2429,0.2429,0.2387,0.239,0.2395,0.243,0.2429,0.2424,-0.0219,-0.0571,-0.1008,-0.1669,-0.254,-0.3249,-0.3542,-0.3997,-0.4377,-0.4597,-0.4698,-0.4984,-0.5602,-0.6379,-0.738,-0.8674,-0.9065,-0.969,-1.0816,-1.0703,-1.0585,-1.0585,-1.0117,-0.9805,-0.9721,-0.9231,-0.9009,-0.9087,-0.8988,-0.8874,-0.8797,-0.8688,-0.8529,-0.8358,-0.8358,-0.8314,-0.8201,-0.8201,-0.8157,-0.805,-0.7768,-0.7768,-0.7823,-0.7184,-0.6299,-0.5279,-0.4078,-0.2743,0.0,0.0,-0.1139,-0.0777,0.0,0.0295,0.065,0.2108,0.2703,0.0,0.2652,0.0,0.0,0.0,0.0084,-0.0172,-0.0548,-0.0551,-0.086,-0.2143,-0.1796,-0.1452,-0.2063,-0.127,-0.1181,0.0,-0.2929,-0.3338,-0.5646,-0.5444,-0.5237,-0.5679,-0.5212,-0.5034,-0.5424,-0.5975,-0.6349,-0.637,-0.6374,-0.6351,-0.6329,-0.6257,-0.5931,-0.5199,-0.5133,-0.4812,-0.4181,-0.4427,-0.4474,-0.4254,-0.3696,-0.3367,-0.3219,-0.1776,-0.114,-0.1085,0.0353,0.1037,0.1123,0.1973,0.2346,0.2348,0.2327,0.2334,0.2338,0.2373,0.2385,0.2384,-0.0176,-0.0471,-0.0877,-0.1582,-0.2259,-0.2895,-0.3446,-0.3961,-0.4332,-0.4432,-0.4481,-0.4757,-0.5424,-0.6217,-0.7168,-0.8319,-0.863,-0.9275,-1.045,-1.0331,-1.0311,-1.0517,-1.0149,-0.9976,-1.0033,-0.9323,-0.8997,-0.9101,-0.8788,-0.8635,-0.8635,-0.8436,-0.8258,-0.8113,-0.8113,-0.8069,-0.8006,-0.8006,-0.7959,-0.7867,-0.7521,-0.7499,-0.7632,-0.7253,-0.6624,-0.5739,-0.4181,-0.2771,0.0,0.0,-0.0842,-0.064,-0.0064,0.0192,0.0587,0.204,0.2909,0.3219,0.2433,0.0,0.0,-0.0065,-0.0424,-0.0636,-0.0682,-0.0759,-0.1059,-0.2002,-0.1889,-0.1791,-0.2287,-0.1712,-0.1678,-0.3263,-0.2864,-0.3063,-0.5162,-0.474,-0.4418,-0.5011,-0.5119,-0.5398,-0.5917,-0.613,-0.6255,-0.6347,-0.6306,-0.6251,-0.6216,-0.6142,-0.6012,-0.5884,-0.5825,-0.578,-0.5743,-0.6075,-0.6122,-0.5851,-0.5177,-0.4757,-0.4559,-0.3126,-0.2322,-0.2006,-0.0963,-0.0519,-0.0385,0.1098,0.1708,0.1709,0.1689,0.1694,0.1662,0.1288,0.1415,0.1724,-0.005,-0.0219,-0.0606,-0.1535,-0.1984,-0.2534,-0.3454,-0.3999,-0.4298,-0.4302,-0.4416,-0.4755,-0.5424,-0.5937,-0.6761,-0.8094,-0.8043,-0.8484,-0.9754,-0.9937,-1.0325,-1.1044,-1.1363,-1.1643,-1.1902,-1.0571,-0.9859,-0.9868,-0.8754,-0.8208,-0.8208,-0.8014,-0.7926,-0.79,-0.79,-0.7768,-0.7529,-0.7529,-0.7367,-0.7139,-0.7117,-0.7117,-0.7117,-0.7095,-0.6433,-0.5389,-0.4493,0.0,0.0,0.0,-0.0694,-0.0358,-0.0527,-0.0295,0.0337,0.1929,0.3099,0.3789,0.0,0.0,0.0786,0.039,-0.0452,-0.1181,-0.1179,-0.1385,-0.1604,-0.1689,-0.1706,-0.1732,-0.1821,-0.1799,-0.2011,-0.2701,-0.2902,-0.3239,-0.3947,-0.4126,-0.4223,-0.4221,-0.4744,-0.511,0.0,-0.5856,-0.6351,-0.6477,-0.6317,-0.6216,-0.6212,-0.5966,-0.582,-0.5816,-0.5668,-0.5622,-0.5618,-0.5739,-0.5816,-0.5818,-0.5908,-0.5934,-0.5883,-0.4552,-0.3219,-0.1987,-0.1875,-0.1899,-0.1924,-0.0455,0.0175,0.0175,0.0175,0.0175,0.0,-0.1437,-0.1105,0.0073,-0.0159,-0.0522,-0.0992,-0.1706,-0.2332,-0.2912,-0.3448,-0.3893,-0.4174,-0.4174,-0.4359,0.0,0.0,0.0,0.0,0.0,-0.7895,-0.8228,-0.9151,-0.9294,-0.9433,-0.9628,-1.0603,-1.1002,-1.0761,-1.0804,-1.0679,-1.0354,-0.9545,-0.9043,-0.8846,-0.8025,-0.7639,-0.7639,-0.7639,-0.7595,-0.7507,-0.7507,-0.7437,-0.7345,-0.7165,-0.7041,-0.6967,-0.7061,-0.677,-0.6179,0.0,0.0,0.0,0.0,0.0,-0.0528,-0.0278,-0.0107,0.021,0.1341,0.2098,0.245,0.0,0.0,0.0092,-0.0549,-0.108,-0.1454,-0.1463,-0.1582,-0.1678,-0.1699,-0.1653,-0.1656,-0.1789,-0.1794,-0.2017,-0.2689,-0.2492,-0.2684,-0.3847,-0.3279,-0.2917,-0.3413,-0.3597,0.0,0.0,0.0,0.0,-0.6094,-0.6041,-0.5953,-0.58,-0.5709,-0.5579,-0.5402,-0.5366,-0.5321,-0.526,-0.5318,-0.5365,-0.5398,-0.5638,-0.5815,-0.5906,-0.5515,-0.5124,-0.4736,-0.374,-0.3329,-0.3247,-0.1774,-0.1176,-0.1178,-0.12,-0.1242,-0.1313,-0.1882,-0.2462,-0.2764,-0.0187,-0.0529,-0.1003,-0.18,-0.235,0.0,0.0,0.0,0.0,0.0,0.0,0.0,0.0,0.0,0.0,0.0,0.0,-0.7703,-0.8265,-0.8373,-0.8586,-0.8949,-1.007,-1.0687,-1.0704,-1.0888,-1.0836,-1.0532,-0.9793,-0.9381,-0.9285,-0.8569,-0.8077,-0.7852,-0.7852,-0.7676,-0.7348,-0.7348,-0.7348,-0.7338,-0.7071,-0.6908,-0.6826,-0.6809,-0.663,0.0,0.0,0.0,0.0,0.0,-0.0832,-0.0417,-0.0169,0.0084,0.0453,0.1131,0.1496,0.1596,0.0,0.0509,-0.0167,-0.0645,-0.0961,-0.1201,-0.1312,-0.1449,-0.1587,-0.1675,-0.1654,-0.1654,-0.1748,-0.1797,-0.1955,-0.2362,-0.2127,-0.2174,-0.3088,-0.2882,-0.283,-0.3329,-0.3981,0.0,0.0,0.0,0.0,-0.5648,-0.5538,-0.553,-0.559,-0.5495,-0.5366,-0.5194,-0.5185,-0.514,-0.5108,-0.5108,-0.5169,-0.5268,-0.5439,-0.5616,-0.579,-0.5849,-0.5943,-0.6054,-0.5101,-0.4717,-0.4669,-0.3186,-0.2579,-0.2583,-0.263,-0.2648,-0.2717,-0.3352,-0.4178,-0.4837,-0.0138,-0.0277,-0.0691,0.0,0.0,0.0,0.0,0.0,0.0,0.0,0.0,0.0,0.0,0.0,0.0,0.0,0.0,0.0,-0.7129,0.0,0.0,-0.8972,-0.9846,-1.0756,-1.1698,-1.0889,-1.0458,-1.0432,-0.9572,-0.927,-0.9508,-0.9458,-0.9083,-0.8443,-0.8443,-0.7946,-0.7117,-0.7073,-0.7073,-0.709,-0.679,-0.6668,-0.6624,-0.6372,-0.6066,-0.5694,0.0,0.0,0.0,0.0,-0.1135,-0.0163,-0.0387,0.008,0.0764,0.1139,0.1196,0.1179,0.1297,0.0663,-0.0025,-0.0026,-0.0234,-0.0522,-0.0848,-0.1129,-0.138,-0.1613,-0.1674,-0.1662,0.0,0.0,-0.1769,-0.1772,-0.1802,-0.1825,-0.1887,-0.2984,-0.383,0.0,0.0,0.0,0.0,0.0,0.0,-0.528,0.0,-0.5167,-0.5681,-0.5465,-0.532,-0.5258,-0.5198,-0.5126,-0.5094,-0.5094,-0.5184,-0.5389,-0.5393,-0.5459,-0.5601,-0.5605,-0.5705,-0.5874,-0.5874,-0.5998,-0.6057,-0.4681,-0.4105,-0.4105,-0.4112,-0.4113,-0.4275,-0.5695,-0.6212,-0.6033,0.0,0.0,0.0,0.0,0.0,0.0,0.0,0.0,0.0,0.0,0.0,0.0,0.0,0.0,0.0,0.0,0.0,0.0,-0.642,0.0,0.0,0.0,0.0,0.0,0.0,0.0,0.0,-1.0925,-1.0192,-0.9781,-0.9622,-0.8936,-0.8243,-0.7605,-0.7605,-0.7469,-0.721,-0.6722,-0.6798,-0.7203,-0.6637,-0.6256,-0.6034,-0.6055,-0.5745,-0.5283,0.0,0.0,0.0,0.0,0.0,-0.1938,-0.2341,-0.2257,-0.1842,-0.0939,-0.0761,-0.0693,0.0146,0.0025,-0.0308,-0.0311,-0.0682,-0.108,-0.1107,-0.1328,-0.1497,-0.1357,-0.1294,-0.1205,0.0,0.0,0.0,-0.1415,-0.164,0.0,-0.3005,-0.3444,0.0,0.0,0.0,-0.5602,-0.5482,-0.5683,0.0,0.0,-0.6544,-0.7043,-0.723,-0.7187,-0.6784,-0.5981,-0.5924,-0.559,-0.488,-0.4878,-0.4961,-0.5104,-0.5145,-0.5273,-0.5451,-0.5514,-0.5575,-0.5683,-0.5683,-0.5709,-0.5726,-0.5458,-0.533,-0.5341,-0.5465,-0.5482,-0.5552,-0.603,-0.6212,-0.6162,0.0,0.0,0.0,0.0,0.0,0.0,0.0,0.0,0.0,0.0,0.0,0.0,0.0,0.0,0.0,0.0,0.0,0.0,0.0,0.0,0.0,0.0,0.0,0.0,0.0,0.0,0.0,0.0,0.0,0.0,-0.9598,-0.9192,-0.8512,-0.7667,-0.7908,-0.75,-0.6626,-0.6522,-0.654,0.0,0.0,-0.5798,-0.5603,-0.5473,-0.5199,-0.4894,0.0,0.0,0.0,0.0,0.0,-0.2855,-0.3126,-0.2775,-0.2186,-0.1581,0.0,-0.0763,-0.0175,-0.0103,-0.0236,-0.0236,-0.0579,-0.0889,-0.0864,-0.1047,-0.1204,-0.1045,-0.0993,0.0,0.0,0.0,0.0,0.0,0.0,0.0,-0.3379,-0.4383,-0.5279,0.0,-0.6453,0.0,-0.671,-0.6714,-0.6933,0.0,-0.7133,-0.7141,-0.7552,-0.7487,-0.7223,-0.6742,-0.6664,-0.6227,-0.5338,-0.4985,-0.4856,-0.4999,-0.5063,-0.5184,-0.5324,-0.5412,-0.55,-0.5555,0.0,-0.5577,-0.5618,-0.567,-0.572,-0.5731,-0.5805,-0.5813,-0.5853,-0.5972,-0.6035,-0.6042,0.0,0.0,0.0,0.0,0.0,0.0,0.0,0.0,0.0,0.0,-0.4237,0.0,0.0,0.0,0.0,0.0,0.0,0.0,0.0,0.0,0.0,0.0,0.0,0.0,0.0,0.0,0.0,0.0,0.0,0.0,-0.9303,-0.9604,-0.9142,-0.807,-0.8536,-0.7737,-0.6085,-0.6431,-0.6326,-0.5905,-0.549,-0.5324,-0.526,0.0,0.0,0.0,0.0,0.0,0.0,0.0,-0.3961,-0.3558,-0.3635,-0.2912,-0.198,-0.1745,-0.107,-0.0374,-0.0078,0.0,0.0,0.0,-0.0211,-0.0388,-0.0403,-0.0611,-0.0785,-0.0757,0.0,-0.0739,-0.0707,0.0,-0.1193,-0.139,0.0,-0.3315,-0.3671,-0.5532,-0.6929,-0.7073,-0.8112,-0.8814,-0.8794,-0.8672,-0.8728,-0.9018,-0.731,-0.6647,-0.7544,-0.7417,-0.7381,-0.7531,-0.7318,-0.6814,-0.6017,-0.5313,-0.4976,-0.4981,-0.5059,-0.5124,-0.5203,-0.525,-0.5308,-0.5376,-0.529,0.0,-0.5346,-0.5358,-0.5393,-0.5481,-0.5492,-0.5528,-0.5624,-0.5733,-0.5755,-0.5755,0.0,0.0,0.0,0.0,0.0,0.0,0.0,0.0,0.0,0.0,-0.4309,-0.4326,0.0,0.0,0.0,0.0,0.0,0.0,0.0,0.0,0.0,0.0,0.0,0.0,0.0,0.0,0.0,0.0,0.0,0.0,-0.8194,-0.8681,-0.8495,-0.7777,-0.7869,-0.7711,-0.7312,-0.6361,-0.6221,-0.6531,-0.5427,-0.4921,-0.4817,0.0,0.0,0.0,0.0,0.0,0.0,0.0,-0.4721,-0.536,-0.5916,-0.5723,-0.5002,-0.3492,-0.2855,-0.225,-0.0484,0.0,0.0,0.0,-0.0213,-0.0392,-0.0391,-0.0599,0.0,0.0,-0.0468,-0.0399,-0.0181,-0.0492,0.0,-0.1912,0.0,0.0,0.0,0.0,-0.7078,0.0,0.0,0.0,0.0,0.0,0.0,0.0,0.0,-0.7972,-0.9065,-0.8981,-0.8703,-0.8247,-0.7547,-0.6814,-0.6017,-0.5867,-0.5473,-0.4834,-0.5028,-0.5116,-0.511,-0.4805,-0.4655,-0.4639,-0.4136,0.0,-0.396,-0.4015,-0.4325,-0.4791,-0.4887,-0.5205,-0.5616,-0.5632,-0.5591,-0.5557,0.0,0.0,0.0,0.0,0.0,0.0,0.0,-0.4167,-0.4358,-0.489,-0.5038,-0.5063,-0.4986,-0.4779,-0.4692,0.0,0.0,0.0,0.0,0.0,0.0,0.0,0.0,0.0,0.0,0.0,0.0,0.0,0.0,0.0,-0.7186,-0.7681,-0.7454,-0.6631,-0.7186,-0.6953,-0.6113,-0.5828,-0.5706,-0.5638,-0.4776,-0.4443,0.0,0.0,0.0,0.0,0.0,0.0,0.0,0.0,-0.4619,-0.5473,-0.6245,-0.5541,-0.4262,-0.3434,-0.2415,-0.1322,-0.0272,0.0,0.0,0.0,-0.0212,-0.0362,-0.0218,0.0,0.0,0.0,-0.0195,-0.015,-0.0022,0.0,0.0,0.0,0.0,0.0,0.0,0.0,0.0,0.0,0.0,0.0,0.0,0.0,0.0,0.0,0.0,-0.7951,-0.8785,-0.902,-0.9072,-0.8922,-0.8216,-0.7637,-0.7263,-0.6414,-0.5817,-0.5416,-0.4892,-0.4631,-0.461,-0.4221,-0.4033,-0.4005,-0.3727,0.0,-0.359,-0.3647,-0.3828,-0.4087,-0.4148,-0.4532,-0.5022,-0.5065,-0.523,-0.5443,0.0,0.0,0.0,0.0,0.0,0.0,0.0,-0.4394,-0.459,-0.5423,-0.5598,-0.5659,-0.5679,-0.5302,-0.5056,0.0,0.0,0.0,0.0,0.0,0.0,0.0,0.0,0.0,0.0,0.0,0.0,0.0,0.0,0.0,0.0,0.0,0.0,0.0,-0.6532,-0.6175,-0.496,-0.5308,-0.5156,0.0,0.0,-0.4022,0.0,0.0,0.0,0.0,0.0,0.0,0.0,0.0,-0.3836,-0.464,-0.5359,-0.4551,-0.323,-0.2898,-0.162,-0.0293,-0.0054,0.0,0.0,0.0,-0.0158,-0.0256,-0.0048,-0.0162,0.0,-0.0043,0.0,0.0,0.0,0.0,0.0,0.0,0.0,0.0,0.0,0.0,0.0,0.0,0.0,0.0,0.0,0.0,0.0,0.0,0.0,0.0,-0.8141,-0.8659,-0.906,-0.9323,-0.8861,-0.853,-0.8354,-0.7074,-0.6339,-0.6167,-0.4942,-0.4365,-0.4344,-0.3698,-0.3419,-0.3391,-0.3279,0.0,0.0,-0.3223,-0.3279,-0.3418,-0.3379,-0.3762,-0.4323,-0.4673,-0.5061,-0.5429,0.0,0.0,0.0,0.0,0.0,0.0,0.0,-0.4065,-0.4155,-0.5744,-0.5279,-0.51,-0.5878,-0.5864,-0.5547,0.0,0.0,0.0,0.0,0.0,0.0,0.0,0.0,0.0,0.0,0.0,0.0,0.0,0.0,0.0,0.0,0.0,0.0,0.0,0.0,-0.5839,-0.5673,-0.5177,0.0,0.0,0.0,0.0,0.0,0.0,0.0,0.0,0.0,0.0,0.0,0.0,0.0,-0.2951,-0.3226,-0.3906,-0.4296,-0.2582,0.0,-0.1231,-0.0271,0.0,0.0,0.0,-0.0026,-0.0025,0.0,0.0,-0.0023,0.0,0.0,0.0,0.0,-0.0175,0.0,0.0,0.0,0.0,0.0,0.0,0.0,0.0,0.0,0.0,0.0,0.0,0.0,0.0,0.0,0.0,-0.8071,-0.8513,-0.8855,-0.912,-0.9239,-0.8967,-0.8215,-0.7942,-0.7462,-0.6709,-0.551,-0.4922,-0.4873,-0.3451,-0.2778,-0.275,-0.2216,0.0,0.0,-0.1963,-0.23,-0.2773,-0.2703,-0.3068,-0.3744,-0.4978,-0.5398,-0.5575,0.0,0.0,0.0,0.0,0.0,0.0,-0.4131,-0.3767,-0.3844,-0.532,-0.5419,-0.5526,-0.5962,-0.6125,-0.5872,-0.5047,0.0,0.0,0.0,0.0,0.0,0.0,0.0,0.0,0.0,0.0,0.0,-0.4276,-0.491,0.0,0.0,0.0,0.0,0.0,0.0,-0.524,-0.4875,-0.4551,0.0,0.0,0.0,0.0,0.0,0.0,0.0,0.0,0.0,0.0,0.0,0.0,0.0,0.0,-0.2021,-0.2452,-0.2822,-0.1999,-0.1213,-0.0533,-0.0106,0.0,0.0,0.0,0.0,0.0,0.0,0.0,0.0645,0.0101,0.0415,0.0622,0.0094,-0.0057,-0.0457,0.0,0.0,0.0,0.0,0.0,0.0,0.0,0.0,0.0,0.0,0.0,0.0,0.0,0.0,0.0,-0.7707,-0.8109,-0.8494,-0.8851,-0.9091,-0.9088,-0.8805,-0.8185,-0.7743,-0.7433,-0.5431,-0.4491,-0.4514,-0.2911,-0.216,-0.2132,-0.1907,0.0,0.0,-0.1795,-0.1936,-0.2156,-0.212,-0.2896,-0.4032,-0.4546,-0.5409,-0.6431,0.0,0.0,0.0,0.0,0.0,-0.2173,-0.3589,-0.326,-0.3313,-0.4621,-0.4857,-0.512,-0.5641,-0.5804,-0.5679,-0.5234,-0.4754,0.0,0.0,0.0,0.0,0.0,0.0,0.0,0.0,0.0,-0.3966,-0.4062,-0.4383,-0.4555,0.0,0.0,0.0,-0.45,0.0,0.0,0.0,0.0,0.0,0.0,0.0,0.0,0.0,0.0,0.0,0.0,0.0,0.0,0.0,0.0,0.0,0.0,-0.062,-0.0652,-0.0911,-0.1079,-0.0597,0.0,0.0,0.0,0.0,0.0,0.0199,0.0379,0.0395,0.1008,0.1416,0.0804,0.0978,0.1052,0.0435,0.0147,-0.0244,-0.1,0.0,-0.3201,0.0,0.0,0.0,0.0,0.0,0.0,0.0,0.0,0.0,0.0,0.0,0.0,-0.737,-0.7722,-0.8147,-0.8629,-0.8784,-0.8954,-0.913,-0.8374,-0.8008,-0.8017,-0.5846,-0.4695,-0.4434,-0.293,-0.2071,-0.1796,-0.2099,0.0,0.0,-0.2126,-0.2231,-0.219,-0.2217,-0.3108,-0.4445,-0.4831,-0.5855,-0.7119,0.0,0.0,0.0,0.0,0.0,0.0,-0.2961,-0.2479,-0.245,-0.366,-0.3231,-0.338,-0.4855,-0.4774,-0.4832,-0.5347,-0.4665,0.0,0.0,0.0,0.0,0.0,0.0,0.0,0.0,0.0,-0.419,-0.4194,-0.4207,-0.4207,-0.4203,-0.4078,-0.4007,-0.4007,0.0,0.0,0.0,0.0,0.0,0.0,0.0,0.0,0.0,0.0,0.0,0.0,0.0,0.0,0.0,0.0,0.0,0.0,0.0,0.1436,0.1094,0.0227,0.0,0.0,0.0,0.0,0.0,0.0,0.0646,0.1279,0.1278,0.1797,0.2282,0.2273,0.1654,0.1104,0.1086,0.0483,0.0,-0.0019,-0.1407,0.0,0.0,0.0,0.0,0.0,0.0,0.0,0.0,0.0,0.0,0.0,0.0,0.0,-0.7095,-0.737,-0.7801,-0.8484,-0.837,-0.8537,-0.8999,-0.8599,-0.8382,-0.8386,-0.7093,-0.5922,-0.4862,-0.3772,-0.2715,0.0,0.0,0.0,0.0,-0.2849,-0.3213,-0.3109,-0.3239,-0.3816,-0.4786,-0.6234,-0.6955,-0.7375,0.0,0.0,0.0,0.0,0.0,0.0,0.0,-0.1693,-0.1615,-0.2642,-0.2671,-0.3041,-0.4186,-0.3994,-0.4058,-0.4723,-0.4422,0.0,0.0,0.0,0.0,0.0,0.0,0.0,0.0,0.0,-0.4358,-0.4678,-0.4678,-0.4726,-0.4817,-0.4672,-0.4564,-0.447,-0.4144,-0.3901,0.0,0.0,0.0,0.0,0.0,0.0,0.0,0.0,0.0,0.0,0.0,0.0,0.0,0.0,0.0,0.0,0.0,0.0,0.0,0.1863,0.1817,0.1819,0.1743,0.1779,0.1828,0.1743,0.1905,0.2131,0.217,0.2708,0.303,0.2483,0.2123,0.1757,0.1196,0.0495,0.0,0.0,-0.0945,0.0,0.0,0.0,0.0,0.0,0.0,0.0,0.0,0.0,0.0,0.0,0.0,0.0,-0.7095,-0.7187,-0.7481,-0.8,-0.8016,-0.8172,-0.8445,-0.8192,-0.8157,-0.8324,-0.7086,-0.5985,-0.5002,-0.3817,-0.3113,0.0,0.0,0.0,0.0,-0.4249,-0.4309,-0.4183,-0.4186,-0.4743,-0.5611,-0.6093,-0.6943,-0.7983,0.0,0.0,0.0,0.0,0.0,0.0,0.0,-0.1162,-0.1113,-0.1697,-0.1875,-0.2302,-0.3249,-0.3027,-0.3191,-0.4156,-0.3955,0.0,0.0,0.0,0.0,0.0,0.0,0.0,0.0,-0.4281,-0.4577,-0.4984,-0.5057,-0.5162,-0.5285,-0.5197,-0.5029,-0.476,-0.442,-0.4086,0.0,0.0,0.0,0.0,0.0,0.0,-0.0556,0.0,0.0,0.0,0.0,0.0,0.0,0.0,0.0,0.0,0.0,0.0,0.0,0.0,0.3604,0.3531,0.2819,0.268,0.273,0.2627,0.2924,0.3208,0.3199,0.3687,0.3955,0.3385,0.2704,0.2072,0.1567,0.0673,0.0,0.0,-0.0991,0.0,0.0,0.0,0.0,0.0,0.0,0.0,0.0,0.0,0.0,0.0,0.0,0.0,-0.7095,-0.7095,-0.7228,-0.7526,-0.7651,-0.7854,-0.8115,-0.7905,-0.7883,-0.8096,-0.7362,-0.6489,-0.5542,-0.4399,-0.3854,0.0,0.0,0.0,0.0,-0.5477,-0.5543,-0.5341,-0.5369,-0.5924,-0.6685,-0.6726,-0.7403,-0.8318,0.0,0.0,0.0,0.0,0.0,0.0,0.0,-0.0886,-0.0887,-0.0886,-0.0943,-0.1308,-0.2131,-0.1928,-0.2253,-0.3569,0.0,0.0,0.0,0.0,0.0,0.0,0.0,0.0,0.0,-0.4541,-0.486,-0.5147,-0.5348,-0.5528,-0.5668,-0.5647,-0.5383,-0.4938,-0.4714,-0.4239,-0.3547,0.0,0.0,0.0,0.0,-0.0472,0.0,0.0,0.0,0.0,0.0,0.0,0.0,0.0,0.0,0.0,0.0,0.0,0.0,0.0,0.0,0.0,0.0,0.2988,0.2994,0.299,0.3758,0.4454,0.4317,0.4656,0.0,0.4757,0.3331,0.2109,0.2109,0.0955,0.0,0.0,-0.1361,0.0,0.0,0.0,0.0,0.0,0.0,0.0,0.0,0.0,0.0,0.0,0.0,0.0,-0.7076,-0.7095,-0.7095,-0.7095,-0.7282,-0.7565,-0.7951,-0.7701,-0.7655,-0.7797,-0.7707,-0.7174,-0.6199,-0.5175,-0.4728,0.0,0.0,0.0,0.0,-0.655,-0.6798,-0.652,-0.6695,-0.7194,-0.7814,-0.7932,-0.8138,-0.8414,0.0,0.0,0.0,0.0,0.0,0.0,0.0,0.0,0.0,0.0,-0.0831,-0.1025,-0.1489,-0.123,-0.1426,0.0,0.0,0.0,0.0,0.0,0.0,0.0,0.0,0.0,0.0,-0.4711,-0.5105,-0.5626,-0.5778,-0.6006,-0.628,-0.6034,-0.57,-0.5316,-0.4301,-0.3015,-0.1562,-0.1362,0.0,0.0,-0.0206,0.0149,0.0,0.0,0.0,0.0,0.1532,0.1678,0.0,0.0,0.0,0.0,0.0,0.0,0.0,0.0,0.5054,0.4974,0.4895,0.0,0.4876,0.4935,0.5135,0.5277,0.0,0.5094,0.5031,0.4889,0.346,0.225,0.225,0.1012,0.0,0.0,0.0,0.0,0.0,0.0,0.0,0.0,0.0,0.0,0.0,0.0,0.0,0.0,0.0,-0.6979,-0.6887,-0.701,-0.7095,-0.7095,-0.7154,-0.7291,-0.7535,-0.747,-0.7525,-0.7628,-0.6912,-0.5925,-0.4702,-0.3924,-0.3979,0.0,0.0,0.0,-0.7714,-0.7907,-0.7823,-0.7605,-0.755,-0.7587,-0.7655,-0.7689,-0.7794,-0.8105,0.0,0.0,0.0,0.0,0.0,0.0,0.0,0.0,0.0,0.0,0.0,0.0,0.0,0.0,0.0,0.0,0.0,0.0,0.0,0.0,0.0,0.0,0.0,0.0,-0.427,-0.4439,-0.4803,-0.535,-0.547,-0.548,-0.5362,-0.5894,-0.5504,-0.4303,-0.3305,-0.2132,-0.0899,-0.0901,-0.0391,0.0409,0.0417,0.0,0.0,0.0,0.0,0.0,0.2204,0.2389,0.0,0.3517,0.3838,0.396,0.0,0.0,0.0,0.0,0.4888,0.5012,0.5283,0.5472,0.5624,0.5715,0.5778,0.5775,0.5585,0.5422,0.524,0.4965,0.3962,0.2948,0.2405,0.1391,0.0,0.0,-0.1139,0.0,0.0,0.0,0.0,0.0,0.0,0.0,0.0,0.0,0.0,0.0,0.0,-0.6906,-0.6902,-0.7004,-0.7016,-0.6969,-0.7054,-0.7158,-0.7265,-0.7265,-0.7112,-0.6813,-0.6203,-0.5356,-0.4249,-0.3276,-0.3645,0.0,0.0,0.0,-0.8222,-0.8344,-0.8282,-0.8136,-0.8055,-0.7929,-0.7776,-0.7776,-0.8136,-0.8739,0.0,0.0,0.0,0.0,0.0,0.0,0.0,0.0,0.0,0.0,0.0,0.0,0.0,0.0,0.0,0.0,0.0,0.0,0.0,0.0,0.0,0.0,0.0,-0.4087,-0.385,-0.3948,-0.4215,-0.4647,-0.476,-0.4525,-0.4001,-0.5273,-0.476,-0.2754,-0.2158,-0.1479,-0.076,-0.0682,-0.0053,0.0906,0.098,0.0,0.0,0.0,0.0,0.0,0.0,0.0,0.0,0.439,0.4531,0.4364,0.4837,0.0,0.0,0.0,0.0,0.0,0.5177,0.5479,0.5771,0.5848,0.5999,0.6041,0.5717,0.5625,0.5477,0.5012,0.4357,0.3547,0.2524,0.1704,0.0,0.0,0.0,0.0,0.0,0.0,0.0,0.0,0.0,0.0,-0.6623,-0.6832,-0.6859,0.0,0.0,-0.6813,-0.6912,-0.6952,-0.6917,-0.6796,-0.6965,-0.7054,-0.7054,-0.7076,-0.6719,-0.6005,-0.5701,-0.5186,-0.4441,-0.3214,-0.3712,-0.5549,0.0,0.0,-0.7891,-0.8226,-0.8273,-0.8163,-0.8143,-0.8056,-0.7967,-0.8113,-0.8775,-0.9682,0.0,0.0,0.0,0.0,0.0,0.0,0.0,0.0,0.0,0.0,0.0,0.0,0.0,0.0,0.0,0.0,0.0,0.0,0.0,0.0,0.0,0.0,0.0,-0.2908,-0.3144,-0.3391,-0.3654,-0.3946,-0.3921,-0.3915,-0.3914,-0.3872,-0.3119,-0.1797,-0.1531,-0.0939,-0.0116,0.0286,0.0622,0.0936,0.1326,0.0,0.0,0.0,0.0,0.0,0.0,0.0,0.0,0.3937,0.4074,0.4251,0.4442,0.0,0.0,0.0,0.0,0.0,0.5265,0.5659,0.5916,0.5774,0.6004,0.6103,0.5494,0.5483,0.5489,0.5065,0.3784,0.2698,0.0,0.1233,0.0165,0.0,0.0,0.0,0.0,0.0,0.0,0.0,0.0,-0.6888,-0.6785,-0.68,-0.6725,-0.6454,0.0,-0.6589,-0.6505,-0.6714,-0.6825,-0.6803,-0.6827,-0.685,-0.685,-0.6965,-0.6849,-0.6476,-0.5771,-0.5241,-0.4893,-0.4102,-0.4399,-0.5514,0.0,-0.6471,-0.7716,-0.7668,-0.7644,-0.7613,-0.744,-0.7484,-0.7768,-0.8676,-0.9262,-0.9924,0.0,0.0,0.0,0.0,0.0,0.0,0.0,0.0,0.0,0.0,0.0,0.0,0.0,0.0,0.0,0.0,0.0,0.0,0.0,0.0,0.0,0.0,0.0,0.0,-0.2658,-0.2764,-0.2919,-0.3158,-0.2974,-0.2721,-0.237,-0.197,-0.1684,-0.1463,-0.0863,-0.0197,0.0495,0.0718,0.1221,0.1896,0.0,0.0,0.0,0.0,0.0,0.0,0.0,0.0,0.0,0.0,0.4255,0.424,0.4444,0.0,0.0,0.0,0.0,0.0,0.5167,0.5504,0.5793,0.564,0.597,0.6079,0.5041,0.4932,0.4927,0.4444,0.3502,0.2706,0.0,0.0,0.0221,-0.1453,0.0,0.0,0.0,0.0,0.0,0.0,0.0,-0.6864,-0.6806,-0.6801,-0.6728,-0.6523,0.0,0.0,-0.6496,-0.6634,-0.6652,-0.6579,-0.672,-0.6676,-0.6417,-0.6664,-0.6511,-0.595,-0.5436,-0.486,-0.4216,-0.3787,-0.4136,-0.5125,0.0,-0.6169,-0.7223,-0.731,-0.7333,-0.7327,-0.7238,-0.7263,-0.7612,-0.941,-1.0583,-1.156,0.0,0.0,0.0,0.0,0.0,0.0,0.0,0.0,0.0,0.0,0.0,0.0,0.0,0.0,0.0,0.0,0.0,0.0,0.0,0.0,0.0,0.0,0.0,0.0,-0.21,-0.2075,-0.2143,-0.2323,-0.2024,-0.1548,-0.0903,-0.0569,-0.0662,-0.1103,-0.0162,0.0504,0.0912,0.1209,0.1856,0.2728,0.0,0.0,0.0,0.0,0.0,0.0,0.0,0.0,0.0,0.0,0.0,0.0,0.0,0.0,0.0,0.457,0.4909,0.5294,0.5219,0.5516,0.5815,0.5703,0.597,0.5918,0.4623,0.4622,0.4625,0.3696,0.3213,0.0,0.0,0.1594,0.0,-0.2284,-0.2954,0.0,0.0,-0.6243,-0.6455,-0.658,-0.6728,-0.6779,-0.6722,-0.6744,-0.6698,-0.6548,-0.645,0.0,-0.6551,-0.6545,-0.6503,-0.6404,-0.6595,-0.6526,-0.6168,-0.6427,-0.6241,-0.5596,-0.5164,-0.4718,-0.4242,-0.3793,-0.4164,-0.5176,-0.5397,-0.5934,-0.6717,-0.6939,-0.7011,-0.7011,-0.7011,-0.7406,-0.8219,-1.0386,-1.1974,-1.327,0.0,0.0,0.0,0.0,0.0,0.0,0.0,0.0,0.0,0.0,0.0,0.0,0.0,0.0,0.0,0.0,0.0,0.0,0.0,0.0,0.0,0.0,0.0,0.0,-0.1278,-0.1353,-0.141,-0.1496,-0.1089,-0.0717,-0.0369,-0.0391,-0.0391,-0.0332,0.0598,0.0984,0.0973,0.209,0.2619,0.2756,0.3313,0.0,0.0,0.0,0.0,0.0,0.0,0.0,0.0,0.0,0.0,0.0,0.0,0.0,0.4492,0.4927,0.5167,0.5372,0.573,0.6046,0.626,0.6241,0.6046,0.5537,0.4396,0.5005,0.5198,0.3043,0.0,0.0,0.0,0.0679,-0.0166,-0.1023,-0.2206,-0.3442,-0.4643,0.0,-0.6455,-0.658,-0.6728,-0.6711,-0.6458,-0.6539,-0.6537,-0.6336,-0.6382,0.0,-0.6423,-0.6423,-0.642,-0.641,-0.641,-0.6412,-0.6385,-0.6396,-0.6366,-0.6233,-0.5273,-0.5288,-0.6161,-0.5145,-0.5272,-0.6298,-0.6306,-0.6359,-0.6437,-0.6462,-0.6462,-0.6462,-0.6462,-0.7989,-1.0344,-1.175,-1.31,-1.4274,0.0,0.0,0.0,0.0,0.0,0.0,0.0,0.0,0.0,0.0,0.0,0.0,0.0,0.0,0.0,0.0,0.0,0.0,0.0,0.0,0.0,0.0,0.0,-0.1088,-0.1264,-0.128,-0.1352,-0.1469,-0.1154,-0.0765,-0.0356,-0.0348,-0.025,-0.0078,0.0731,0.1238,0.1527,0.243,0.2991,0.3283,0.3597,0.3754,0.0,0.0,0.0,0.0,0.0,0.0,0.0,0.0,0.3596,0.3664,0.4022,0.4282,0.4531,0.4829,0.5302,0.5695,0.5567,0.587,0.6178,0.5969,0.5894,0.5617,0.4684,0.4277,0.3842,0.2939,0.1869,0.0,0.0,0.0,-0.0049,-0.0975,-0.2112,-0.3192,-0.4122,-0.5359,-0.618,-0.6224,-0.6488,-0.6594,-0.6355,-0.6412,-0.6439,-0.6306,-0.6333,-0.6363,-0.6406,-0.6412,-0.6412,-0.6412,-0.6412,-0.6447,-0.6523,-0.645,-0.61,-0.5496,-0.5021,-0.501,-0.5386,-0.4985,-0.5386,-0.6412,-0.6412,-0.6412,-0.6412,-0.6412,-0.6412,-0.6462,-0.7129,-0.8513,-1.0308,-1.1658,-1.2961,-1.4142,0.0,0.0,0.0,0.0,0.0,0.0,0.0,0.0,0.0,0.0,0.0,0.0,0.0,0.0,0.0,0.0,0.0,0.0,0.0,-0.0796,-0.0861,0.0,0.0,-0.0917,-0.127,-0.1115,-0.1204,-0.1512,-0.1227,-0.0878,-0.0457,-0.0383,-0.0103,0.0,0.0,0.0,0.0,0.0,0.0,0.361,0.3744,0.3777,0.0,0.0,0.0,0.0,0.0,0.0,0.0,0.0,0.3442,0.3492,0.3957,0.4209,0.4412,0.4804,0.5375,0.5832,0.5643,0.5892,0.6193,0.5984,0.5996,0.5813,0.4919,0.4091,0.336,0.2695,0.1191,0.0078,0.0357,0.0,0.0,0.0,-0.142,-0.248,-0.3364,-0.4578,-0.5536,-0.5942,-0.6237,-0.6369,-0.6257,-0.6317,-0.6336,-0.6243,-0.6271,-0.6317,-0.6406,-0.6412,-0.6412,-0.6412,-0.6412,-0.6276,-0.6024,-0.5931,-0.5232,-0.393,-0.3832,-0.3976,-0.4305,-0.4305,-0.4883,-0.5909,-0.6262,-0.6412,-0.6412,-0.6412,-0.6609,-0.698,-0.7723,-0.9032,-1.0612,-1.1541,-1.2719,-1.3979,0.0,0.0,0.0,0.0,0.0,0.0,0.0,0.0,0.0,0.0,0.0,0.0,0.0,0.0,0.0,0.0,0.0,0.0,-0.079,-0.0794,-0.0847,-0.0983,-0.0476,-0.0509,-0.1171,-0.073,-0.0825,-0.1504,-0.1223,-0.0932,-0.0608,-0.0447,0.0,0.0,0.0,0.0,0.0,0.0,0.0,0.0,0.3744,0.3713,0.3592,0.0,0.0,0.0,0.0,0.0,0.0,0.0,0.3115,0.3122,0.3869,0.4059,0.415,0.4971,0.539,0.5689,0.6087,0.6253,0.6309,0.6371,0.6372,0.6085,0.4947,0.4684,0.4123,0.219,0.084,0.026,0.1143,0.0819,0.0,0.1112,0.0076,-0.1184,-0.224,-0.332,-0.4502,-0.5839,-0.5992,-0.6029,-0.6084,-0.6219,-0.6241,-0.6118,-0.6222,-0.6317,-0.6406,-0.6387,-0.6387,-0.6387,-0.6387,-0.5862,-0.4811,-0.4791,-0.3696,-0.1581,-0.1581,-0.2155,-0.32,-0.3198,-0.3802,-0.4885,-0.5937,-0.6412,-0.6412,-0.6412,-0.703,-0.7996,-0.7996,-0.9472,-1.1585,-1.1614,-1.2573,-1.3931,0.0,0.0,0.0,0.0,0.0,0.0,0.0,0.0,0.0,0.0,0.0,0.0,0.0,0.0,0.0,0.0,0.0,0.0,0.005,0.0038,0.0027,-0.0015,0.0185,0.018,-0.0072,0.0392,-0.0042,-0.1427,-0.1215,-0.0962,-0.0644,0.0,0.0,0.0,0.0,0.0,0.0,0.0,0.0,0.3732,0.3575,0.3491,0.3447,0.0,0.0,0.0,0.0,0.0,0.0,0.0,0.0,0.0,0.3645,0.3968,0.4257,0.4824,0.5344,0.5738,0.5708,0.6093,0.6265,0.5178,0.517,0.0,0.0,0.3633,0.0,0.0,0.073,0.07,0.0969,0.0,0.0,0.1213,0.0103,-0.1049,-0.1742,-0.2922,-0.4155,-0.529,-0.5614,-0.5753,-0.5805,-0.586,-0.5937,-0.6089,-0.6142,-0.6225,-0.6401,-0.6214,-0.6114,-0.6114,-0.5206,-0.4607,-0.4387,-0.3538,-0.2441,-0.1108,-0.1068,-0.1808,-0.3208,-0.3192,-0.4201,-0.5937,-0.6262,-0.6412,-0.6412,-0.6412,-0.6584,-0.703,-0.8542,-0.9554,-1.0415,-1.2257,-1.3219,-1.3708,0.0,0.0,0.0,0.0,0.0,0.0,0.0,0.0,-0.0247,-0.0202,-0.0236,-0.0247,0.0,0.0,0.0,0.038,0.0403,0.0391,0.0368,0.0357,0.0363,0.036,0.0735,0.0967,0.1031,0.1177,0.0759,-0.0252,-0.0281,-0.0234,0.0,0.0,0.0,0.0,0.0,0.0,0.0,0.0,0.0,0.382,0.3583,0.3484,0.3455,0.0,0.0,0.0,0.0,0.0,0.0,0.0,0.0,0.0,0.3449,0.3754,0.4098,0.4813,0.5307,0.5664,0.5807,0.5873,0.5659,0.4724,0.4424,0.4061,0.2904,0.0,0.0,0.0,0.0555,0.0744,0.0876,0.0998,0.0,0.1262,0.0682,-0.0078,-0.0826,-0.2021,-0.3232,-0.4429,-0.5084,-0.5459,-0.5543,-0.5642,-0.5763,-0.5881,-0.592,-0.6005,-0.6114,-0.5939,-0.5623,-0.517,-0.4434,-0.3651,-0.2859,-0.2118,-0.1253,-0.0237,-0.0182,-0.1144,-0.2956,-0.303,-0.3943,-0.5542,-0.603,-0.6239,-0.6239,-0.6239,-0.6808,-0.7751,-0.8517,-0.9653,-1.1008,-1.216,-1.2972,-1.3563,0.0,0.0,0.0,0.0,0.0,0.0,0.0,0.0794,0.028,-0.0056,0.0191,0.0269,0.0,0.0,0.0,0.0492,0.0492,0.0467,0.0415,0.0428,0.045,0.0457,0.1255,0.1793,0.2008,0.1805,0.1641,0.1538,0.1176,0.0984,0.0,0.0,0.2324,0.0,0.0,0.4178,0.0,0.0,0.414,0.3881,0.3667,0.3579,0.353,0.3275,0.0,0.0,0.0,0.0,0.0,0.0,0.0,0.0,0.3279,0.3482,0.3809,0.4832,0.5245,0.5502,0.604,0.5506,0.4754,0.4554,0.3791,0.0,0.1847,0.1646,0.141,0.0576,0.0,0.0504,0.0879,0.1109,0.1284,0.1337,0.1523,0.1307,0.024,-0.0787,-0.1969,-0.3388,-0.4436,-0.5075,-0.5253,-0.5474,-0.5618,-0.5575,-0.5616,-0.5651,-0.5677,-0.5601,-0.5074,-0.404,-0.3914,-0.2952,-0.1026,-0.0821,-0.0279,0.0596,0.0597,-0.0549,-0.2658,-0.274,-0.3364,-0.4418,-0.5516,-0.5974,-0.5967,-0.5967,-0.7282,-0.916,-0.8149,-0.9698,-1.2414,-1.1643,-1.2282,-1.3515,0.0,0.0,0.0,0.0,0.0,0.0,0.1366,0.0816,0.0459,0.0638,0.0514,0.047,0.0649,0.0739,0.0,0.1164,0.1186,0.1196,0.1235,0.1441,0.1576,0.1637,0.2111,0.2295,0.2079,0.2774,0.2708,0.1814,0.1833,0.1807,0.0,0.0,0.0,0.0,0.0,0.0,0.0,0.0,0.4093,0.3868,0.3565,0.3386,0.326,0.3046,0.2945,0.0,0.0,0.0,0.0,0.0,0.0,0.0,0.3139,0.34,0.3745,0.4441,0.4928,0.5154,0.4703,0.469,0.0,0.2577,0.1423,0.0666,0.0443,0.0392,0.0391,0.0399,0.0402,0.0578,0.1122,0.1084,0.1132,0.1608,0.1522,0.1082,0.0213,-0.0106,-0.1026,-0.3033,-0.3483,-0.3984,-0.4899,-0.5041,-0.5141,-0.5271,-0.5307,-0.5358,-0.5467,-0.5248,-0.5012,-0.4778,-0.3007,-0.2201,-0.2535,-0.0951,-0.0423,-0.0939,-0.1029,-0.1803,-0.3137,-0.2793,-0.3674,-0.5457,-0.5721,-0.5791,-0.5687,-0.5687,-0.6112,-0.6908,-0.8315,-0.9452,-1.0493,-1.2092,-1.3026,-1.363,0.0,0.0,0.0,0.0,0.0,0.0,0.0,0.0,0.0916,0.0897,0.0884,0.0884,0.0895,0.1041,0.0,0.0,0.14,0.1413,0.1455,0.1702,0.1992,0.2317,0.2566,0.2671,0.2633,0.3327,0.3408,0.2804,0.31,0.0,0.0,0.0,0.0,0.0,0.0,0.0,0.0,0.0,0.0,0.0,0.0,0.3321,0.3192,0.3082,0.3001,0.2943,0.2943,0.0,0.0,0.0,0.0,0.0,0.0,0.0,0.355,0.4279,0.4748,0.4906,0.4415,0.0,0.0,0.1263,0.0,0.0,0.0,0.0,0.003,0.0174,0.032,0.0496,0.0818,0.0981,0.1202,0.1497,0.155,0.1407,0.0984,0.0434,-0.0321,-0.1472,-0.255,-0.3431,-0.3973,-0.4566,-0.493,-0.4995,-0.5011,-0.5037,-0.5064,-0.4897,-0.4552,-0.4001,-0.2847,-0.2227,-0.2226,-0.1184,-0.089,-0.1349,-0.1412,-0.213,-0.3362,-0.3673,-0.4484,-0.5666,-0.5666,-0.5608,-0.5512,-0.5512,-0.6309,-0.7621,-0.8633,-0.9866,-1.1282,-1.2511,-1.3201,-1.3654,0.0,0.0,0.0,0.0,0.0,0.0,0.0,0.0,0.0,0.1034,0.1231,0.1299,0.1018,0.1231,0.14,0.0,0.0,0.0,0.14,0.1647,0.2054,0.2611,0.2725,0.2904,0.3143,0.3531,0.3756,0.3798,0.4183,0.0,0.0,0.0,0.0,0.0,0.0,0.0,0.0,0.0,0.0,0.0,0.0,0.0,0.0,0.0,0.0,0.0,0.3081,0.3006,0.2904,0.278,0.0,0.0,0.0,0.0,0.3328,0.4134,0.4548,0.4695,0.444,0.3548,0.2238,0.0458,0.0,0.0,0.0,0.0,0.0,0.0,0.0206,0.0408,0.048,0.0925,0.1318,0.1374,0.1627,0.1795,0.1795,0.0997,0.0327,0.0134,-0.1683,-0.2948,-0.3061,-0.4159,-0.4838,-0.477,-0.4749,-0.4703,-0.4645,-0.4591,-0.4108,-0.3162,-0.3029,-0.2642,-0.1906,-0.1751,-0.1723,-0.1846,-0.1858,-0.2505,-0.3662,-0.4663,-0.5224,-0.5454,-0.5454,-0.54,-0.5335,-0.5343,-0.6729,-0.8893,-0.8814,-1.0333,-1.254,-1.2735,-1.3104,-1.363,0.0,0.0,0.0,0.0,0.0,0.0,0.0,0.0,0.0,0.0,0.1377,0.1389,0.1333,0.1377,0.14,0.14,0.14,0.14,0.14,0.0,0.0,0.2335,0.258,0.2791,0.2936,0.3279,0.3564,0.3798,0.3864,0.0,0.0,0.0,0.0,0.0,0.0,0.0,0.0,0.0,0.0,0.0,0.0,0.0,0.0,0.0,0.0,0.0,0.0,0.3188,0.2971,0.2895,0.2701,0.0,0.0,0.0,0.3138,0.3723,0.4199,0.4437,0.4008,0.0,0.1481,0.0,0.0,0.0,0.0,0.0,0.0,0.0,0.0206,0.0496,0.079,0.1093,0.1402,0.1683,0.1767,0.1795,0.1795,0.1679,0.1194,0.0218,-0.0991,-0.2063,-0.292,-0.4048,-0.4701,-0.4632,-0.4528,-0.4453,-0.4441,-0.4365,-0.4279,-0.4121,-0.3323,-0.3238,-0.3911,-0.3159,-0.3191,-0.399,-0.4157,-0.4375,-0.463,-0.4952,-0.5151,-0.5226,-0.5226,-0.5202,-0.5136,-0.5082,-0.6064,-0.7715,-0.8489,-0.9866,-1.1521,-1.2462,-1.3104,-1.363,0.0,0.0,0.0,0.0,0.0,0.0,0.0,0.0,0.0,0.0,0.0,0.14,0.14,0.14,0.14,0.14,0.14,0.1467,0.1614,0.1737,0.192,0.2173,0.2303,0.2461,0.2668,0.2896,0.3156,0.3466,0.0,0.0,0.0,0.4435,0.4548,0.0,0.0,0.0,0.0,0.0,0.0,0.0,0.0,0.0,0.0,0.0,0.0,0.0,0.0,0.0,0.3306,0.3129,0.2871,0.2633,0.2753,0.0,0.0,0.0,0.383,0.3918,0.3081,0.2089,0.1108,0.0,0.0,0.0,0.0,0.0,0.0,0.0,0.0351,0.0729,0.0874,0.1121,0.1402,0.1739,0.1795,0.1795,0.1795,0.1795,0.1617,0.1123,-0.0515,-0.1782,-0.2181,-0.3748,-0.4718,-0.4655,-0.4563,-0.4512,-0.4512,-0.4401,-0.4352,-0.4352,-0.392,-0.3874,-0.43,-0.391,-0.3927,-0.4338,-0.4468,-0.4578,-0.4694,-0.4848,-0.5035,-0.5192,-0.5272,-0.5242,-0.5155,-0.5114,-0.6248,-0.8014,-0.8628,-1.005,-1.1845,-1.2539,-1.3104,-1.3727,0.0,0.0,0.0,0.0,0.0,0.0,0.0,0.0,0.0,0.0,0.0,0.14,0.14,0.0,0.0,0.0,0.14,0.1489,0.1681,0.1759,0.1839,0.1917,0.2063,0.2205,0.2315,0.2608,0.2854,0.3076,0.0,0.0,0.4105,0.4243,0.4478,0.0,0.4588,0.0,0.0,0.0,0.0,0.0,0.0,0.0,0.0,0.0,0.0,0.0,0.0,0.0,0.3815,0.3436,0.3112,0.2862,0.278,0.2827,0.0,0.0,0.0,0.0,0.0,0.0,0.1572,0.0574,0.0323,0.0273,0.0,0.0,0.0,0.0,0.0493,0.09,0.0902,0.1177,0.1514,0.1767,0.1795,0.1795,0.1795,0.1795,0.1787,0.1792,0.0,-0.1216,-0.1183,-0.3135,-0.4363,-0.4333,-0.4501,-0.4632,-0.4632,-0.452,-0.4446,-0.4446,-0.4404,-0.4244,-0.3972,-0.3704,-0.3704,-0.3974,-0.4032,-0.4258,-0.4638,-0.4789,-0.4976,-0.5155,-0.5296,-0.532,-0.525,-0.5226,-0.6488,-0.848,-0.887,-1.0344,-1.235,-1.274,-1.3168,-1.3838,0.0,0.0,0.0,0.0,0.0,0.0,0.0,0.0,0.0,0.0,0.0,0.14,0.14,0.14,0.14,0.14,0.14,0.1411,0.1422,0.1658,0.1692,0.1444,0.1978,0.0,0.1848,0.2527,0.283,0.0,0.0,0.0,0.4105,0.4243,0.455,0.4963,0.4647,0.4434,0.4341,0.0,0.0,0.0,0.0,0.0,0.0,0.0,0.0,0.0,0.0,0.0,0.0,0.3827,0.349,0.3305,0.2989,0.2941,0.2997,0.0,0.0,0.0,0.0,0.3444,0.0,0.1643,0.1233,0.0,0.0,0.0,0.0,0.0,0.0489,0.0888,0.09,0.1374,0.1767,0.1795,0.1795,0.1795,0.1795,0.1795,0.1794,0.1793,0.0745,0.0,0.0,-0.1979,-0.3282,-0.3279,-0.4148,-0.4702,-0.4702,-0.464,-0.4589,-0.4589,-0.4585,-0.4094,-0.3069,-0.2057,-0.2057,-0.3069,-0.3128,-0.3695,-0.471,-0.4973,-0.5055,-0.5022,-0.5146,-0.527,-0.5367,-0.5252,-0.6536,-0.8635,-0.911,-1.0638,-1.2628,-1.2948,-1.3411,-1.4002,0.0,0.0,0.0,0.0,0.0,0.0,0.0,0.0,0.0,0.0,0.0,0.0,0.0,0.14,0.14,0.14,0.1558,0.158,0.1411,0.1647,0.1717,0.1539,0.1608,0.1804,0.2113,0.2289,0.0,0.0,0.0,0.3355,0.3778,0.3959,0.4115,0.4232,0.4506,0.4599,0.4566,0.48,0.0,0.0,0.0,0.0,0.0,0.0,0.0,0.0,0.0,0.0,0.0,0.0,0.4016,0.3608,0.3313,0.3122,0.0,0.0,0.0,0.0,0.0,0.0,0.0,0.2597,0.1861,0.1284,0.0963,0.0434,0.0056,0.0223,0.0595,0.0944,0.1125,0.1514,0.1795,0.1795,0.1795,0.1795,0.1795,0.1795,0.1795,0.1795,0.0753,0.0055,0.0109,-0.1323,-0.2533,-0.3217,-0.3554,-0.4063,-0.4852,-0.4066,-0.358,-0.358,-0.2864,-0.23,-0.192,-0.152,-0.1893,-0.2989,-0.2975,-0.3551,-0.465,-0.4781,-0.4896,-0.5005,-0.5102,-0.5181,-0.5323,-0.5925,-0.6651,-0.7569,-0.9499,-1.076,-1.1589,-1.2889,-1.3599,-1.4021,0.0,0.0,0.0,0.1782,0.0,0.14,0.14,0.14,0.0,0.0,0.0,0.0,0.0,0.0,0.1421,0.1402,0.1569,0.1591,0.1411,0.1647,0.1715,0.1537,0.1595,0.1752,0.1992,0.0,0.0,0.0,0.0,0.0,0.0,0.0,0.3816,0.3848,0.4292,0.0,0.0,0.0,0.0,0.4842,0.0,0.0,0.5882,0.0,0.0,0.0,0.0,0.0,0.0,0.0,0.0,0.0,0.0,0.0,0.0,0.0,0.0,0.0,0.3569,0.0,0.0,0.0,0.0,0.2296,0.1614,0.0,0.0569,0.0434,0.0666,0.0986,0.1254,0.1564,0.1795,0.1795,0.1795,0.1795,0.1795,0.1795,0.1795,0.1795,0.1093,0.0614,0.0662,0.0,0.0,-0.2095,-0.2454,0.0,-0.3785,-0.2969,-0.2487,-0.2487,-0.1429,-0.086,-0.0874,-0.0402,-0.0773,-0.2008,-0.2216,-0.2856,-0.3873,-0.452,-0.4744,-0.4678,-0.5008,-0.5179,-0.5349,-0.6296,-0.6879,-0.7365,-0.9702,-1.0905,-1.15,-1.284,-1.3619,-1.4096,0.0,0.1968,0.1993,0.1653,0.1482,0.1401,0.1402,0.1402,0.0,0.0,0.0,0.0,0.0,0.0,0.0,0.1408,0.1412,0.1411,0.14,0.1647,0.1692,0.1431,0.0,0.0,0.0,0.0,0.0,0.0,0.0,0.0,0.0,0.0,0.3694,0.0,0.4029,0.3971,0.3825,0.0,0.4628,0.4827,0.0,0.5656,0.5865,0.0,0.0,0.0,0.5567,0.5586,0.0,0.0,0.0,0.0,0.0,0.0,0.0,0.0,0.0,0.0,0.0,0.0,0.0,0.0,0.0,0.0,0.2112,0.0,0.1553,0.0608,0.0675,0.0983,0.1256,0.1579,0.1793,0.1793,0.1794,0.1795,0.1794,0.1794,0.1795,0.1795,0.0,0.0,0.0,0.0,0.0,0.0,-0.086,-0.1463,-0.1516,-0.1463,-0.1436,-0.1384,-0.0445,0.0078,0.0078,0.1429,0.1403,0.0026,-0.0763,-0.1552,-0.2406,-0.4092,-0.4543,-0.4026,-0.4782,-0.5213,-0.5465,-0.6353,-0.7207,-0.8112,-0.9629,-1.1086,-1.2413,-1.2849,-1.3509,-1.4322,0.2054,0.2064,0.1966,0.1533,0.1422,0.1414,0.1469,0.1475,0.0,0.0,0.0,0.0,0.0,0.0,0.0,0.0,0.1607,0.1602,0.1411,0.1647,0.1813,0.1832,0.1859,0.2015,0.0,0.0,0.0,0.0,0.0,0.0,0.0,0.0,0.0,0.0,0.3588,0.3708,0.3704,0.4512,0.0,0.0,0.5448,0.5346,0.0,0.0,0.0,0.0,0.0,0.3781,0.0,0.0,0.354,0.3746,0.0,0.0,0.0,0.0,0.0,0.0,0.4203,0.0,0.0,0.0,0.0,0.0,0.0,0.0,0.0,0.1154,0.1103,0.1261,0.1529,0.1714,0.179,0.179,0.1808,0.1787,0.1793,0.1809,0.0,0.0,0.0,0.0,0.0,0.0,0.0,0.0,-0.0192,-0.0732,-0.1598,-0.0813,0.0136,0.1132,0.1459,0.1692,0.1887,0.2309,0.1915,0.0712,0.0505,-0.0158,-0.119,-0.1625,-0.2366,-0.3329,-0.3074,-0.3886,-0.5465,-0.6353,-0.6851,-0.7265,-0.9381,-1.0726,-1.1596,-1.2776,-1.3627,-1.419,0.1652,0.1805,0.185,0.1467,0.1441,0.1489,0.1499,0.1544,0.1601,0.0,0.0,0.0,0.0,0.0,0.0,0.0,0.1624,0.1609,0.1448,0.1663,0.184,0.1913,0.1997,0.2169,0.0,0.0,0.0,0.0,0.0,0.0,0.0,0.0,0.0,0.0,0.0,0.0,0.0,0.0,0.0,0.0,0.4901,0.0,0.0,0.4022,0.3596,0.0,0.0,0.0,0.3577,0.3083,0.3357,0.0,0.0,0.0,0.0,0.0,0.0,0.0,0.0,0.0,0.0,0.0,0.0,0.0,0.0,0.0,0.0,0.0,0.1176,0.1381,0.1662,0.1738,0.1754,0.1769,0.1765,0.176,0.0,0.0,0.0,0.0,0.0,0.0,0.0,0.1765,0.1487,0.0804,0.0797,0.0548,-0.0028,0.0607,0.1416,0.2383,0.2413,0.2485,0.2627,0.2791,0.247,0.1713,0.1362,0.0918,0.0318,-0.0318,-0.1222,-0.2288,-0.2166,-0.3184,-0.4991,-0.5554,-0.6346,-0.7429,-0.9189,-1.059,-1.1746,-1.2599,-1.3478,-1.4175,0.0,0.1377,0.1673,0.1454,0.1516,0.1587,0.1528,0.1634,0.1726,0.0,0.0,0.0,0.0,0.0,0.0,0.0,0.1554,0.1528,0.1536,0.1716,0.1836,0.1871,0.2281,0.2406,0.2187,0.0,0.0,0.0,0.0,0.0,0.0,0.0,0.0,0.0,0.0,0.0,0.0,0.0,0.0,0.4781,0.4208,0.4058,0.0,0.0,0.2848,0.0,0.2486,0.317,0.406,0.3256,0.344,0.0,0.0,0.0,0.0,0.0,0.4304,0.0,0.0,0.0,0.0,0.0,0.0,0.0,0.0,0.0,0.0,0.0,0.0,0.1697,0.1959,0.2009,0.1969,0.1863,0.0,0.0,0.0,0.0,0.0,0.0,0.0,0.0,0.1797,0.175,0.1746,0.1797,0.1827,0.1949,0.223,0.2235,0.2406,0.2742,0.2746,0.275,0.2806,0.3027,0.3027,0.2778,0.2069,0.1832,0.194,0.0511,-0.0427,-0.0962,-0.1412,-0.2599,-0.4165,-0.4229,-0.5727,-0.8085,-0.8916,-1.0543,-1.2414,-1.2414,-1.3152,-1.4196,0.123,0.1355,0.1414,0.1474,0.1542,0.1615,0.1652,0.1771,0.1862,0.0,0.0,0.0,0.0,0.0,0.0,0.0,0.0,0.0,0.182,0.1858,0.2031,0.2353,0.2451,0.2573,0.2745,0.2801,0.0,0.0,0.0,0.0,0.0,0.0,0.0,0.0,0.0,0.0,0.0,0.0,0.0,0.4966,0.5121,0.0,0.3817,0.3219,0.2439,0.1582,0.0813,0.0699,0.0996,0.0,0.1819,0.2106,0.0,0.0,0.0,0.0,0.0,0.0,0.0,0.0,0.0,0.0,0.0,0.0,0.0,0.0,0.0,0.0,0.0,0.0,0.3837,0.388,0.3628,0.0,0.0,0.0,0.0,0.0,0.0,0.0,0.0,0.0,0.1717,0.1757,0.176,0.1714,0.1927,0.2172,0.2422,0.2483,0.2667,0.3025,0.3035,0.3139,0.3419,0.3475,0.3475,0.3419,0.3267,0.3183,0.317,0.2899,0.2064,0.0842,0.1189,-0.0417,-0.3313,-0.2851,-0.4775,-0.8029,-0.8195,-0.9959,-1.2414,-1.2414,-1.3152,-1.4196,0.0569,0.0874,0.1134,0.1229,0.1497,0.1626,0.1385,0.1494,0.0,0.0,0.0,0.0,0.0,0.0,0.0,0.0,0.0,0.0,0.1874,0.1968,0.2117,0.2393,0.2468,0.2629,0.289,0.2901,0.2901,0.0,0.0,0.0,0.0,0.0,0.0,0.0,0.0,0.0,0.0,0.0,0.455,0.5067,0.4812,0.0,0.3979,0.3409,0.2456,0.1359,0.1028,0.0509,0.0161,0.1153,0.1533,0.0,0.0,0.2646,0.2868,0.0,0.4171,0.386,0.0,0.0,0.0,0.4992,0.0,0.0,0.0,0.0,0.0,0.0,0.0,0.0,0.0,0.0,0.0,0.0,0.0,0.0,0.0,0.0,0.0,0.0,0.0,0.0,0.1711,0.1709,0.1762,0.1892,0.2146,0.2424,0.2744,0.2818,0.2981,0.328,0.3334,0.3418,0.3587,0.3587,0.3587,0.3587,0.3587,0.3571,0.3542,0.3574,0.2928,0.177,0.2064,0.0364,-0.2629,-0.2324,-0.4247,-0.7399,-0.7839,-0.9543,-1.1801,-1.2246,-1.3152,-1.4196,-0.0134,0.0303,0.0728,0.086,0.1254,0.1394,0.0958,0.1047,0.0,0.0,0.0,0.0,0.0,0.0,0.0,0.0,0.0,0.0,0.0,0.0,0.2077,0.2378,0.2492,0.2654,0.2899,0.2903,0.2901,0.0,0.0,0.0,0.0,0.0,0.0,0.0,0.0,0.0,0.0,0.0,0.0,0.5162,0.0,0.4137,0.4231,0.3604,0.2541,0.1413,0.1431,0.0822,0.0137,0.1003,0.0,0.1776,0.1494,0.2013,0.0,0.0,0.0,0.0,0.0,0.0,0.0,0.0,0.0,0.5244,0.0,0.0,0.0,0.0,0.0,0.0,0.0,0.0,0.0,0.0,0.0,0.0,0.0,0.0,0.0,0.0,0.0,0.0,0.1661,0.1686,0.1871,0.2228,0.2486,0.275,0.3051,0.3128,0.3265,0.348,0.3549,0.3587,0.3587,0.3587,0.3587,0.3587,0.36,0.3598,0.3589,0.36,0.3204,0.2464,0.2464,0.0783,-0.1958,-0.1958,-0.372,-0.6548,-0.7399,-0.8992,-1.0891,-1.1801,-1.2876,-1.3889,-0.0079,-0.0056,0.0035,0.0408,0.0572,0.0608,0.0486,0.0592,0.0,0.0,0.0,0.0,0.0,0.0,0.0,0.0,0.0,0.0,0.1401,0.0,0.0,0.27,0.2706,0.2743,0.2891,0.2903,0.2901,0.2901,0.0,0.0,0.0,0.0,0.0,0.0,0.2546,0.0,0.0,0.0,0.4468,0.0,0.4694,0.4387,0.0,0.3491,0.2458,0.1304,0.0489,0.011,0.0028,0.0,0.0969,0.1942,0.0,0.1919,0.0,0.0,0.0,0.0,0.0,0.0,0.0,0.0,0.5467,0.0,0.0,0.0,0.0,0.0,0.0,0.0,0.0,0.0,0.0,0.0,0.0,0.0,0.0,0.0,0.0,0.0,0.0,0.0,0.0,0.189,0.2316,0.2778,0.2944,0.3095,0.3259,0.3337,0.3369,0.3422,0.3529,0.3587,0.3587,0.3587,0.3587,0.3589,0.367,0.3669,0.359,0.3672,0.3609,0.3446,0.3446,0.1735,-0.1062,-0.1062,-0.2823,-0.5631,-0.6518,-0.7983,-0.9715,-1.0836,-1.1819,-1.2748,-0.0438,-0.0292,-0.0137,0.0072,0.032,0.0401,0.0095,-0.0165,0.0,0.0,0.0,0.0,0.0,0.0,0.0,0.0,0.0,0.0121,0.0,0.0,0.0,0.0,0.2241,0.2509,0.2721,0.2723,0.2787,0.2901,0.2901,0.0,0.0,0.0,0.0,0.0,0.2443,0.0,0.2801,0.0,0.0,0.0,0.0,0.0,0.0,0.3174,0.2615,0.1501,0.0385,0.0,0.0,0.0,0.0481,0.0,0.0,0.0,0.0,0.0,0.0,0.0,0.0,0.0,0.0,0.0,0.0,0.0,0.5684,0.0,0.5789,0.0,0.0,0.0,0.0,0.0,0.0,0.0,0.0,0.0,0.0,0.0,0.0,0.0,0.0,0.0,0.0,0.0,0.0,0.0,0.3163,0.3327,0.3352,0.3429,0.3462,0.3462,0.3544,0.3587,0.3587,0.3587,0.3633,0.3669,0.3695,0.3711,0.3721,0.3711,0.3694,0.3667,0.363,0.2295,0.0084,-0.0615,-0.2263,-0.4451,-0.5517,-0.7041,-0.8803,-1.0476,-1.1651,-1.258,-0.0697,0.0,-0.033,-0.0296,-0.005,0.0013,-0.0359,-0.077,0.0,0.0,0.0,0.0,-0.0619,-0.1022,0.0,0.0,0.0,-0.0454,0.0,0.0,0.0829,0.0,0.165,0.0,0.0,0.2446,0.2623,0.285,0.0,0.0,0.0,0.0,0.0,0.0,0.0,0.2255,0.2311,0.0,0.0,0.29,0.3472,0.2694,0.1258,0.2148,0.1999,0.1201,0.0305,0.0,0.0,0.0,0.0381,0.0,0.0263,0.0,0.0,0.0,0.0,0.0,0.4898,0.0,0.0,0.0,0.0,0.0,0.0,0.0,0.0,0.0,0.0,0.0,0.0,0.0,0.0,0.0,0.0,0.0,0.0,0.0,0.0,0.0,0.0,0.0,0.0,0.0,0.0,0.0,0.0,0.3861,0.3417,0.3466,0.3496,0.3496,0.3556,0.3587,0.3587,0.3604,0.3662,0.3707,0.374,0.3772,0.3798,0.3753,0.3724,0.3703,0.3643,0.2576,0.0811,-0.0391,-0.1955,-0.372,-0.4931,-0.6267,-0.7783,-0.9951,-1.1456,-1.258,-0.0697,-0.0697,0.0,-0.0771,-0.0764,-0.0808,-0.0951,0.0,0.0,0.0,0.0,0.0,0.0,0.0,0.0,0.0,0.0,-0.1189,-0.0514,0.0,-0.02,0.0,0.0,0.1421,0.0,0.0,0.2436,0.2701,0.0,0.0,0.0,0.0,0.0,0.0,0.0,0.213,0.2912,0.2033,0.2063,0.2646,0.1975,0.1038,0.005,0.0,0.0085,0.0057,0.0028,0.0,0.0,0.0,0.0858,0.0,0.0,0.0,0.0,0.0,0.0,0.0,0.0,0.0,0.0,0.6599,0.0,0.0,0.0,0.0,0.6386,0.0,0.0,0.0,0.0,0.0,0.0,0.0,0.0,0.0,0.0,0.0,0.0,0.0,0.0,0.0,0.0,0.0,0.0,0.0,0.0,0.0,0.3476,0.3466,0.3496,0.3496,0.3556,0.3587,0.3587,0.3674,0.3705,0.3709,0.3828,0.3854,0.3799,0.3796,0.3764,0.3703,0.3643,0.2576,0.0811,-0.0391,-0.1955,-0.372,-0.4931,-0.58,-0.6631,-0.8989,-1.0929,-1.258,0.0,0.0,-0.0711,-0.0733,-0.0774,-0.0848,0.0,-0.1063,0.0,0.0,0.0,0.0,0.0,0.0,-0.1357,0.0,0.0,-0.1364,-0.1167,-0.0768,0.0,0.0,0.0,0.0753,0.0,0.0,0.0,0.0,0.0,0.0,0.0,0.0,0.0,0.0,0.0,0.1823,0.0,0.0,0.0,0.0,0.0,0.0313,0.0,0.0,0.0,0.0,0.0,0.0,0.0,0.0,0.0315,0.0648,0.0471,0.0654,0.099,0.1254,0.1851,0.0,0.0,0.0,0.4155,0.5771,0.0,0.0,0.0,0.0,0.0,0.0,0.0,0.0,0.0,0.0,0.0,0.0,0.0,0.0,0.0,0.0,0.0,0.0,0.0,0.0,0.0,0.0,0.0,0.0,0.0,0.0,0.0,0.3525,0.3575,0.3644,0.3665,0.3696,0.3736,0.3717,0.3748,0.3829,0.3871,0.3901,0.3857,0.3807,0.3787,0.3762,0.3659,0.3027,0.1933,-0.0084,-0.1509,-0.2602,-0.4622,-0.6169,-0.7381,-0.8188,-0.9662,-1.1574,-0.0687,0.0,0.0,-0.0697,-0.0774,0.0,0.0,0.0,0.0,0.0,-0.1281,0.0,-0.1338,0.0,-0.1353,0.0,-0.1412,-0.1459,-0.1502,-0.1111,0.0,-0.0989,-0.0373,0.0,0.0,0.0,0.0,0.0,0.0,0.1347,0.0,0.0,0.0,0.0,0.0,0.0,0.0,0.0,0.0546,0.0,0.0,0.0,0.0,0.0,0.0,0.0,0.0,0.0,0.0,0.0,0.0,0.0058,0.0341,0.0423,0.0504,0.0848,0.1495,0.2219,0.2551,0.2823,0.0,0.4975,0.4923,0.0,0.6423,0.0,0.0,0.0,0.0,0.0,0.0,0.0,0.0,0.0,0.0,0.0,0.0,0.0,0.0,0.0,0.0,0.0,0.0,0.0,0.0,0.0,0.0,0.0,0.0,0.0,0.3644,0.3705,0.3707,0.3736,0.3798,0.3781,0.3812,0.389,0.3912,0.3913,0.3885,0.3824,0.3799,0.3791,0.3669,0.3253,0.2552,0.0559,-0.0867,-0.1987,-0.3976,-0.5755,-0.7237,-0.7663,-0.9257,-1.1567,0.0,0.0,0.0,0.0,-0.0813,0.0,0.0,0.0,-0.1225,0.0,-0.1312,-0.1339,-0.1389,-0.1393,-0.1406,-0.1412,-0.1466,0.0,-0.1511,-0.1562,0.0,0.0,-0.1079,-0.0762,-0.065,0.0,0.0,0.0,0.0,0.0,0.0,0.0,0.0,0.0,0.1165,0.0,0.1049,0.0315,0.0,0.0,0.0,0.0,0.0,0.0,0.0,0.0,0.0,0.0,0.0,0.0,0.0,0.0059,0.0405,0.0524,0.0556,0.0908,0.1151,0.1503,0.2398,0.2781,0.3181,0.4266,0.4533,0.0,0.0,0.0,0.5685,0.0,0.0,0.0,0.0,0.0,0.0,0.0,0.0,0.0,0.0,0.0,0.0,0.0,0.0,0.0,0.0,0.0,0.0,0.0,0.0,0.0,0.0,0.0,0.3698,0.37,0.3709,0.374,0.3803,0.3861,0.3891,0.3895,0.3892,0.3889,0.3885,0.3824,0.3799,0.3791,0.3669,0.3253,0.2609,0.1344,-0.0224,-0.1903,-0.3189,-0.4678,-0.6241,-0.7474,-0.9697,-1.2346,-0.0766,-0.077,-0.0793,0.0,-0.0915,-0.1003,0.0,0.0,0.0,0.0,-0.1342,-0.1391,-0.1398,-0.1444,-0.1484,-0.1468,-0.1497,0.0,0.0,0.0,0.0,-0.165,-0.1386,-0.1233,-0.1188,-0.0809,0.0,-0.0212,0.0,0.0,0.037,0.0,0.0,0.0,0.0,0.0,0.1045,0.0308,0.0,0.0,0.0,0.0,0.0,0.0,0.0,0.0,0.0,0.0,0.0,0.0,0.0,0.009,0.0627,0.0652,0.0617,0.1137,0.1287,0.1375,0.1661,0.188,0.2257,0.3252,0.3555,0.3893,0.0,0.0,0.0,0.0,0.0,0.0,0.0,0.0,0.0,0.0,0.0,0.0,0.0,0.0,0.0,0.0,0.0,0.0,0.0,0.0,0.0,0.0,0.0,0.0,0.0,0.0,0.0,0.3667,0.3728,0.3805,0.3867,0.3883,0.3913,0.3897,0.3912,0.3889,0.3885,0.3824,0.3799,0.3791,0.3669,0.3363,0.283,0.0503,-0.0839,-0.1651,-0.4032,-0.5362,-0.627,-0.8855,-1.0231,-1.1111,-0.0831,0.0,0.0,-0.0939,0.0,0.0,-0.115,0.0,0.0,-0.1373,-0.1409,0.0,-0.149,-0.1486,-0.1509,-0.15,-0.1528,0.0,0.0,0.0,0.0,-0.1666,-0.1573,-0.1528,-0.1491,-0.1233,0.0,-0.0683,0.0,0.0,0.0013,0.0,0.0,0.0,0.0,0.0544,0.0,0.0173,0.0,0.0,0.0,0.0,0.0,0.0,0.0,0.0,0.0,0.0,0.0,0.0,0.0,0.0121,0.073,0.0848,0.0842,0.1474,0.1626,0.1568,0.1612,0.1681,0.1874,0.2396,0.2602,0.2899,0.3909,0.4023,0.3935,0.0,0.4872,0.0,0.0,0.0,0.0,0.0,0.0,0.0,0.0,0.0,0.0,0.0,0.0,0.0,0.0,0.0,0.0,0.0,0.0,0.0,0.0,0.0,0.0,0.3642,0.3735,0.3828,0.389,0.3887,0.3886,0.3889,0.3889,0.3889,0.3885,0.3824,0.3799,0.3791,0.3669,0.3335,0.2774,0.0727,-0.0671,-0.1789,-0.4543,-0.5764,-0.6304,-0.9301,-1.0352,-1.068,0.0,0.0,0.0,0.0,0.0,0.0,0.0,-0.1468,0.0,-0.1852,0.0,-0.1708,-0.1777,-0.1613,-0.1499,-0.1505,0.0,-0.1604,-0.1607,-0.1655,-0.1672,-0.1624,-0.167,-0.167,-0.1592,-0.1364,0.0,0.0,0.0,0.0,0.0,0.0,0.0,0.0,0.0,0.0,0.0,0.0,0.0,0.0,0.0,0.0,0.0,0.0,0.0,0.0,0.0,0.0,0.0,0.0,0.0,0.0121,0.0797,0.0986,0.1142,0.1791,0.1955,0.1902,0.1906,0.1863,0.1818,0.1822,0.1798,0.2046,0.298,0.306,0.3016,0.3282,0.4688,0.5817,0.0,0.0,0.0,0.0,0.0,0.0,0.0,0.0,0.0,0.0,0.0,0.0,0.0,0.0,0.0,0.0,0.0,0.0,0.0,0.0,0.0,0.3836,0.3918,0.4048,0.4163,0.4064,0.4129,0.4304,0.4223,0.4104,0.4038,0.3973,0.3886,0.3791,0.3669,0.3279,0.2636,0.1232,-0.0503,-0.253,-0.4953,-0.5955,-0.6405,-0.9257,-1.0316,-1.0749,0.0,0.0,0.0,0.0,0.0,-0.2474,-0.2503,-0.2566,-0.2935,-0.3862,-0.3196,-0.2699,-0.2833,-0.2046,-0.153,-0.1585,-0.1592,0.0,0.0,0.0,0.0,-0.1679,-0.1635,-0.1622,-0.1592,-0.1504,-0.1242,0.0,0.0,0.0,0.0,0.0,0.0,0.0,0.0,0.0,0.0,0.0,0.0,0.0,0.0,0.0,0.0,0.0,0.0,0.0,0.0,0.0,0.0,0.0,0.0,0.0121,0.0787,0.1009,0.1142,0.1791,0.1955,0.1906,0.1962,0.1924,0.1883,0.1879,0.1844,0.1859,0.2025,0.2059,0.2312,0.3259,0.442,0.5571,0.6601,0.0,0.0,0.0,0.0,0.0,0.0,0.0,0.0,0.0,0.0,0.0,0.0,0.0,0.0,0.0,0.0,0.0,0.0,0.0,0.0,0.0,0.4948,0.0,0.0,0.0,0.5351,0.6543,0.5872,0.5264,0.4739,0.4656,0.4327,0.3791,0.3669,0.3391,0.2829,0.0419,-0.23,-0.5004,-0.5654,-0.609,-0.6645,-0.9309,-1.0364,-1.0862,0.0,0.0,0.0,0.0,0.0,0.0,0.0,-0.4322,0.0,-0.4441,-0.4064,-0.38,-0.3879,-0.2988,-0.2387,-0.2433,-0.1908,-0.1623,-0.1638,-0.164,-0.1673,-0.1688,-0.1662,0.0,-0.1641,-0.1611,-0.1352,-0.0809,0.0,0.0,0.0,0.0,0.0,0.0,0.0,0.0,0.0,0.0,0.0,0.0,0.0,0.0,0.0,0.0,0.0,0.0,0.0,0.0,0.0,0.0,0.0,0.0119,0.0782,0.1006,0.1142,0.1791,0.1966,0.1958,0.2003,0.1985,0.1967,0.1951,0.1932,0.1903,0.1871,0.1853,0.2206,0.3402,0.4503,0.5834,0.7784,0.8655,0.0,0.0,0.0,0.0,0.0,0.0,0.0,0.0,0.0,0.0,0.0,0.0,0.0,0.0,0.0,0.0,0.0,0.0,0.0,0.0,0.0,0.0,0.0,0.0,0.589,0.6814,0.5861,0.5201,0.4889,0.4803,0.4415,0.3791,0.3669,0.3335,0.2663,-0.0196,-0.303,-0.5571,-0.5815,-0.6054,-0.6612,-0.9298,-1.0377,-1.0905,0.0,-0.1346,0.0,0.0,-0.3244,0.0,-0.5464,-0.5901,-0.5833,-0.5176,-0.4969,-0.4897,-0.4985,-0.4108,-0.3551,-0.3543,-0.2546,-0.1944,-0.1944,-0.1767,-0.1678,-0.1678,-0.168,-0.1682,-0.1679,-0.1685,-0.1433,0.0,0.0,0.0,0.0,0.0,0.0,0.0,0.0,0.0,0.0,0.0,0.0,0.0,0.0,0.0,0.0,0.0,0.0,0.0,0.0,0.0,0.0,0.0087,0.0059,0.0118,0.0871,0.1067,0.1142,0.1791,0.2008,0.2008,0.2008,0.2008,0.2008,0.2008,0.1997,0.1977,0.1905,0.1904,0.2314,0.3852,0.531,0.693,0.8965,0.9444,0.0,0.0,0.0,0.0,0.0,0.0,0.0,0.0,0.0,0.0,0.0,0.0,0.0,0.0,0.0,0.0,0.0,0.0,0.0,0.0,0.0,0.7933,0.7828,0.0,0.6698,0.7258,0.6096,0.5385,0.5104,0.4981,0.4501,0.3791,0.3669,0.297,0.1737,-0.0753,-0.3254,-0.5534,-0.5773,-0.6015,-0.6567,-0.9302,-1.0401,-1.096,0.0,0.0,0.0,0.0,0.0,0.0,-0.5664,-0.6574,-0.7247,-0.7292,-0.6421,-0.5902,-0.6197,-0.5288,-0.4653,-0.4641,-0.3674,-0.3049,-0.3049,-0.2149,-0.1621,-0.1621,-0.1676,-0.1678,-0.1622,-0.1674,-0.1528,0.0,0.0,0.0,0.0,0.0,0.0,0.0,0.0,0.0,0.0,-0.0101,0.0,0.0,0.0,0.0,0.0,0.0,0.0,0.0,0.0,0.0,0.0056,0.0344,0.0262,0.0177,0.1141,0.125,0.1142,0.1791,0.2008,0.2008,0.2008,0.2008,0.2008,0.2008,0.1965,0.19,0.1892,0.1857,0.249,0.4938,0.7454,0.9405,1.0068,0.9865,0.9791,0.0,0.0,0.0,0.0,0.0,0.0,0.0,0.0,0.0,0.0,0.0,0.0,0.0,0.0,0.0,0.0,0.0,0.0,0.9308,0.0,0.9733,0.9835,0.8661,0.8531,0.9395,0.8179,0.698,0.5808,0.5665,0.4941,0.3791,0.3669,0.2014,-0.0614,-0.1403,-0.3219,-0.5527,-0.5721,-0.6045,-0.67,-0.9328,-1.0461,-1.1111,0.0,0.0,0.0,0.0,0.0,0.0,0.0,-0.7102,-0.7481,-0.7695,-0.7336,-0.71,-0.722,-0.6344,-0.5758,-0.5752,-0.4201,-0.3198,-0.3198,-0.2196,-0.1592,-0.1592,-0.1672,-0.1682,-0.167,-0.1682,-0.1547,0.0,0.0,0.0,0.0,0.0,0.0,0.0,0.0,-0.0291,-0.0373,-0.0126,0.0,0.0,0.0,0.0,0.0,0.0,0.0,0.0,0.0,0.0,0.0057,0.0377,0.0264,0.0177,0.1171,0.1281,0.1142,0.1791,0.2008,0.2008,0.2008,0.2008,0.2008,0.2008,0.1945,0.1911,0.1905,0.1885,0.2599,0.5188,0.7962,1.0026,1.0413,1.0495,1.0541,1.069,0.0,0.0,0.0,0.0,0.0,0.0,0.0,0.0,0.0,0.0,0.0,0.0,0.0,0.0,0.0,0.0,0.0,1.0791,0.0,1.1273,1.1363,0.9718,0.9223,0.9856,0.8117,0.6797,0.59,0.5754,0.4948,0.3657,0.3244,0.1539,-0.0949,-0.1483,-0.3214,-0.5527,-0.5709,-0.6437,-0.7597,-0.9584,-1.0857,-1.1935,-0.4122,0.0,-0.4746,0.0,-0.5935,-0.6253,-0.7151,-0.7319,-0.7436,-0.7739,-0.7817,-0.7854,-0.7854,-0.7279,-0.6861,-0.6861,-0.5479,-0.4352,-0.3725,-0.2672,-0.1919,-0.1617,-0.1672,0.0,-0.1675,-0.1684,-0.1606,-0.1391,-0.1271,0.0,0.0,-0.083,-0.0795,0.0,-0.052,-0.0398,-0.0378,-0.0101,0.0,0.0,0.0,0.0,0.0,0.0,0.0,0.0,0.0,0.0,0.0058,0.0498,0.0414,0.0297,0.1209,0.1346,0.1266,0.1822,0.2008,0.2008,0.2008,0.2008,0.2008,0.2008,0.1947,0.1917,0.2062,0.2283,0.3244,0.5966,0.8631,1.0521,1.068,1.1002,1.1165,1.1035,0.0,0.0,0.0,0.0,0.0,0.0,0.0,1.0729,1.0491,0.0,0.0,0.0,0.0,0.0,0.0,0.0,0.0,0.0,0.0,0.0,1.2173,1.0822,1.0065,0.9858,0.8321,0.7011,0.587,0.5368,0.4567,0.3559,0.2974,0.1344,-0.0948,-0.1447,-0.3172,-0.5523,-0.5674,-0.6679,-0.8246,-0.9758,-1.1133,-1.2522,-0.4656,-0.4849,-0.5296,-0.6228,-0.6496,-0.6682,-0.6966,-0.7114,-0.7332,-0.7668,-0.7864,-0.7985,-0.7985,-0.7988,-0.7988,-0.7988,-0.7963,-0.7033,-0.4924,-0.3775,-0.2696,0.0,0.0,-0.1674,-0.1593,-0.1673,-0.1673,-0.1592,0.0,0.0,-0.1196,-0.0915,-0.0806,-0.0783,-0.053,-0.0412,-0.0373,-0.0105,0.0,0.0,0.0,0.0,0.0,0.0,0.0,0.0,0.0,0.0,0.0115,0.0762,0.0774,0.0605,0.129,0.1482,0.1575,0.1915,0.2008,0.2008,0.2008,0.2008,0.2008,0.2008,0.1961,0.1991,0.2387,0.3158,0.4621,0.7645,0.9893,1.1218,1.1025,1.1264,1.15,1.1496,0.0,0.0,0.0,0.0,0.0,0.0,1.191,1.1791,1.1786,0.0,0.0,0.0,0.0,0.0,0.0,0.0,0.0,1.2391,1.2654,0.0,1.2111,1.2137,1.1299,0.9595,0.9385,0.808,0.5839,0.4447,0.3732,0.3559,0.2974,0.1344,-0.0919,-0.1347,-0.3083,-0.5516,-0.557,-0.6655,-0.8364,-0.9779,-1.1186,-1.2657,-0.5829,-0.5975,-0.6183,-0.6495,-0.6679,-0.6887,-0.7109,-0.733,-0.7573,-0.7867,-0.7948,-0.7988,-0.7988,-0.7988,-0.7988,0.0,-0.7988,-0.7207,0.0,-0.3772,-0.2445,-0.1364,-0.1346,-0.1457,-0.1673,-0.1637,-0.1637,-0.1674,0.0,0.0,0.0,-0.1207,-0.108,-0.1062,-0.0589,-0.0389,-0.0393,-0.0106,0.0,0.0,0.0,0.0,0.0,0.0,0.0,0.0,0.0,0.0,0.0059,0.0506,0.0726,0.092,0.1356,0.1513,0.1575,0.1915,0.2008,0.2008,0.2008,0.2008,0.2008,0.2008,0.1961,0.1979,0.2298,0.4145,0.6136,0.7364,0.958,1.1348,1.1519,1.1627,1.1691,1.1691,1.1488,0.0,1.1484,0.0,0.0,0.0,1.1211,1.1187,0.0,1.1868,0.0,0.0,0.0,0.0,0.0,0.0,0.0,0.0,1.2894,0.0,1.2991,1.2473,1.1603,1.041,0.9647,0.8054,0.5725,0.4355,0.3692,0.3559,0.2974,0.1793,0.0223,-0.0997,-0.2498,-0.4108,-0.5184,-0.7029,-0.9186,-1.001,-1.183,-1.4002,-0.6267,-0.633,-0.6368,-0.6368,-0.6507,-0.6734,-0.7166,-0.7369,-0.7585,-0.794,-0.7988,-0.7839,-0.7437,-0.7388,0.0,-0.7817,-0.7817,-0.7135,-0.5577,-0.445,-0.3423,-0.2446,-0.2019,-0.1954,-0.2259,-0.1829,0.0,-0.1671,-0.1509,-0.1511,-0.1624,-0.1238,-0.1061,-0.1068,-0.0606,-0.0346,-0.0241,-0.0081,0.0,0.0,0.0,0.0,0.0,0.0,0.0,0.0,0.0,0.0087,0.0236,0.057,0.0914,0.1235,0.1575,0.1698,0.1729,0.1946,0.2008,0.2008,0.2008,0.2008,0.2008,0.2008,0.203,0.2288,0.3088,0.5297,0.7328,0.7935,0.9891,1.1553,1.1776,1.1806,1.1806,1.1806,1.1679,1.1606,1.1606,0.0,1.1453,0.0,0.0,0.0,0.0,1.1936,1.2228,0.0,0.0,0.0,0.0,0.0,0.0,1.2644,1.2875,1.3027,1.3089,1.2889,1.2238,1.1148,0.9395,0.7755,0.6192,0.4482,0.3673,0.3559,0.2974,0.2011,0.0774,-0.0833,-0.2356,-0.3779,-0.5092,-0.7308,-0.9842,-1.0192,-1.2121,-1.4633,-0.6102,-0.6055,-0.6011,0.0,-0.6074,0.0,-0.7126,-0.7257,-0.7437,-0.7939,-0.7939,-0.7512,-0.6512,-0.6412,-0.6711,-0.7469,0.0,0.0,0.0,-0.5559,-0.5233,-0.4404,-0.3428,-0.3,-0.3198,-0.222,-0.1667,-0.1592,-0.1312,-0.1362,-0.1677,-0.1068,-0.0809,-0.0876,-0.0522,-0.0222,0.0,0.0,0.0,0.0,0.0,0.0,0.0,0.0,0.0,0.0,0.0,0.0203,0.0532,0.087,0.1219,0.1513,0.1884,0.2008,0.2008,0.2008,0.2008,0.2008,0.2008,0.2008,0.2008,0.2008,0.2227,0.2861,0.4422,0.6317,0.803,0.9012,1.0516,1.1682,1.1776,1.1806,1.1806,1.1806,1.1806,1.1806,1.1806,1.1806,1.2042,0.0,0.0,0.0,1.2762,1.3108,1.2983,0.0,0.0,0.0,0.0,0.0,1.2895,1.2447,1.2687,1.2786,1.2654,1.3338,1.3084,1.1782,0.8746,0.7254,0.7116,0.4762,0.3642,0.3531,0.2945,0.2055,0.0872,-0.0803,-0.2498,-0.4155,-0.5195,-0.7518,-1.0274,-1.03,-1.2147,-1.4654,0.0,0.0,-0.6135,-0.6093,-0.6222,-0.6385,-0.6578,-0.7285,-0.7864,-0.7988,-0.7288,-0.6686,-0.6437,-0.6412,-0.6562,-0.6945,-0.7073,-0.6414,-0.473,-0.5227,-0.5152,-0.415,-0.4048,-0.3773,-0.3224,-0.2948,-0.2422,-0.1592,-0.1132,-0.1179,-0.1678,-0.0865,-0.0631,-0.0865,-0.0339,-0.0057,0.0,0.0,0.0,0.0,0.0,0.0,0.0,0.0,0.0,0.0,0.0,0.0058,0.0207,0.081,0.1067,0.1235,0.1822,0.2008,0.2008,0.2008,0.2008,0.2008,0.2008,0.2008,0.2008,0.2008,0.2379,0.2953,0.3615,0.5067,0.6663,0.7958,0.9319,1.0604,1.1621,1.1806,1.1806,1.1806,1.1806,1.1806,1.1806,1.1806,1.1816,0.0,1.2069,1.2234,1.2269,1.2428,1.2825,0.0,0.0,0.0,0.0,1.3433,1.315,1.2733,1.3046,1.3234,1.3223,1.3531,1.3174,1.2083,0.8796,0.7205,0.7113,0.4706,0.3489,0.3194,0.2861,0.2389,0.1719,-0.0562,-0.1893,-0.2737,-0.4789,-0.7388,-1.0032,-1.0222,-1.2252,-1.4901,-0.6195,-0.623,-0.6276,-0.6255,-0.6328,-0.6412,-0.6412,-0.6886,-0.7437,-0.7939,-0.7487,-0.6936,-0.6462,-0.6412,-0.6462,-0.6614,-0.6795,-0.6442,-0.5331,-0.5807,-0.5932,-0.5479,-0.525,-0.4974,-0.4678,-0.3699,-0.2632,-0.1458,-0.1173,-0.114,-0.1321,-0.0692,-0.0506,-0.0653,-0.0204,0.0,0.0,0.0,0.0,0.0,0.0,0.0,0.0,0.0,0.0,0.0,0.0,0.0087,0.0295,0.084,0.1097,0.1328,0.1822,0.2008,0.2008,0.2008,0.2008,0.2008,0.2008,0.2008,0.2069,0.2376,0.2698,0.3077,0.3534,0.4776,0.6239,0.7629,0.8921,1.0203,1.1557,1.1806,1.1806,1.1806,1.1806,1.1806,1.1806,1.1806,1.1796,1.1809,1.2124,1.2348,1.2476,1.2681,1.3024,1.3551,1.3292,0.0,1.3561,1.3462,1.3268,1.2942,1.325,1.3391,1.3391,1.3589,1.3414,1.2835,0.9464,0.784,0.7747,0.4883,0.3503,0.3306,0.2889,0.2573,0.2214,0.0107,-0.1335,-0.2374,-0.4167,-0.7,-1.011,-1.0248,-1.2279,-1.5014,-0.6412,-0.6412,-0.6412,-0.6412,-0.6412,-0.6412,-0.6412,-0.6412,-0.6736,-0.764,-0.7764,-0.7413,-0.6487,-0.6412,-0.6412,-0.6412,-0.6614,-0.6639,-0.6412,-0.6642,-0.6892,-0.7138,-0.6534,-0.6232,-0.6334,-0.4201,-0.2565,-0.1525,-0.129,-0.1075,-0.0906,-0.0567,-0.0404,-0.0407,-0.012,0.0,0.0,0.0,0.0,0.0,0.0,0.0,0.0,0.0,0.0,0.0,0.0,0.0203,0.053,0.0897,0.1215,0.1539,0.1882,0.2008,0.2008,0.2008,0.2008,0.2008,0.2008,0.2038,0.2223,0.2838,0.3023,0.3208,0.3765,0.4778,0.5968,0.7309,0.8617,0.993,1.125,1.1651,1.1827,1.1936,1.1869,1.1827,1.1936,1.19,1.1949,1.2178,1.2539,1.2807,1.2942,1.3257,1.3358,1.3202,1.3188,1.3188,1.3188,1.3363,1.3377,1.3197,1.3368,1.3463,1.3463,1.3603,1.3674,1.3611,1.0212,0.8579,0.8435,0.5102,0.3559,0.3447,0.291,0.2608,0.2344,0.069,-0.0935,-0.2516,-0.3623,-0.6514,-1.0066,-1.0274,-1.2221,-1.4794,-0.6412,-0.6412,-0.6412,-0.6412,-0.6412,-0.6412,-0.6412,-0.6412,-0.6462,-0.6637,-0.6637,-0.6587,-0.6412,-0.6412,-0.6412,-0.6412,-0.6437,-0.6437,-0.6412,-0.6642,-0.682,-0.6867,-0.6964,-0.6709,-0.6082,-0.3747,-0.2546,-0.2555,-0.1213,-0.0668,-0.0894,-0.057,-0.0441,-0.0458,-0.0154,0.0,0.0,0.0,0.0,0.0,0.0,0.0,0.0,0.0,0.0,0.0,0.0,0.0171,0.0463,0.0882,0.1195,0.1487,0.1876,0.2008,0.2008,0.2008,0.2008,0.2008,0.2008,0.2222,0.2529,0.29,0.3208,0.3517,0.3826,0.4073,0.4593,0.5937,0.7279,0.859,0.9866,1.1035,1.1996,1.2634,1.2213,1.203,1.2638,1.238,1.2148,1.2204,1.2749,1.3131,1.3163,1.3462,1.3627,1.3624,1.3624,1.3624,1.3624,1.3652,1.3627,1.3624,1.3652,1.3641,1.3641,1.3674,1.3603,1.3404,1.016,0.85,0.8246,0.5047,0.3309,0.2831,0.268,0.2307,0.1729,0.0288,-0.1156,-0.2541,-0.3825,-0.6187,-0.9015,-1.0205,-1.1869,-1.3727,-0.6412,-0.6412,-0.6412,-0.6412,-0.6412,-0.6412,-0.6412,-0.6412,-0.6412,-0.6412,-0.6412,-0.6412,-0.6412,-0.6412,-0.6412,-0.6412,-0.6412,-0.6412,-0.6412,-0.6642,-0.6795,-0.6795,-0.7067,-0.6761,-0.5807,-0.5073,-0.4215,-0.3224,-0.246,-0.1808,-0.1272,-0.086,-0.0503,-0.0213,-0.0062,0.0,0.0,0.0,0.0,0.0,0.0,0.0,0.0,0.0,0.0,0.0,0.0,0.017,0.0461,0.0879,0.1191,0.1482,0.1875,0.2008,0.2008,0.2008,0.2008,0.2008,0.2008,0.2099,0.2346,0.2869,0.3115,0.3363,0.3796,0.3889,0.4287,0.5632,0.6973,0.8282,0.9562,1.091,1.192,1.2237,1.2148,1.2124,1.2471,1.25,1.2539,1.2719,1.3024,1.3264,1.3444,1.3599,1.3688,1.3688,1.3688,1.3688,1.3688,1.3688,1.3688,1.3688,1.3688,1.3688,1.3688,1.3688,1.3376,1.2669,0.9913,0.8261,0.7511,0.4818,0.3449,0.3166,0.2782,0.2437,0.2102,0.0967,-0.0641,-0.2467,-0.3247,-0.5623,-0.8779,-1.0175,-1.1811,-1.3511,-0.6412,-0.6412,-0.6412,-0.6412,-0.6412,-0.6412,-0.6412,-0.6412,-0.6412,-0.6412,-0.6412,-0.6412,-0.6412,-0.6412,-0.6412,-0.6412,-0.6412,-0.6412,-0.6412,-0.6589,-0.6717,-0.6717,-0.6964,-0.6714,-0.5887,-0.6192,-0.5607,-0.4055,-0.3456,-0.2652,-0.1668,-0.107,-0.0506,0.0,0.0,0.0,0.0,0.0,0.0,0.0,0.0,0.0,0.0,0.0,0.0,0.0,0.0084,0.0283,0.0573,0.0961,0.127,0.1557,0.1863,0.1966,0.1967,0.2006,0.2008,0.2008,0.2008,0.2069,0.2253,0.2838,0.3054,0.324,0.3765,0.3889,0.4196,0.5235,0.6761,0.8191,0.9164,1.0698,1.1891,1.2095,1.218,1.2298,1.2535,1.2716,1.2904,1.3174,1.3264,1.3419,1.3688,1.3688,1.3688,1.3688,1.3688,1.3688,1.3688,1.3688,1.3688,1.3688,1.3688,1.3688,1.3688,1.3479,1.2921,1.2009,0.9514,0.7832,0.6886,0.4641,0.3545,0.3361,0.2825,0.2509,0.234,0.151,-0.023,-0.2443,-0.2807,-0.5079,-0.8393,-1.0172,-1.1721,-1.3149,-0.6412,-0.6412,-0.6412,-0.6412,-0.6412,-0.6412,-0.6412,-0.6412,-0.6412,-0.6412,-0.6412,-0.6412,-0.6412,-0.6412,-0.6412,-0.6412,-0.6412,-0.6412,-0.6412,-0.6412,-0.6437,-0.6437,-0.6692,-0.6795,-0.672,-0.5792,-0.535,-0.5442,-0.3216,-0.2067,-0.196,-0.0911,-0.0269,0.0,0.0,0.0,0.0,0.0,0.0,0.0,0.0,0.0,0.0,0.0,0.0,0.0028,0.028,0.0589,0.0901,0.126,0.1557,0.1799,0.1886,0.1904,0.191,0.1968,0.2008,0.2008,0.2008,0.2222,0.256,0.29,0.324,0.3548,0.3826,0.3889,0.392,0.4042,0.609,0.7919,0.8008,1.0088,1.2095,1.3047,1.2615,1.2539,1.355,1.3376,1.3174,1.3204,1.3479,1.3658,1.3688,1.3688,1.3688,1.3688,1.3688,1.3688,1.3688,1.3688,1.3688,1.3688,1.3688,1.3688,1.3688,1.2779,1.2171,1.1888,0.8853,0.7221,0.6832,0.467,0.3358,0.2772,0.2655,0.2293,0.1727,0.1104,-0.0454,-0.247,-0.3102,-0.4828,-0.7284,-1.0182,-1.1433,-1.2041,-0.6412,-0.6412,-0.6412,-0.6412,-0.6412,-0.6412,-0.6412,-0.6412,-0.6412,-0.6412,-0.6412,-0.6412,-0.6412,-0.6412,-0.6412,-0.6412,-0.6412,-0.6412,-0.6412,-0.6412,-0.6412,-0.6412,-0.6667,-0.6754,-0.6678,-0.6676,-0.6215,-0.5233,-0.411,-0.2926,-0.1736,-0.0833,-0.0242,0.0,0.0,0.0,0.0,0.0,0.0,0.0,0.0,0.0,0.0,0.0,0.0,0.0028,0.0309,0.0621,0.0941,0.1291,0.1581,0.1819,0.1889,0.1886,0.1907,0.1967,0.2008,0.2008,0.2008,0.2253,0.259,0.293,0.324,0.358,0.3826,0.3889,0.3889,0.3889,0.6029,0.7889,0.7889,1.0172,1.2168,1.2546,1.2725,1.2953,1.3379,1.3486,1.3509,1.3509,1.3629,1.3688,1.3688,1.3688,1.3688,1.3688,1.3688,1.3688,1.3688,1.3688,1.3419,1.2779,1.2779,1.2779,1.2779,1.1816,1.0973,1.0214,0.8245,0.6887,0.602,0.4254,0.3278,0.2995,0.2544,0.2193,0.1884,0.1111,-0.0513,-0.2587,-0.3184,-0.4941,-0.7505,-1.0291,-1.1532,-1.2186,-0.6412,-0.6412,-0.6412,-0.6412,-0.6412,-0.6423,-0.6463,-0.6479,-0.6496,-0.6523,-0.6493,-0.6482,-0.6523,-0.6458,-0.6425,-0.6463,-0.6433,-0.6412,-0.6412,-0.6447,-0.6469,-0.6469,-0.6687,-0.6765,-0.6733,-0.7187,-0.687,-0.5778,-0.4688,-0.3515,-0.2298,-0.0906,-0.0183,0.0,0.0,0.0,0.0,0.0,0.0,0.0,0.0,0.0,0.0,0.0,0.0,0.0057,0.0423,0.0706,0.097,0.1398,0.1655,0.1803,0.1862,0.1869,0.1905,0.1956,0.1969,0.2008,0.2008,0.2315,0.2714,0.293,0.324,0.358,0.3826,0.3889,0.3889,0.3889,0.5694,0.7401,0.7825,0.9832,1.1657,1.2268,1.2749,1.3114,1.3324,1.3539,1.3688,1.3688,1.3688,1.3688,1.3688,1.3688,1.3688,1.3688,1.3688,1.3688,1.3688,1.3688,1.3234,1.2234,1.1903,1.1601,1.1299,1.0637,0.9855,0.8888,0.7528,0.6336,0.5302,0.3942,0.3234,0.3047,0.2443,0.206,0.1792,0.1102,-0.0575,-0.2766,-0.3271,-0.5068,-0.7711,-1.0376,-1.1639,-1.2358,-0.6412,-0.6412,-0.6412,-0.6412,-0.6412,-0.6452,-0.6574,-0.6651,-0.6732,-0.679,-0.6698,-0.6642,-0.6787,-0.6558,-0.646,-0.6582,-0.6482,-0.6414,-0.6414,-0.6528,-0.6599,-0.6599,-0.6741,-0.6861,-0.7013,-0.7016,-0.7163,-0.7489,-0.4767,-0.3587,-0.3815,-0.1233,-0.0031,0.0,0.0,0.0,0.0,0.0,0.0,0.0,0.0,0.0,0.0,0.0,0.0,0.0086,0.0677,0.0898,0.0982,0.1598,0.1795,0.18,0.1802,0.1853,0.1901,0.1902,0.1953,0.2008,0.2008,0.25,0.2992,0.2992,0.324,0.358,0.3826,0.3889,0.3889,0.3889,0.496,0.6302,0.7645,0.8952,1.0441,1.2354,1.2689,1.293,1.3599,1.3688,1.3688,1.3688,1.3688,1.3688,1.3688,1.3688,1.3688,1.3688,1.3688,1.3688,1.3688,1.3688,1.3234,1.2208,1.1273,1.0304,0.9305,0.9275,0.894,0.826,0.6672,0.5529,0.4761,0.3828,0.317,0.2783,0.2373,0.1862,0.1283,0.1021,-0.0639,-0.3033,-0.3439,-0.5151,-0.775,-1.0478,-1.1719,-1.2385,-0.6412,-0.6412,-0.6412,-0.6412,-0.6482,-0.6553,-0.6588,-0.6703,-0.6774,-0.6798,-0.6771,-0.6728,-0.6653,-0.6582,-0.6555,-0.659,-0.6561,-0.6612,-0.6812,-0.6855,-0.695,-0.7089,-0.6999,-0.7024,-0.7197,-0.7202,-0.6906,-0.6238,-0.5406,-0.4175,-0.2557,-0.2678,-0.1756,-0.0031,-0.0987,-0.0895,0.0,0.0,0.0,0.0,0.0,0.0,0.0029,0.0267,0.0357,0.0445,0.1038,0.1265,0.1302,0.1668,0.1795,0.1804,0.1855,0.1885,0.1908,0.195,0.1969,0.2008,0.2008,0.25,0.2992,0.2992,0.3394,0.3796,0.3889,0.3889,0.3889,0.3889,0.496,0.6029,0.6425,0.8705,1.068,1.1257,1.25,1.3479,1.3658,1.3688,1.3688,1.3688,1.3688,1.3688,1.3688,1.3688,1.3688,1.3688,1.3688,1.3688,1.3688,1.302,1.2208,1.1239,1.0274,0.9271,0.833,0.833,0.7991,0.7317,0.6366,0.5527,0.4833,0.3889,0.3253,0.2862,0.2502,0.1944,0.128,0.1024,-0.0689,-0.3168,-0.349,-0.5324,-0.8124,-1.0577,-1.1828,-1.2657,-0.6412,-0.6412,-0.6425,-0.6474,-0.6544,-0.6626,-0.6749,-0.6828,-0.6891,-0.6964,-0.6902,-0.6844,-0.6774,-0.6676,-0.6612,-0.6687,-0.6692,-0.6793,-0.7062,-0.7037,-0.7133,-0.7438,-0.7298,-0.7285,-0.7446,-0.7452,-0.7159,-0.658,-0.5998,-0.4969,-0.3541,-0.3785,-0.2801,-0.0833,-0.1634,-0.1265,0.0,0.0,0.0,0.0,0.0,0.0,0.003,0.0211,0.0392,0.0571,0.1047,0.1273,0.1453,0.1698,0.1795,0.1804,0.1852,0.1876,0.1895,0.1945,0.1967,0.2008,0.2008,0.25,0.2992,0.2992,0.3455,0.3889,0.3889,0.3889,0.3889,0.3889,0.4532,0.5266,0.5814,0.7944,0.9919,1.068,1.22,1.3384,1.3658,1.3688,1.3688,1.3688,1.3688,1.3688,1.3688,1.3688,1.3688,1.3688,1.3688,1.3534,1.3144,1.2539,1.1601,1.0243,0.9609,0.8848,0.7903,0.7903,0.7441,0.6491,0.609,0.5418,0.4469,0.367,0.3165,0.2882,0.2409,0.1788,0.1115,0.0966,-0.0792,-0.3388,-0.3645,-0.5502,-0.8291,-1.0769,-1.2,-1.2765,-0.6412,-0.6412,-0.6447,-0.6558,-0.6596,-0.6711,-0.6934,-0.7013,-0.7065,-0.7196,-0.7092,-0.7018,-0.6999,-0.6771,-0.665,-0.6777,-0.6796,-0.6902,-0.7193,-0.7084,-0.7206,-0.7665,-0.7578,-0.757,-0.7684,-0.7706,-0.7769,-0.7903,-0.6549,-0.5885,-0.5876,-0.4766,-0.3447,-0.2004,-0.2127,-0.1357,0.0,0.0,0.0,0.0,0.0,0.0,0.0,0.003,0.0242,0.0572,0.0847,0.1154,0.1494,0.1722,0.1797,0.1804,0.1806,0.1865,0.1896,0.1896,0.1955,0.2008,0.2038,0.25,0.2992,0.3023,0.3486,0.3889,0.3889,0.3889,0.3889,0.3889,0.3889,0.4287,0.551,0.6973,0.8526,1.0222,1.1804,1.2964,1.3474,1.3629,1.3688,1.3688,1.3688,1.3688,1.3688,1.3688,1.3688,1.3688,1.3688,1.3264,1.2234,1.2118,1.1209,0.9366,0.9214,0.8757,0.7903,0.7903,0.7227,0.5906,0.5906,0.5204,0.3889,0.3301,0.3,0.2869,0.2237,0.1559,0.0916,0.0901,-0.0864,-0.3614,-0.3889,-0.5648,-0.8318,-1.0996,-1.2173,-1.2765,-0.6412,-0.6412,-0.642,-0.6447,-0.6609,-0.6782,-0.6834,-0.7027,-0.7155,-0.7207,-0.7188,-0.7076,-0.6864,-0.6793,-0.6736,-0.6639,-0.6747,-0.6902,-0.7193,-0.716,-0.7278,-0.7546,-0.7503,-0.7503,-0.7527,-0.7739,-0.7878,-0.7903,-0.7568,-0.6895,-0.5906,-0.6672,-0.5228,-0.2035,-0.3047,-0.2187,0.0,0.0,0.0,0.0,0.0,0.0,0.0031,0.0277,0.0614,0.0919,0.1203,0.1511,0.178,0.1785,0.181,0.1807,0.1866,0.1897,0.1897,0.1958,0.2002,0.2069,0.2314,0.2684,0.3054,0.3332,0.3642,0.3889,0.3889,0.3889,0.3889,0.3889,0.3889,0.398,0.4287,0.6667,0.8489,0.8194,1.1137,1.3264,1.2629,1.3204,1.3688,1.3688,1.3688,1.3688,1.3688,1.3688,1.3688,1.3688,1.3688,1.3264,1.2234,1.1511,1.0547,0.9335,0.8574,0.8116,0.7903,0.7903,0.7227,0.5906,0.5906,0.5204,0.3889,0.3548,0.3233,0.2946,0.2547,0.1839,0.0977,0.0992,-0.0829,-0.3618,-0.3899,-0.565,-0.8318,-1.0996,-1.2173,-1.2792,-0.6412,-0.6412,-0.6428,-0.6488,-0.6653,-0.6823,-0.688,-0.7068,-0.721,-0.721,-0.721,-0.7114,-0.691,-0.6891,-0.6864,-0.6798,-0.6902,-0.7076,-0.723,-0.7215,-0.7291,-0.7479,-0.7433,-0.743,-0.7487,-0.7641,-0.7703,-0.7703,-0.7703,-0.7342,-0.6683,-0.7459,-0.6334,-0.3704,-0.4428,-0.3652,-0.1828,-0.1828,-0.1469,-0.0956,-0.0956,-0.0586,0.0031,0.037,0.071,0.1048,0.1304,0.1605,0.1857,0.181,0.1787,0.1817,0.1877,0.1907,0.1907,0.1967,0.2008,0.2069,0.2406,0.2745,0.3085,0.3425,0.3703,0.3889,0.3889,0.3889,0.3889,0.3889,0.3889,0.3889,0.3889,0.5812,0.7429,0.7403,1.0165,1.229,1.2204,1.3084,1.3509,1.3054,1.3419,1.3688,1.3688,1.3688,1.3688,1.3688,1.3264,1.2569,1.1571,1.1061,1.0122,0.8665,0.8604,0.836,0.7903,0.7903,0.7227,0.5906,0.5906,0.5204,0.3889,0.3455,0.3177,0.2961,0.2314,0.1636,0.0987,0.082,-0.0989,-0.3734,-0.4104,-0.5805,-0.8438,-1.1166,-1.3144,-1.468,-0.6412,-0.6428,-0.6474,-0.6574,-0.6738,-0.6869,-0.697,-0.7108,-0.721,-0.721,-0.721,-0.7138,-0.7024,-0.6967,-0.6953,-0.6953,-0.7068,-0.7174,-0.724,-0.7209,-0.7253,-0.7448,-0.733,-0.7324,-0.7453,-0.7456,-0.7478,-0.7489,-0.7489,-0.7489,-0.7492,-0.7622,-0.6899,-0.5518,-0.5623,-0.4968,-0.3771,-0.3771,-0.3204,-0.2302,-0.2057,-0.1292,-0.0216,0.0309,0.0741,0.111,0.1339,0.1602,0.1814,0.1813,0.1794,0.1824,0.1878,0.191,0.1914,0.1969,0.2008,0.2099,0.2468,0.2775,0.3085,0.3486,0.3734,0.3889,0.3889,0.3889,0.3889,0.3889,0.3889,0.3889,0.3889,0.5053,0.6243,0.7006,0.9104,1.0955,1.1842,1.2689,1.296,1.2264,1.293,1.3509,1.3688,1.3688,1.3688,1.3688,1.2779,1.1872,1.1091,1.0728,0.9819,0.8177,0.8726,0.8696,0.7903,0.7778,0.7103,0.5906,0.5784,0.5082,0.3889,0.3271,0.2992,0.293,0.1945,0.1297,0.0987,0.0639,-0.1207,-0.3834,-0.433,-0.6022,-0.8543,-1.1369,-1.4223,-1.6703,-0.6412,-0.6496,-0.6574,-0.659,-0.6806,-0.6994,-0.701,-0.7108,-0.721,-0.721,-0.721,-0.7138,-0.7024,-0.6891,-0.6828,-0.6828,-0.6842,-0.6902,-0.7024,-0.7046,-0.7095,-0.7226,-0.7215,-0.7215,-0.7231,-0.7231,-0.7335,-0.7489,-0.7489,-0.7489,-0.7489,-0.7506,-0.6796,-0.5487,-0.5528,-0.4829,-0.3625,-0.3625,-0.3597,-0.3467,-0.2295,-0.1613,-0.117,0.0031,0.0895,0.1451,0.1479,0.166,0.1875,0.1816,0.1825,0.188,0.1884,0.1955,0.2002,0.2006,0.2008,0.213,0.2776,0.2961,0.3146,0.3703,0.3859,0.3889,0.3889,0.3889,0.3889,0.3889,0.3889,0.3889,0.3889,0.5233,0.6272,0.6121,0.8252,1.0172,1.0876,1.1122,1.145,1.2118,1.2328,1.2749,1.3629,1.3688,1.3688,1.3688,1.2779,1.2144,1.2023,1.0425,0.9396,0.9122,0.8452,0.8022,0.7903,0.7319,0.6641,0.5906,0.5324,0.4651,0.3889,0.3271,0.2992,0.293,0.1945,0.1297,0.0988,0.0647,-0.1189,-0.3839,-0.4325,-0.6025,-0.8543,-1.1369,-1.4223,-1.6703,-0.6512,-0.6509,-0.6593,-0.6593,-0.6823,-0.7013,-0.7013,-0.7108,-0.721,-0.721,-0.721,-0.7191,-0.7114,-0.7059,-0.7027,-0.7027,-0.7027,-0.7048,-0.7103,-0.7108,-0.713,-0.7207,-0.721,-0.721,-0.721,-0.721,-0.7237,-0.7343,-0.7343,-0.7343,-0.7346,-0.7385,-0.7062,-0.6455,-0.6489,-0.6196,-0.5677,-0.5677,-0.5319,-0.4655,-0.3414,-0.2297,-0.1232,0.0212,0.1067,0.1463,0.1646,0.1813,0.1904,0.1827,0.1843,0.1908,0.1891,0.1958,0.2008,0.2008,0.213,0.2376,0.2869,0.3146,0.3394,0.3796,0.3889,0.3889,0.3889,0.3889,0.3889,0.3889,0.3889,0.3889,0.3889,0.4501,0.5204,0.5814,0.734,0.8806,0.9819,1.0456,1.094,1.1363,1.091,1.1178,1.2719,1.287,1.287,1.287,1.1963,1.1424,1.1424,1.0061,0.9305,0.9305,0.8909,0.8419,0.7903,0.7227,0.6549,0.5906,0.5232,0.4467,0.3672,0.3208,0.29,0.2652,0.1667,0.1143,0.0957,0.0432,-0.1503,-0.4157,-0.4409,-0.6966,-1.0698,-1.1928,-1.4223,-1.6703]},{"header":{"parameterUnit":"m.s-1","parameterCategory":1,"la1":30.6,"la2":28.766,"lo1":-90.7593,"lo2":-88.6598,"dx":0.0162,"dy":0.0183,"nx":116,"ny":114,"refTime":"2022-12-24T18:00:00:Z","depth":0,"parameterNumber":3,"parameterNumberName":"V-component_of_WINDS"},"data":[0.0,0.0,0.0,0.0,0.0,0.0,0.0,0.0,0.0,0.0,0.0,0.0,0.0,0.0,0.0,0.0,0.0,0.0,0.0,0.0,0.0,0.0,0.0,0.0,0.0,0.0,0.0,0.0,0.0,0.0,0.0,0.0,0.0,0.0,0.0,0.0,0.0,0.0,0.0,0.0,0.0,0.0,0.0,0.0,0.0,0.0,0.0,0.0,0.0,0.0,0.0,0.0,0.0,0.0,0.0,0.0,0.0,0.0,0.0,0.0,0.0,0.0,0.0,0.0,0.0,0.0,0.0,0.0,0.0,0.0,0.0,0.0,0.0,0.0,0.0,0.0,0.0,0.0,0.0,0.0,0.0,0.0,0.0,0.0,0.0,0.0,0.0,0.0,0.0,0.0,0.0,0.0,0.0,0.0,0.0,0.0,0.0,0.0,0.0,0.0,0.0,0.0,0.0,0.0,0.0,0.0,0.0,0.0,0.0,0.0,0.0,0.0,0.0,0.0,0.0,0.0,0.0,0.0,0.0,0.0,0.0,0.0,0.0,0.0,0.0,0.0,0.0,0.0,0.0,0.0,0.0,0.0,0.0,0.0,0.0,0.0,0.0,0.0,0.0,0.0,0.0,0.0,0.0,0.0,0.0,0.0,0.0,0.0,0.0,0.0,0.0,0.0,0.0,0.0,0.0,0.0,0.0,0.0,0.0,0.0,0.0,0.0,0.0,0.0,0.0,0.0,0.0,0.0,0.0,0.0,0.0,0.0,0.0,0.0,0.0,0.0,0.0,0.0,0.0,0.0,0.0,0.0,0.0,0.0,0.0,0.0,0.0,0.0,0.0,0.0,0.0,0.0,0.0,0.0,0.0,0.0,0.0,0.0,0.0,0.0,0.0,0.0,0.0,0.0,0.0,0.0,0.0,0.0,0.0,0.0,0.0,0.0,0.0,0.0,0.0,0.0,0.0,0.0,0.0,0.0,0.0,0.0,0.0,0.0,0.0,0.0,0.0,0.0,0.0,0.0,0.0,0.0,0.0,0.0,0.0,0.0,0.0,0.0,0.0,0.0,0.0,0.0,0.0,0.0,0.0,0.0,0.0,0.0,0.0,0.0,0.0,0.0,0.0,0.0,0.0,0.0,0.0,0.0,0.0,0.0,0.0,0.0,0.0,0.0,0.0,0.0,0.0,0.0,0.0,0.0,0.0,0.0,0.0,0.0,0.0,0.0,0.0,0.0,0.0,0.0,0.0,0.0,0.0,0.0,0.0,0.0,0.0,0.0,0.0,0.0,0.0,0.0,0.0,0.0,0.0,0.0,0.0,0.0,0.0,0.0,0.0,0.0,0.0,0.0,0.0,0.0,0.0,0.0,0.0,0.0,0.0,0.0,0.0,0.0,0.0,0.0,0.0,0.0,0.0,0.0,0.0,0.0,0.0,0.0,0.0,0.0,0.0,0.0,0.0,0.0,0.0,0.0,0.0,0.0,0.0,0.0,0.0,0.0,0.0,0.0,0.0,0.0,0.0,0.0,0.0,0.0,0.0,0.0,0.0,0.0,0.0,0.0,0.0,0.0,0.0,0.0,0.0,0.0,0.0,0.0,0.0,0.0,0.0,0.0,0.0,0.0,0.0,0.0,0.0,0.0,0.0,0.0,0.0,0.0,0.0,0.0,0.0,0.0,0.0,0.0,0.0,0.0,0.0,0.0,0.0,0.0,0.0,0.0,0.0,0.0,0.0,0.0,0.0,0.0,0.0,0.0,0.0,0.0,0.0,0.0,0.0,0.0,0.0,0.0,0.0,0.0,0.0,0.0,0.0,0.0,0.0,0.0,0.0,0.0,0.0,0.0,0.0,0.0,0.0,0.0,0.0,0.0,0.0,0.0,0.0,0.0,0.0,0.0,0.0,0.0,0.0,0.0,0.0,0.0,0.0,0.0,0.0,0.0,0.0,0.0,0.0,0.0,0.0,0.0,0.0,0.0,0.0,0.0,0.0,0.0,0.0,0.0,0.0,0.0,0.0,0.0,0.0,0.0,0.0,0.0,0.0,0.0,0.0,0.0,0.0,0.0,0.0,0.0,0.0,0.0,0.0,0.0,0.0,0.0,0.0,0.0,0.0,0.0,0.0,0.0,0.0,0.0,0.0,0.0,0.0,0.0,0.0,0.0,0.0,0.0,0.0,0.0,0.0,0.0,0.0,0.0,0.0,0.0,0.0,0.0,0.0,0.0,0.0,0.0,0.0,0.0,0.0,0.0,0.0,0.0,0.0,0.0,0.0,0.0,0.0,0.0,0.0,0.0,0.0,0.0,0.0,0.0,0.0,0.0,0.0,0.0,0.0,0.0,0.0,0.0,0.0,0.0,0.0,0.0,0.0,0.0,0.0,0.0,0.0,0.0,0.0,0.0,0.0,0.0,0.0,0.0,0.0,0.0,0.0,0.0,0.0,0.0,0.0,0.0,0.0,0.0,0.0,0.0,0.0,0.0,0.0,0.0,0.0,0.0,0.0,0.0,0.0,0.0,0.0,0.0,0.0,0.0,0.0,0.0,0.0,0.0,0.0,0.0,0.0,0.0,0.0,0.0,0.0,0.0,0.0,0.0,0.0,0.0,0.0,0.0,0.0,0.0,0.0,0.0,0.0,0.0,0.0,0.0,0.0,0.0,0.0,0.0,0.0,0.0,0.0,0.0,0.0,0.0,0.0,0.0,0.0,0.0,0.0,0.0,0.0,0.0,0.0,0.0,0.0,0.0,0.0,0.0,0.0,0.0,0.0,0.0,0.0,0.0,0.0,0.0,0.0,0.0,0.0,0.0,0.0,0.0,0.0,0.0,0.0,0.0,0.0,0.0,0.0,0.0,0.0,0.0,0.0,0.0,0.0,0.0,0.0,0.0,0.0,0.0,0.0,0.0,0.0,0.0,0.0,0.0,0.0,0.0,0.0,0.0,0.0,0.0,0.0,0.0,0.0,0.0,0.0,0.0,0.0,0.0,0.0,0.0,0.0,0.0,0.0,0.0,0.0,0.0,0.0,0.0,0.0,0.0,0.0,0.0,0.0,0.0,0.0,0.0,0.0,0.0,0.0,0.0,0.0,0.0,0.0,0.0,0.0,0.0,0.0,0.0,0.0,0.0,0.0,0.0,0.0,0.0,0.0,0.0,0.0,0.0,0.0,0.0,0.0,0.0,0.0,0.0,0.0,0.0,0.0,0.0,0.0,0.0,0.0,0.0,0.0,0.0,0.0,0.0,0.0,0.0,0.0,0.0,0.0,0.0,0.0,0.0,0.0,0.0,0.0,0.0,0.0,0.0,0.0,0.0,0.0,0.0,0.0,0.0,0.0,0.0,0.0,0.0,0.0,0.0,0.0,0.0,0.0,0.0,0.0,0.0,0.0,0.0,0.0,0.0,0.0,0.0,0.0,0.0,0.0,0.0,0.0,0.0,0.0,0.0,0.0,0.0,0.0,0.0,0.0,0.0,0.0,0.0,0.0,0.0,0.0,0.0,0.0,0.0,0.0,0.0,0.0,0.0,0.0,0.0,0.0,0.0,0.0,0.0,0.0,0.0,0.0,0.0,0.0,0.0,0.0,0.0,0.0,0.0,0.0,0.0,0.0,0.0,0.0,0.0,0.0,0.0,0.0,0.0,0.0,0.0,0.0,0.0,0.0,0.0,0.0,0.0,0.0,0.0,0.0,0.0,0.0,0.0,0.0,0.0,0.0,0.0,0.0,0.0,0.0,0.0,0.0,0.0,0.0,0.0,0.0,0.0,0.0,0.0,0.0,0.0,0.0,0.0,0.0,0.0,0.0,0.0,0.0,0.0,0.0,0.0,0.0,0.0,0.0,0.0,0.0,0.0,0.0,0.0,0.0,0.0,0.0,0.0,0.0,0.0,0.0,0.0,0.0,0.0,0.0,0.0,0.0,0.0,0.0,0.0,0.0,0.0,0.0,0.0,0.0,0.0,0.0,0.0,0.0,0.0,0.0,0.0,0.0,0.0,0.0,0.0,0.0,0.0,0.0,0.0,0.0,0.0,0.0,0.0,0.0,0.0,0.0,0.0,0.0,0.0,0.0,0.0,0.0,0.0,0.0,0.0,0.0,0.0,0.0,0.0,0.0,0.0,0.0,0.0,0.0,0.0,0.0,0.0,0.0,0.0,0.0,0.0,0.0,0.0,0.0,0.0,0.0,0.0,0.0,0.0,0.0,0.0,0.0,0.0,0.0,0.0,0.0,0.0,0.0,0.0,0.0,0.0,0.0,0.0,0.0,0.0,0.0,0.0,0.0,0.0,0.0,0.0,0.0,0.0,0.0,0.0,0.0,0.0,0.0,0.0,0.0,0.0,0.0,0.0,0.0,0.0,0.0,0.0,0.0,0.0,0.0,0.0,0.0,0.0,0.0,0.0,0.0,0.0,0.0,0.0,0.0,0.0,0.0,0.0,0.0,0.0,0.0,0.0,0.0,0.0,0.0,0.0,0.0,0.0,0.0,0.0,0.0,0.0,0.0,0.0,0.0,0.0,0.0,0.0,0.0,0.0,0.0,0.0,0.0,0.0,0.0,0.0,0.0,0.0,0.0,0.0,0.0,0.0,0.0,0.0,0.0,0.0,0.0,0.0,0.0,0.0,0.0,0.0,0.0,0.0,0.0,0.0,0.0,0.0,0.0,0.0,0.0,0.0,0.0,0.0,0.0,0.0,0.0,0.0,0.0,0.0,0.0,0.0,0.0,0.0,0.0,0.0,0.0,0.0,0.0,0.0,0.0,0.0,0.0,0.0,0.0,0.0,0.0,0.0,0.0,0.0,0.0,0.0,0.0,0.0,0.0,0.0,0.0,0.0,0.0,0.0,0.0,0.0,0.0,0.0,0.0,0.0,0.0,0.0,0.0,0.0,0.0,0.0,0.0,0.0,0.0,0.0,0.0,0.0,0.0,0.0,0.0,0.0,0.0,0.0,0.0,0.0,0.0,0.0,0.0,0.0,0.0,0.0,0.0,0.0,0.0,0.0,0.0,0.0,0.0,0.0,0.0,0.0,0.0,0.0,0.0,0.0,0.0,0.0,0.0,0.0,0.0,0.0,0.0,0.0,0.0,0.0,0.0,0.0,0.0,0.0,0.0,0.0,0.0,0.0,0.0,0.0,0.0,0.0,0.0,0.0,0.0,0.0,0.0,0.0,0.0,0.0,0.0,0.0,0.0,0.0,0.0,0.0,0.0,0.0,0.0,0.0,0.0,0.0,0.0,0.0,0.0,0.0,0.0,0.0,0.0,0.0,0.0,0.0,0.0,0.0,0.0,0.0,0.0,0.0,0.0,0.0,0.0,0.0,0.0,0.0,0.0,0.0,0.0,0.0,0.0,0.0,0.0,0.0,0.0,0.0,0.0,0.0,0.0,0.0,0.0,0.0,0.0,0.0,0.0,0.0,0.0,0.0,0.0,0.0,0.0,0.0,0.0,0.0,0.0,0.0,0.0,0.0,0.0,0.0,0.0,0.0,0.0,0.0,0.0,0.0,0.0,0.0,0.0,0.0,0.0,0.0,0.0,0.0,0.0,0.0,0.0,0.0,0.0,0.0,0.0,0.0,0.0,0.0,0.0,0.0,0.0,0.0,0.0,0.0,0.0,0.0,0.0,0.0,0.0,0.0,0.0,0.0,0.0,0.0,0.0,0.0,0.0,0.0,0.0,0.0,0.0,0.0,0.0,0.0,0.0,0.0,0.0,0.0,0.0,0.0,0.0,0.0,0.0,0.0,0.0,0.0,0.0,0.0,0.0,0.0,0.0,0.0,0.0,0.0,0.0,0.0,0.0,0.0,0.0,0.0,0.0,0.0,0.0,0.0,0.0,0.0,0.0,0.0,0.0,0.0,0.0,0.0,0.0,0.0,0.0,0.0,0.0,0.0,0.0,0.0,0.0,0.0,0.0,0.0,0.0,0.0,0.0,0.0,0.0,0.0,0.0,0.0,0.0,0.0,0.0,0.0,0.0,0.0,0.0,0.0,0.0,0.0,0.0,0.0,0.0,0.0,0.0,0.0,0.0,0.0,0.0,0.0,0.0,0.0,0.0,0.0,0.0,0.0,0.0,0.0,0.0,0.0,0.0,0.0,0.0,0.0,3.5557,0.0,0.0,0.0,0.0,0.0,0.0,0.0,0.0,0.0,0.0,0.0,0.0,0.0,0.0,0.0,0.0,0.0,0.0,0.0,0.0,0.0,0.0,0.0,0.0,1.4485,1.5067,1.4604,1.4989,0.0,0.0,0.0,0.0,0.0,0.0,0.0,0.0,0.0,0.0,1.7894,1.8735,2.0683,2.358,2.1778,2.0487,1.9642,0.0,0.0,0.0,0.0,0.0,0.0,0.0,0.0,0.0,0.0,0.0,0.0,0.0,0.0,0.0,0.0,0.0,0.0,0.0,0.0,0.0,0.0,0.0,0.0,0.0,0.0,0.0,0.0,0.0,0.0,0.0,0.0,0.0,0.0,0.0,0.0,0.0,0.0,0.0,0.0,0.0,0.0,0.0,0.0,0.0,0.0,0.0,0.0,0.0,0.0,0.0,0.0,0.0,0.0,0.0,0.0,0.0,0.0,0.0,0.0,0.0,0.0,0.0,0.0,0.0,0.0,0.0,0.0,0.0,0.0,0.0,3.768,0.0,0.0,0.0,0.0,0.0,0.0,0.0,0.0,0.0,0.0,0.0,0.0,0.0,0.0,0.0,0.0,0.0,0.0,0.0,0.0,0.0,1.4502,1.4659,1.6072,1.6966,1.6811,1.6947,1.6966,1.6811,1.5463,0.0,0.0,0.0,0.0,0.0,1.7436,1.8833,1.983,2.2014,2.4236,2.6495,2.753,2.7164,0.0,0.0,0.0,0.0,0.0,0.0,0.0,0.0,0.0,0.0,0.0,0.0,0.0,0.0,0.0,0.0,0.0,0.0,0.0,0.0,0.0,0.0,0.0,0.0,0.0,0.0,0.0,0.0,0.0,0.0,0.0,0.0,0.0,0.0,0.0,0.0,0.0,0.0,0.0,0.0,0.0,0.0,0.0,0.0,0.0,0.0,0.0,0.0,0.0,0.0,0.0,0.0,0.0,0.0,0.0,0.0,0.0,0.0,0.0,0.0,0.0,0.0,0.0,0.0,0.0,4.2075,4.2799,4.3968,4.3512,4.436,4.6038,4.2796,4.1597,4.1835,4.0826,0.0,0.0,0.0,0.0,0.0,0.0,0.0,0.0,0.0,0.0,0.0,0.0,0.0,0.0,0.0,0.0,0.0,0.0,0.0,1.6512,1.7215,1.8179,1.8471,1.7718,1.8335,1.8451,1.7698,1.7438,0.0,0.0,0.0,0.0,1.7461,1.9176,2.0816,2.2336,0.0,2.876,2.9972,3.1602,3.1865,3.0851,2.7647,0.0,0.0,0.0,0.0,0.0,0.0,0.0,0.0,0.0,0.0,0.0,0.0,0.0,0.0,0.0,0.0,0.0,0.0,0.0,0.0,0.0,0.0,0.0,0.0,0.0,0.0,0.0,0.0,0.0,0.0,0.0,0.0,0.0,0.0,0.0,0.0,0.0,0.0,0.0,0.0,0.0,0.0,0.0,2.7055,2.8558,0.0,0.0,0.0,0.0,0.0,0.0,0.0,0.0,0.0,0.0,0.0,0.0,0.0,4.0457,4.1451,4.3186,4.4546,4.5521,4.6342,4.6444,4.5956,4.6601,4.6679,4.6345,4.7281,0.0,4.5477,4.3847,0.0,0.0,0.0,0.0,0.0,0.0,0.0,0.0,0.0,0.0,0.0,0.0,0.0,0.0,0.0,0.0,0.0,0.0,0.0,0.0,0.0,2.0444,2.1275,2.1391,2.2183,2.2125,2.0755,2.025,0.0,0.0,1.8853,1.9203,2.0645,2.1348,2.3224,2.6333,2.9736,3.2102,3.3498,3.4782,3.5454,3.546,3.3508,3.1048,2.8219,2.6126,0.0,0.0,0.0,0.0,0.0,0.0,0.0,0.0,0.0,0.0,0.0,0.0,0.0,0.0,0.0,0.0,0.0,0.0,0.0,0.0,0.0,0.0,0.0,0.0,0.0,0.0,0.0,0.0,0.0,0.0,0.0,0.0,0.0,0.0,0.0,0.0,0.0,0.0,0.0,2.6691,2.8371,3.0125,3.0384,3.107,0.0,0.0,0.0,0.0,0.0,0.0,0.0,0.0,0.0,4.4148,4.4049,4.4837,4.6725,4.7494,4.8297,4.9137,5.0039,5.0527,5.0644,5.1015,5.1268,5.1365,5.1653,5.1609,5.1158,4.8421,4.7361,4.7411,0.0,0.0,0.0,0.0,4.8602,4.872,0.0,0.0,0.0,0.0,0.0,0.0,0.0,0.0,0.0,0.0,0.0,0.0,2.0608,2.2361,2.3754,2.4412,2.5067,2.4978,2.3942,2.2903,2.2344,0.0,2.0895,2.1091,2.3206,2.4193,2.6585,3.048,3.2925,3.4906,3.6412,3.7318,3.7953,3.8309,3.7921,3.5282,3.0981,2.9021,2.7593,0.0,0.0,0.0,0.0,0.0,0.0,0.0,0.0,0.0,0.0,0.0,0.0,0.0,0.0,0.0,0.0,0.0,0.0,0.0,0.0,0.0,0.0,0.0,0.0,0.0,0.0,0.0,0.0,0.0,0.0,0.0,0.0,0.0,0.0,0.0,0.0,0.0,0.0,2.9448,3.0836,3.2357,3.3062,3.3944,0.0,0.0,0.0,0.0,0.0,0.0,4.4844,4.4336,4.5675,4.9345,4.8428,4.8921,5.1152,5.1387,5.1914,5.2734,5.3613,5.4258,5.4668,5.49,5.523,5.5619,5.516,5.5349,5.5699,5.2439,5.1342,5.1668,5.1022,5.116,5.1765,5.198,5.2214,5.2526,0.0,0.0,0.0,0.0,0.0,0.0,0.0,0.0,0.0,0.0,0.0,2.1533,2.1449,2.3623,2.5127,2.5236,2.5226,2.5575,2.6446,2.4987,2.406,2.406,2.3267,2.3245,2.4208,2.8038,3.1391,3.423,3.5836,3.719,3.8281,3.9095,3.9097,3.8421,3.9215,3.8043,3.532,3.2801,3.0753,2.8992,0.0,0.0,0.0,0.0,0.0,0.0,0.0,0.0,0.0,0.0,0.0,0.0,0.0,0.0,0.0,0.0,0.0,0.0,0.0,0.0,0.0,0.0,0.0,0.0,0.0,0.0,0.0,0.0,0.0,0.0,0.0,0.0,0.0,0.0,0.0,0.0,0.0,0.0,0.0,3.687,3.7009,0.0,0.0,0.0,0.0,4.4531,4.623,4.7617,4.8574,4.8593,4.9394,5.1211,5.1992,5.2832,5.3808,5.4629,5.5488,5.6348,5.7226,5.7225,5.6502,5.7337,5.7272,5.6563,5.7303,5.763,5.7466,5.487,5.3347,5.2625,5.2586,5.2606,5.2723,5.3561,5.4381,5.5221,0.0,0.0,0.0,1.5407,1.5364,1.5618,1.6478,1.7039,1.7975,1.9642,2.0826,2.2105,2.3719,2.5203,2.6716,2.8262,2.8952,2.9187,2.8855,2.839,2.7896,2.7376,2.6547,2.6963,2.8835,3.1561,3.4247,3.6826,3.8017,3.9065,3.9946,4.0282,4.0289,4.0027,4.0335,3.9679,3.8179,3.6137,3.4293,3.2566,3.0534,2.8566,0.0,0.0,0.0,0.0,0.0,0.0,0.0,0.0,0.0,0.0,0.0,0.0,0.0,0.0,0.0,0.0,0.0,0.0,0.0,0.0,0.0,0.0,0.0,0.0,0.0,0.0,0.0,0.0,0.0,0.0,0.0,0.0,0.0,0.0,0.0,0.0,0.0,3.8865,4.0429,0.0,0.0,4.4414,4.5625,4.7383,4.8613,5.0371,5.2871,5.1953,5.2891,5.6308,5.5625,5.5898,5.7323,5.8163,5.8748,5.9058,5.9936,6.0189,5.9896,6.0202,6.0177,5.9862,5.9581,5.9479,5.9358,5.7893,5.7426,5.7661,5.7661,5.7992,5.846,5.8207,5.8324,5.8558,0.0,0.0,0.0,1.5363,1.5328,1.568,1.68,1.7663,1.8902,2.0855,2.2285,2.3624,2.4991,2.6914,2.8766,3.0375,3.1342,3.1857,3.1794,3.0802,3.011,2.9841,2.9634,3.0589,3.2842,3.4772,3.6699,3.8603,3.9565,4.0311,4.0836,4.0871,4.0898,4.09,4.0898,4.0597,4.0031,3.8868,3.7242,3.5314,3.3868,3.1936,2.9706,0.0,0.0,0.0,0.0,0.0,0.0,0.0,0.0,0.0,0.0,0.0,0.0,0.0,0.0,0.0,0.0,0.0,0.0,0.0,0.0,0.0,0.0,0.0,0.0,0.0,0.0,0.0,0.0,0.0,0.0,0.0,0.0,0.0,0.0,0.0,3.972,4.0587,4.296,4.4762,4.5348,4.7265,4.8828,4.9687,5.1367,5.3359,5.5625,5.5195,5.6347,5.9511,5.8769,5.9022,6.0464,6.1011,6.142,6.1711,6.2293,6.2585,6.2587,6.2577,6.2571,6.2552,6.1978,6.1721,6.1682,6.1408,6.1622,6.2013,6.0549,6.049,6.1192,6.0607,6.0588,6.0764,0.0,0.0,1.5388,1.5306,1.5295,1.5835,1.7441,1.8449,1.9896,2.2367,2.4861,2.6065,2.5187,2.8662,3.1149,3.1352,3.2068,3.3318,3.5197,3.2179,3.0665,0.0,0.0,0.0,3.5824,3.7544,3.8811,3.9583,4.0461,4.0881,4.0881,4.0881,4.0881,4.0881,4.0903,4.0903,4.0903,4.0907,3.9489,3.7139,3.6263,3.4918,3.3138,0.0,0.0,0.0,0.0,0.0,0.0,0.0,0.0,0.0,0.0,0.0,0.0,0.0,0.0,0.0,0.0,0.0,0.0,0.0,0.0,0.0,0.0,0.0,0.0,0.0,0.0,0.0,0.0,0.0,0.0,0.0,0.0,0.0,3.8702,4.0065,4.1456,4.2236,4.4651,4.6281,4.6322,5.0192,5.2363,5.1582,5.4707,5.666,5.6719,5.8301,5.9589,6.0407,6.1266,6.2123,6.2996,6.3055,6.3508,6.4332,6.4341,6.4357,6.4384,6.4328,6.4317,6.4337,6.4317,6.4317,6.4415,6.5253,6.5604,6.5214,6.0997,5.9866,6.0607,6.0568,6.1076,6.1777,1.5391,1.5403,1.5387,1.5318,1.5253,1.5784,1.7456,1.8406,1.9818,2.2296,2.3752,2.5123,2.6652,2.889,3.1008,3.274,3.4235,3.5261,3.5713,3.5462,3.5443,0.0,0.0,0.0,3.7091,3.8295,3.9064,3.939,4.0269,4.0678,4.0678,4.0678,4.0678,4.0681,4.0787,4.0834,4.084,4.0883,4.0499,3.9781,3.8963,3.7594,3.5906,0.0,0.0,0.0,0.0,0.0,0.0,0.0,0.0,0.0,0.0,0.0,0.0,0.0,0.0,0.0,0.0,0.0,0.0,0.0,0.0,0.0,0.0,0.0,0.0,0.0,0.0,0.0,0.0,0.0,0.0,0.0,0.0,3.9878,4.0194,4.2858,4.4846,4.5072,4.6818,4.83,4.902,5.1289,5.3125,5.4159,5.6289,5.8066,5.9296,5.9257,5.9862,6.1306,6.1577,6.2118,6.2989,6.4244,6.5004,6.5248,6.523,6.5542,6.6064,6.4848,6.4649,6.5214,6.4571,6.4669,6.5253,6.5507,6.5936,6.6347,6.5155,6.4825,6.4961,6.4394,6.3926,6.3595,1.5391,1.5379,1.5353,1.5315,1.552,1.6133,1.7467,1.8952,2.085,2.3351,2.4665,2.6183,2.8352,3.001,3.1664,3.3431,3.5078,3.6007,3.5942,3.6422,0.0,0.0,0.0,3.7882,3.8675,3.8987,3.9358,3.9751,4.0326,4.0591,4.0591,4.0591,4.0591,4.0595,4.0675,4.072,4.0723,4.0761,4.0765,4.0749,4.0335,3.9362,3.8054,3.6826,3.53,3.3634,3.1954,3.1019,3.047,2.957,0.0,0.0,0.0,0.0,0.0,0.0,0.0,0.0,0.0,0.0,0.0,0.0,0.0,0.0,0.0,0.0,0.0,0.0,0.0,0.0,0.0,0.0,0.0,0.0,4.1923,4.3234,4.3979,4.5256,4.6388,4.7072,4.9013,5.0534,5.1149,5.3437,5.5292,5.6304,5.7985,5.9372,6.0347,6.0659,6.1244,6.2219,6.2605,6.3028,6.3545,6.4551,6.5233,6.5593,6.5599,6.6028,6.6764,6.5784,6.582,0.0,6.6504,6.6932,6.7752,6.8122,6.8337,0.0,0.0,0.0,0.0,0.0,6.5273,6.4844,1.539,1.5353,1.5308,1.5299,1.5912,1.6666,1.7475,1.9687,2.2169,2.4711,2.6327,2.7963,2.99,3.1437,3.2723,3.3742,3.5186,3.6098,3.6244,3.6203,0.0,3.7469,3.7593,3.8337,3.9837,3.9575,3.9738,4.0372,4.0685,4.0803,4.0706,4.0706,4.0648,4.0571,4.0566,4.0574,4.0574,4.0588,4.0591,4.0602,4.0729,4.0389,3.965,3.8009,3.6415,3.4811,3.3226,3.2619,3.2405,3.164,0.0,0.0,0.0,0.0,0.0,0.0,0.0,0.0,0.0,0.0,0.0,0.0,0.0,0.0,0.0,0.0,0.0,0.0,0.0,0.0,0.0,0.0,0.0,0.0,4.6004,4.7906,4.8678,4.7681,4.74,4.8795,5.1135,5.2714,5.2877,5.5995,5.8027,5.8024,5.9586,6.0543,6.0543,0.0,0.0,0.0,0.0,6.4157,6.4142,6.4348,6.482,6.5601,6.56,6.601,6.679,6.6704,6.7146,6.8005,6.8864,6.9742,7.0619,7.1499,7.146,7.06,6.8083,6.7089,6.7011,6.6288,6.6034,6.6014,1.5409,1.5349,1.5305,1.5305,1.5902,1.6666,1.7475,1.9164,2.1261,2.3823,2.5018,2.681,2.9843,3.1495,3.2996,3.4529,3.6029,3.7148,3.7804,0.0,3.7911,3.8125,3.879,3.8733,3.7804,3.9768,4.0603,4.0163,4.1648,4.2001,4.1335,4.1335,4.099,4.0359,4.0412,4.0442,4.045,4.0552,4.0591,4.0595,4.0635,4.0623,4.0483,3.9541,3.8566,3.7531,3.6507,3.5713,3.5144,3.4973,3.4016,3.2851,3.2671,0.0,0.0,0.0,0.0,0.0,0.0,0.0,0.0,0.0,0.0,0.0,0.0,0.0,0.0,0.0,0.0,0.0,0.0,0.0,0.0,4.6317,4.7621,4.8894,5.0396,5.1535,5.2097,5.1752,5.2804,5.3848,5.4615,5.7174,5.8781,5.8794,6.0389,6.1365,6.1374,6.1688,6.1879,6.1875,6.2714,6.3196,6.3244,6.4641,6.5423,6.5608,0.0,0.0,6.6779,6.6133,6.6288,6.7109,6.7966,6.8845,6.9723,7.0582,7.1265,7.1558,6.9646,6.8904,6.8885,6.8727,6.8669,6.8552,1.5409,1.5348,1.5307,1.5292,1.6269,1.7164,1.7541,1.9381,2.1512,2.3629,2.4669,2.6304,2.9185,3.0513,3.1708,3.2937,3.4807,3.637,0.0,3.8014,3.8488,3.8926,3.9011,3.8862,3.8467,3.9461,4.0223,4.0706,4.1675,4.1939,4.15,4.15,4.1074,4.0306,4.0345,4.0357,4.0342,4.0415,4.0444,4.0452,4.0519,4.0575,4.0486,3.9376,3.8685,3.8134,3.6929,3.6516,3.6484,3.6092,3.5676,3.5351,3.5314,3.412,3.2443,0.0,0.0,0.0,0.0,0.0,0.0,0.0,0.0,0.0,0.0,0.0,0.0,0.0,0.0,3.9411,0.0,0.0,4.5762,4.8299,4.9774,5.1183,5.2817,5.4188,5.4523,5.3247,5.4638,5.6074,5.7015,5.8656,5.9817,6.0224,6.1059,6.1547,6.1554,6.1555,6.1548,6.1548,6.1962,6.2027,6.164,6.2908,6.3572,6.3613,6.4452,6.5309,6.6141,6.6182,6.6425,6.6874,6.8181,6.9001,6.9471,7.0348,7.0951,7.1226,6.9918,6.9939,7.064,7.0211,7.0055,6.9938,1.5409,1.5351,1.5315,1.5299,1.6635,1.7679,1.7604,1.9615,2.1746,2.3438,2.4418,2.5871,2.8315,2.9288,3.014,3.1033,3.3317,0.0,0.0,3.7647,3.8601,3.9326,3.8957,3.8963,3.9454,3.9349,3.9955,4.1302,4.1599,4.1672,4.15,4.15,4.1074,4.0306,4.0306,4.031,4.0301,4.0301,4.0305,4.0328,4.0447,4.0445,4.026,3.892,3.8421,3.8268,3.6873,3.6737,3.7107,3.6454,3.6714,3.7284,3.7233,3.6401,3.5263,3.4325,3.3439,0.0,0.0,0.0,0.0,0.0,0.0,0.0,0.0,0.0,3.5815,3.9078,3.9745,4.0976,4.4936,4.584,4.7031,5.0218,5.2205,5.3797,5.5079,5.6275,5.6451,5.4875,5.656,5.821,5.9137,6.0008,6.0788,6.1431,6.1472,6.1472,6.1472,6.1316,6.1225,6.1257,6.1083,6.0698,6.0045,6.1037,6.1544,6.1628,6.3127,6.4232,6.4999,6.5712,6.6126,6.6399,6.8323,6.9235,6.9451,7.0152,7.0444,7.0387,6.9664,7.0251,7.1402,7.0718,7.0444,7.0328,1.5409,1.5399,1.5373,1.5309,1.6626,1.7675,1.7609,1.9107,2.086,2.2524,2.3496,2.5002,2.7555,2.8491,2.9453,3.0729,3.3209,0.0,3.5694,3.7335,3.8332,3.845,3.9164,3.9265,3.8643,4.0203,4.1116,4.1302,4.2209,4.2259,4.15,4.15,4.1074,4.0306,4.0306,4.0291,4.0298,4.0298,4.0339,4.0394,4.0415,4.04,4.0313,3.9488,3.926,3.9241,3.8348,3.7673,3.7198,3.7107,3.7163,3.7297,3.7285,3.7694,3.7981,3.7045,0.0,3.5058,3.3151,3.2815,0.0,3.5017,3.5967,3.7342,0.0,0.0,4.0991,4.365,4.4236,4.5109,4.7851,4.9,5.0368,5.2962,5.4842,5.6012,5.6145,5.8189,5.9322,5.8341,5.8549,5.9099,5.9975,6.0803,6.1301,6.1405,6.1405,6.1405,6.1405,6.067,6.028,6.0335,5.9583,5.9171,5.9148,6.0766,6.1586,6.1609,6.2508,6.2998,6.3119,6.326,6.3769,6.4627,6.7144,6.8688,6.9412,6.951,6.9547,6.9547,6.9431,6.9529,6.9685,6.9586,6.9547,6.9411,1.5409,1.54,1.5377,1.5319,1.6623,1.7692,1.7656,1.9058,2.0535,2.1746,2.2224,2.3201,2.5205,2.6509,2.7786,2.9167,3.1678,3.3449,3.4046,3.6795,3.8412,3.8412,3.9385,3.9786,3.9445,4.0284,4.0954,4.1417,4.1838,4.1863,4.15,4.1543,4.1117,4.0294,4.0294,4.0304,4.0307,4.0307,4.0316,4.0357,4.0432,4.0432,4.0362,4.0104,4.0054,3.9926,3.8201,3.7458,0.0,0.0,3.7287,3.7472,3.8457,3.8671,3.8412,3.748,3.6913,0.0,3.5683,0.0,0.0,0.0,3.8457,3.9355,4.1832,4.2125,4.2589,4.5125,4.5707,4.6696,4.9742,5.0609,5.1529,0.0,5.5313,5.6601,5.7006,5.8889,6.0241,6.0358,5.995,5.9788,6.0107,5.9996,6.0095,6.0604,6.0642,6.0429,5.9901,5.9535,5.8901,5.797,5.7584,5.7161,5.6682,5.7858,5.8481,5.8537,5.9886,6.1059,6.2065,6.2592,6.3329,6.417,6.4804,6.5578,6.6416,6.6963,6.7185,6.7244,6.7694,6.7889,6.8007,6.9022,6.9392,6.9353,1.5409,1.5403,1.5444,1.5623,1.6802,1.7714,1.7675,1.9045,2.0325,2.0962,2.1251,2.1911,2.3263,2.4819,2.6124,2.7051,2.9791,3.182,3.2646,3.5662,3.7738,3.841,3.9155,3.9643,3.987,4.0082,4.0477,4.1054,4.1122,4.1175,4.1175,4.1236,4.0933,4.0325,4.0325,4.0334,4.0366,4.0366,4.0355,4.0354,4.0459,4.0463,4.0438,4.0488,4.0398,4.004,3.8367,3.7848,0.0,0.0,3.7666,3.7866,3.9082,3.9062,3.8452,3.7738,3.7485,3.7499,3.7754,0.0,0.0,4.0,4.0877,4.1636,4.3139,4.3489,4.4128,4.6441,4.6778,4.7564,5.0495,5.1436,5.2141,5.3357,5.5219,5.6675,5.7209,5.8597,5.9896,6.0711,6.0016,5.9462,5.9413,5.9254,5.9516,6.039,6.0001,5.9477,5.8833,5.8133,5.7204,5.5981,5.5712,5.5284,5.464,5.5469,5.5896,5.5964,5.7717,5.9204,6.0453,6.1581,6.2574,6.3386,6.3039,6.3377,6.4237,6.4932,6.5212,6.527,6.5857,6.6072,6.6229,6.7488,6.8247,6.8689,1.5391,1.5409,1.5652,1.6413,1.7249,1.775,1.7614,1.9018,2.0112,2.0131,2.0886,2.1672,2.2379,2.3923,2.4798,2.4457,2.7765,3.0462,3.184,3.3682,3.5786,3.8201,3.8209,3.8533,3.9312,3.9711,3.9914,3.9951,4.021,4.0345,4.0345,4.0404,4.0422,4.0407,4.0407,4.0432,4.0497,4.0497,4.0487,4.0489,4.0492,4.0492,4.0492,4.0496,4.0053,3.9438,3.9432,0.0,0.0,0.0,3.8568,3.8572,3.8629,3.8612,3.8573,3.8409,3.8312,3.8466,0.0,0.0,4.1164,4.2088,4.3591,4.5082,4.5981,4.6171,4.6652,4.8369,4.8095,4.8094,4.981,5.1511,5.2657,5.2645,5.4806,5.6489,5.6444,5.7215,5.8108,5.897,5.8245,5.7684,0.0,5.9125,6.0429,6.1299,5.9784,5.8833,5.8794,5.6463,5.5084,5.5045,5.4216,5.3769,5.373,5.4601,5.5045,5.5064,5.6803,5.7664,5.7787,5.9494,6.0794,6.1726,6.2472,6.3292,6.4112,6.4197,6.4238,6.4238,6.4277,6.4277,6.4277,6.4261,6.5362,6.6875,1.7128,1.7082,1.7139,1.7417,1.8093,1.8582,1.8549,1.9458,2.0178,2.0178,2.0898,0.0,0.0,0.0,0.0,0.0,2.6077,2.8057,3.0166,3.2547,3.4232,3.509,3.7129,3.8132,3.7917,3.904,3.9682,3.9768,3.995,4.0066,4.011,4.0342,4.0477,4.0477,4.0477,4.0485,4.0502,4.0502,4.0495,4.0491,4.0504,4.0189,3.9765,4.0304,3.9661,3.8472,0.0,0.0,0.0,0.0,0.0,3.8707,3.9276,3.9062,3.8476,3.7808,3.8419,3.9357,0.0,0.0,4.2304,4.3766,4.5006,4.5934,4.6227,4.675,4.7314,4.7899,4.7334,4.7432,4.9675,5.0574,5.1327,5.2411,5.4357,5.5873,5.6334,5.7191,5.8091,5.8964,5.8287,0.0,0.0,0.0,0.0,5.7981,5.7476,5.6641,5.5479,5.4605,5.3361,5.1671,5.1322,5.0894,5.0312,5.06,5.1047,5.1633,5.3925,5.5615,5.6783,5.7941,5.8938,5.9754,6.0079,6.0377,6.0694,6.1341,6.161,6.1727,6.284,6.3269,6.3346,6.3898,6.4465,6.4941,1.8007,1.7961,1.8019,1.8271,1.872,0.0,0.0,0.0,0.0,0.0,0.0,0.0,0.0,0.0,0.0,0.0,0.0,2.6216,2.8127,3.0452,3.2114,3.2967,3.4904,3.6006,3.6062,3.7128,3.7712,3.7818,3.8299,3.8703,3.9048,3.9571,4.0033,4.0396,4.0396,4.043,4.0511,4.0511,4.0511,4.0453,3.9846,3.93,3.8838,3.8742,3.7841,0.0,0.0,0.0,0.0,0.0,3.8116,3.822,3.8789,3.8359,3.7751,3.8401,3.9171,4.0066,0.0,4.2458,4.375,4.5484,4.6357,4.6859,4.7169,4.7419,4.7688,4.7978,4.7354,4.7354,4.9285,4.9889,5.045,5.1528,5.2672,5.3823,5.4913,5.557,5.6355,5.7521,5.7381,0.0,0.0,0.0,0.0,5.6711,5.5918,5.4917,5.3753,5.284,5.1597,4.9945,4.9593,4.9165,4.8599,4.8599,4.9182,5.0389,5.2021,5.3711,5.5382,5.5945,5.6838,5.7907,5.794,5.8305,5.8917,5.9544,5.9808,5.9905,6.0998,6.1408,6.1463,6.2019,6.2184,6.2332,1.8124,1.8123,1.8346,0.0,0.0,0.0,0.0,0.0,0.0,0.0,0.0,0.0,0.0,0.0,0.0,0.0,0.0,0.0,2.5872,0.0,0.0,3.1745,3.1771,3.2381,3.3794,3.4146,3.4341,3.439,3.549,3.6417,3.7182,3.8021,3.8955,3.9937,3.9937,4.0059,4.0235,4.0242,4.0242,4.0081,3.8507,3.7815,3.7565,3.6023,3.4847,3.4138,0.0,0.0,0.0,0.0,3.7151,3.7304,3.7381,3.6875,3.6867,4.014,4.0607,4.0764,4.4024,4.5015,4.5527,4.7187,4.7636,4.7868,4.8606,4.8131,4.7734,4.8469,4.7939,4.7588,0.0,0.0,4.9871,4.9968,5.0046,5.069,5.2388,5.2552,5.3104,0.0,0.0,0.0,0.0,0.0,0.0,5.712,0.0,5.3658,5.3488,5.1193,4.9834,4.9762,4.8943,4.8519,4.8463,4.8463,4.9318,5.1005,5.1044,5.194,5.3575,5.3614,5.4566,5.6178,5.6178,5.7068,5.8555,5.8661,5.8704,5.8704,5.8802,5.8821,5.8829,5.8807,5.8794,5.9264,0.0,0.0,0.0,0.0,0.0,0.0,0.0,0.0,0.0,0.0,0.0,0.0,0.0,0.0,0.0,0.0,0.0,0.0,2.505,0.0,0.0,0.0,0.0,0.0,0.0,0.0,0.0,3.4257,3.4686,3.5047,3.5294,3.5675,3.6062,3.6461,3.6461,3.6509,3.6561,3.6714,3.668,3.6523,3.6253,3.5369,3.4218,3.4452,3.3218,3.1573,0.0,0.0,0.0,0.0,0.0,3.7372,3.862,3.9741,4.0661,4.1005,4.2298,4.3803,4.4726,4.5937,4.703,4.7499,4.8081,4.8289,4.7213,4.6797,4.6519,4.6054,4.4766,4.4183,0.0,0.0,0.0,4.8026,4.9289,0.0,5.1436,5.2113,0.0,0.0,0.0,5.3025,5.2429,5.2152,0.0,0.0,5.2583,5.1966,5.0639,4.9954,4.9045,4.785,4.7601,4.7229,4.6679,4.666,4.7201,4.8305,4.8949,5.0173,5.1863,5.2465,5.3323,5.4352,5.4352,5.4605,5.5054,5.5729,5.5997,5.6113,5.7416,5.7925,5.7996,5.8597,5.8794,5.8936,0.0,0.0,0.0,0.0,0.0,0.0,0.0,0.0,0.0,0.0,0.0,0.0,0.0,0.0,0.0,0.0,0.0,0.0,0.0,0.0,0.0,0.0,0.0,0.0,0.0,0.0,0.0,0.0,0.0,0.0,3.2336,3.2799,3.3365,3.397,3.3914,3.4007,3.4188,3.4248,3.4244,0.0,0.0,3.2673,3.1775,3.154,3.0557,2.944,0.0,0.0,0.0,0.0,0.0,3.7861,3.9172,4.0315,4.129,4.1982,0.0,4.5111,4.5918,4.7129,4.8163,4.8163,4.8258,4.796,4.6613,4.5711,4.5023,4.4538,4.3348,0.0,0.0,0.0,0.0,0.0,0.0,0.0,4.9886,5.0415,5.0761,0.0,5.1393,0.0,5.0966,5.0572,5.0325,0.0,5.0751,5.0612,4.9604,4.8824,4.7975,4.7039,4.6675,4.6322,4.596,4.598,4.6446,4.7315,4.8172,4.9318,5.0658,5.1494,5.2329,5.3128,0.0,5.3342,5.373,5.4235,5.4427,5.4524,5.5518,5.589,5.5984,5.6816,5.7123,5.7182,0.0,0.0,0.0,0.0,0.0,0.0,0.0,0.0,0.0,0.0,2.0484,0.0,0.0,0.0,0.0,0.0,0.0,0.0,0.0,0.0,0.0,0.0,0.0,0.0,0.0,0.0,0.0,0.0,0.0,0.0,2.9116,2.9779,3.0678,3.1704,3.1581,3.1767,3.2144,3.2057,3.2077,3.2058,3.0645,3.0,2.9734,0.0,0.0,0.0,0.0,0.0,0.0,0.0,3.7487,3.8488,3.956,4.007,4.0753,4.3207,4.4577,4.5701,4.7461,4.8496,4.9043,4.8926,4.8339,4.7459,4.6229,4.4781,4.3626,4.3392,0.0,4.2337,4.3217,0.0,4.3753,4.5486,0.0,4.5622,4.7985,4.8317,4.8531,4.9162,4.9812,5.0149,5.0034,4.9341,4.8875,4.8803,4.891,4.9044,4.919,4.7669,4.6765,4.6721,4.6043,4.5765,4.5896,4.5963,4.6374,4.714,4.8133,4.901,4.9768,5.0745,5.1583,5.2244,5.2252,0.0,5.3385,5.3502,5.3557,5.3548,5.3665,5.372,5.3789,5.4543,5.4757,5.4757,0.0,0.0,0.0,0.0,0.0,0.0,0.0,0.0,0.0,0.0,2.2561,2.1204,0.0,0.0,0.0,0.0,0.0,0.0,0.0,0.0,0.0,0.0,0.0,0.0,0.0,0.0,0.0,0.0,0.0,0.0,2.7496,2.7531,2.7732,2.8104,2.8078,2.8102,2.8208,2.8398,2.8429,2.8359,2.8332,2.7909,2.7233,0.0,0.0,0.0,0.0,0.0,0.0,0.0,3.6946,3.8594,4.0804,4.2054,4.307,4.5001,4.626,4.7388,4.9255,4.9863,4.9805,4.9082,4.8788,4.7889,4.4842,4.3922,0.0,0.0,4.0896,4.0603,4.1464,4.1032,0.0,4.2731,0.0,0.0,0.0,0.0,4.8075,0.0,0.0,0.0,0.0,0.0,0.0,0.0,0.0,4.5796,4.7045,4.6205,4.5702,4.5747,4.5709,4.5765,4.5896,4.5916,4.6023,4.6232,4.7842,4.8677,4.8874,5.0475,5.1273,5.1412,5.1475,0.0,5.1763,5.2483,5.2753,5.2771,5.3508,5.3752,5.3711,5.3866,5.3478,5.2873,0.0,0.0,0.0,0.0,0.0,0.0,0.0,2.3481,2.4558,2.7558,2.6856,2.5379,2.352,2.2546,2.1666,0.0,0.0,0.0,0.0,0.0,0.0,0.0,0.0,0.0,0.0,0.0,0.0,0.0,0.0,0.0,2.4556,2.4406,2.4476,2.4692,2.4556,2.4603,2.4805,2.4873,2.4901,2.4917,2.5156,2.5277,0.0,0.0,0.0,0.0,0.0,0.0,0.0,0.0,3.6466,3.8638,4.117,4.263,4.3758,4.5535,4.7067,4.8478,4.9823,5.0508,5.0508,4.9219,4.8554,4.742,4.4394,0.0,0.0,0.0,3.9804,3.9355,3.9766,0.0,0.0,0.0,0.0,0.0,0.0,0.0,0.0,0.0,0.0,0.0,0.0,0.0,0.0,0.0,0.0,4.3696,4.5328,4.4963,4.4714,4.4724,4.5296,4.5635,4.5696,4.5823,4.5922,4.5971,4.7797,4.8647,4.8708,5.0468,5.1248,5.125,5.129,0.0,5.1339,5.1747,5.189,5.1929,5.2336,5.2461,5.2455,5.2903,5.2514,5.1785,0.0,0.0,0.0,0.0,0.0,0.0,0.0,2.5741,2.7154,3.0756,3.0863,2.9541,2.6787,2.4811,2.3106,0.0,0.0,0.0,0.0,0.0,0.0,0.0,0.0,0.0,0.0,0.0,0.0,0.0,0.0,0.0,0.0,0.0,0.0,0.0,2.2183,2.2265,2.2547,2.2487,2.2503,0.0,0.0,2.3328,0.0,0.0,0.0,0.0,0.0,0.0,0.0,0.0,3.5929,3.8137,4.0703,4.2413,4.3787,4.5357,4.714,4.8827,4.9902,5.0527,5.0547,4.9238,4.8242,4.6874,4.4062,4.2363,0.0,3.9629,3.8652,3.8047,3.8047,0.0,0.0,0.0,0.0,0.0,0.0,0.0,0.0,0.0,0.0,0.0,0.0,0.0,0.0,0.0,0.0,0.0,4.3661,4.3781,4.3799,4.3744,4.4676,4.5198,4.5211,4.5627,4.5833,4.5876,4.7772,4.8672,4.8732,5.0509,5.1312,5.1314,5.1321,0.0,0.0,5.1325,5.1321,5.1292,5.1119,5.0994,5.1008,5.1468,5.1098,5.0333,0.0,0.0,0.0,0.0,0.0,0.0,0.0,2.7198,2.9218,3.3317,3.2524,3.1425,3.105,2.8744,2.5957,0.0,0.0,0.0,0.0,0.0,0.0,0.0,0.0,0.0,0.0,0.0,0.0,0.0,0.0,0.0,0.0,0.0,0.0,0.0,0.0,2.2376,2.2439,2.2538,0.0,0.0,0.0,0.0,0.0,0.0,0.0,0.0,0.0,0.0,0.0,0.0,0.0,3.6482,3.9086,4.1516,4.3617,4.4613,0.0,4.7992,4.9726,4.9687,4.9082,4.8945,4.8242,4.6719,4.3301,0.0,4.1387,3.8184,3.6855,3.623,3.623,3.5585,0.0,0.0,0.0,0.0,0.0,0.0,0.0,0.0,0.0,0.0,0.0,0.0,0.0,0.0,0.0,0.0,4.1886,4.2555,4.2924,4.2908,4.3702,4.4197,4.4323,4.5186,4.5664,4.5741,4.7671,4.8619,4.8663,5.0546,5.139,5.1391,5.1397,0.0,0.0,5.1388,5.1394,5.1312,5.0514,5.016,5.0016,4.9163,4.8313,4.7545,0.0,0.0,0.0,0.0,0.0,0.0,2.8274,2.8857,3.0481,3.5206,3.521,3.4165,3.2564,3.142,2.8782,2.3807,0.0,0.0,0.0,0.0,0.0,0.0,0.0,0.0,0.0,0.0,0.0,2.2726,2.2917,0.0,0.0,0.0,0.0,0.0,0.0,2.1721,2.1765,2.1296,0.0,0.0,0.0,0.0,0.0,0.0,0.0,0.0,0.0,0.0,0.0,0.0,0.0,0.0,3.6291,3.8711,4.1662,4.4134,4.5394,4.6501,4.8789,4.916,4.8769,4.8242,4.668,4.4746,4.2832,0.0,3.9389,3.7011,3.6208,3.5639,3.4629,3.457,3.4899,0.0,0.0,0.0,0.0,0.0,0.0,0.0,0.0,0.0,0.0,0.0,0.0,0.0,0.0,0.0,4.0961,4.1719,4.234,4.2785,4.3114,4.3813,4.4906,4.4845,4.5359,4.644,4.7896,4.8876,4.9423,5.0776,5.14,5.1401,5.139,0.0,0.0,5.1394,5.1409,5.1302,5.0444,5.0033,4.9837,4.8891,4.7938,4.7063,0.0,0.0,0.0,0.0,0.0,2.4533,2.9096,2.9763,3.1192,3.5245,3.5982,3.5314,3.3156,3.2196,2.9915,2.5444,2.3628,0.0,0.0,0.0,0.0,0.0,0.0,0.0,0.0,0.0,2.2564,2.3182,2.3084,2.303,0.0,0.0,0.0,2.2623,0.0,0.0,0.0,0.0,0.0,0.0,0.0,0.0,0.0,0.0,0.0,0.0,0.0,0.0,0.0,0.0,0.0,0.0,3.4447,3.6244,3.8837,4.2076,4.3785,4.5078,4.7187,4.793,4.8047,4.7695,4.5624,4.3455,4.2596,4.0163,3.761,3.5928,3.5143,3.4417,3.3239,3.373,3.4374,3.4595,0.0,3.7285,0.0,0.0,0.0,0.0,0.0,0.0,0.0,0.0,0.0,0.0,0.0,0.0,4.0507,4.1038,4.1672,4.2412,4.2699,4.3522,4.5001,4.477,4.5274,4.6501,4.7611,4.8484,4.9136,5.0149,5.0602,5.0632,5.0601,0.0,0.0,5.06,5.0458,5.0167,4.954,4.9062,4.8665,4.798,4.7256,4.6588,0.0,0.0,0.0,0.0,0.0,0.0,2.7595,2.9643,3.135,3.2922,3.3948,3.413,3.3103,3.0685,2.8777,2.7831,2.472,0.0,0.0,0.0,0.0,0.0,0.0,0.0,0.0,0.0,2.4072,2.4091,2.4088,2.4088,2.4069,2.3199,2.2795,2.2795,0.0,0.0,0.0,0.0,0.0,0.0,0.0,0.0,0.0,0.0,0.0,0.0,0.0,0.0,0.0,0.0,0.0,0.0,0.0,3.4619,3.5178,3.787,4.1055,4.3906,4.4805,4.5664,4.6523,4.7383,4.5581,4.3399,4.2578,3.9666,3.6648,3.4965,3.3299,3.2129,3.211,3.2828,3.3691,3.4551,3.5323,0.0,0.0,0.0,0.0,0.0,0.0,0.0,0.0,0.0,0.0,0.0,0.0,0.0,4.0496,4.0507,4.0844,4.1585,4.2444,4.3287,4.4111,4.5026,4.5504,4.5523,4.6592,4.7169,4.725,4.8271,4.8752,0.0,0.0,0.0,0.0,4.8764,4.8213,4.7437,4.7429,4.6856,4.6021,4.5808,4.5684,4.5599,0.0,0.0,0.0,0.0,0.0,0.0,0.0,2.8191,2.8998,3.1177,3.1724,3.1769,3.1402,3.0087,2.8876,2.7943,2.4764,0.0,0.0,0.0,0.0,0.0,0.0,0.0,0.0,0.0,2.4954,2.6703,2.6703,2.6972,2.7491,2.6664,2.5969,2.5351,2.4198,2.3546,0.0,0.0,0.0,0.0,0.0,0.0,0.0,0.0,0.0,0.0,0.0,0.0,0.0,0.0,0.0,0.0,0.0,0.0,0.0,3.5557,3.8258,4.1151,4.2034,4.2893,4.3497,4.3168,4.1558,3.9826,3.8963,3.6991,3.4849,3.3169,3.2391,3.1866,3.1305,3.2418,3.3691,3.4551,3.5358,0.0,0.0,0.0,0.0,0.0,0.0,0.0,0.0,0.0,0.0,0.0,0.0,0.0,4.0496,4.05,4.0864,4.1641,4.1359,4.2164,4.422,4.393,4.4691,4.6467,4.6889,4.7456,4.81,4.8502,4.8709,0.0,0.0,0.0,0.0,4.8564,4.8049,4.7217,4.6668,4.5849,4.4885,4.4231,4.4303,4.4703,0.0,0.0,0.0,0.0,0.0,0.0,0.0,2.6615,2.7184,2.9052,2.9589,2.9872,3.0118,2.9101,2.814,2.75,2.4626,0.0,0.0,0.0,0.0,0.0,0.0,0.0,0.0,2.4432,2.6125,2.8354,2.8679,2.9275,3.0066,2.9566,2.8703,2.7521,2.6152,2.5178,0.0,0.0,0.0,0.0,0.0,0.0,2.3177,0.0,0.0,0.0,0.0,0.0,0.0,0.0,0.0,0.0,0.0,0.0,0.0,0.0,3.6188,3.8432,3.9685,4.0889,4.1649,4.1107,3.9638,3.8107,3.7265,3.5453,3.3576,3.2205,3.1701,3.1357,3.0859,3.2473,3.4062,3.4609,3.5631,0.0,0.0,0.0,0.0,0.0,0.0,0.0,0.0,0.0,0.0,0.0,0.0,0.0,4.0496,4.0496,4.0731,4.1233,4.1031,4.1867,4.3785,4.3308,4.4006,4.5913,4.5996,4.6542,4.749,4.759,4.7637,0.0,0.0,0.0,0.0,4.8304,4.7726,4.6648,4.6448,4.5574,4.4402,4.4178,4.4387,4.4741,0.0,0.0,0.0,0.0,0.0,0.0,0.0,2.4984,2.5805,2.6626,2.7425,2.8192,2.8886,2.7569,2.6584,2.644,0.0,0.0,0.0,0.0,0.0,0.0,0.0,0.0,0.0,2.5834,2.7563,2.9377,3.0234,3.1154,3.2042,3.1926,3.1021,2.9412,2.8361,2.6954,2.524,0.0,0.0,0.0,0.0,2.4019,0.0,0.0,0.0,0.0,0.0,0.0,0.0,0.0,0.0,0.0,0.0,0.0,0.0,0.0,0.0,0.0,0.0,3.934,4.0593,4.0534,3.9254,3.7805,3.6995,3.4925,0.0,3.2071,3.1366,3.0885,3.0885,3.3033,3.4805,3.4863,3.6146,0.0,0.0,0.0,0.0,0.0,0.0,0.0,0.0,0.0,0.0,0.0,0.0,0.0,4.0519,4.0496,4.0496,4.0496,4.1296,4.2099,4.2902,4.2987,4.3412,4.422,4.4275,4.482,4.5734,4.5861,4.5949,0.0,0.0,0.0,0.0,4.7933,4.7248,4.5847,4.6532,4.5746,4.4316,4.5128,4.5429,4.5399,0.0,0.0,0.0,0.0,0.0,0.0,0.0,0.0,0.0,0.0,2.4185,2.4392,2.4564,2.4227,2.3961,0.0,0.0,0.0,0.0,0.0,0.0,0.0,0.0,0.0,0.0,2.6717,2.9047,3.2009,3.2875,3.4064,3.5503,3.4218,3.3067,3.1983,2.9216,2.6725,2.4658,2.4943,0.0,0.0,2.5136,2.4882,0.0,0.0,0.0,0.0,2.419,2.5394,0.0,0.0,0.0,0.0,0.0,0.0,0.0,0.0,3.2955,3.3914,3.4971,0.0,3.7674,3.7016,3.6535,3.5982,0.0,3.4469,3.3788,3.296,3.2747,3.2696,3.2696,3.434,3.5918,3.6582,0.0,0.0,0.0,0.0,0.0,0.0,0.0,0.0,0.0,0.0,0.0,0.0,0.0,4.1289,4.0611,4.0531,4.0496,4.0496,4.0704,4.1216,4.2065,4.2096,4.2543,4.3397,4.411,4.4628,4.497,4.5711,4.6353,0.0,0.0,0.0,4.7859,4.7411,4.6594,4.56,4.5115,4.4296,4.3412,4.3605,4.4062,4.4542,0.0,0.0,0.0,0.0,0.0,0.0,0.0,0.0,0.0,0.0,0.0,0.0,0.0,0.0,0.0,0.0,0.0,0.0,0.0,0.0,0.0,0.0,0.0,0.0,2.6494,2.8227,3.0543,3.3541,3.4412,3.5734,3.7411,3.644,3.5375,3.4124,3.0328,2.728,2.4964,2.4651,2.4704,2.4977,2.4645,0.0,0.0,0.0,0.0,0.0,2.4726,2.569,0.0,2.7648,2.8788,2.9954,0.0,0.0,0.0,0.0,3.211,3.2684,3.3472,3.4668,3.5633,3.5579,3.5846,3.5827,3.4532,3.4597,3.4546,3.3343,3.3477,3.3699,3.3351,3.5402,0.0,0.0,3.7952,0.0,0.0,0.0,0.0,0.0,0.0,0.0,0.0,0.0,0.0,0.0,0.0,4.2113,4.1243,4.1166,4.0966,4.0558,4.0523,4.0723,4.12,4.12,4.1663,4.2564,4.3111,4.3618,4.4132,4.5076,4.5675,0.0,0.0,0.0,4.7536,4.7475,4.6971,4.6144,4.5682,4.497,4.4244,4.4244,4.4437,4.47,0.0,0.0,0.0,0.0,0.0,0.0,0.0,0.0,0.0,0.0,0.0,0.0,0.0,0.0,0.0,0.0,0.0,0.0,0.0,0.0,0.0,0.0,0.0,2.6365,2.8176,3.0113,3.2285,3.471,3.5857,3.7187,3.868,3.8587,3.7413,3.5244,3.1352,2.8223,2.579,2.4033,2.4238,2.555,2.3945,0.0,0.0,0.0,0.0,0.0,0.0,0.0,0.0,2.8314,2.9438,3.0332,3.1091,0.0,0.0,0.0,0.0,0.0,3.2916,3.3876,3.4719,3.5181,3.5968,3.6218,3.4748,3.502,3.5201,3.379,3.4098,3.4466,3.3969,3.6308,0.0,0.0,0.0,0.0,0.0,0.0,0.0,0.0,0.0,0.0,4.7312,4.7302,4.6588,0.0,0.0,4.3018,4.2152,4.2106,4.1755,4.1023,4.0935,4.092,4.092,4.0777,4.1115,4.1896,4.2234,4.2812,4.3622,4.4572,4.4964,4.4991,0.0,0.0,4.7157,4.7714,4.7527,4.6892,4.6777,4.6277,4.5618,4.5573,4.541,4.5185,0.0,0.0,0.0,0.0,0.0,0.0,0.0,0.0,0.0,0.0,0.0,0.0,0.0,0.0,0.0,0.0,0.0,0.0,0.0,0.0,0.0,0.0,0.0,2.7385,2.9147,3.2264,3.4769,3.6585,3.8944,4.02,4.0416,4.044,3.8036,3.3585,3.1506,2.9184,2.6699,2.494,2.4777,2.5608,2.4534,0.0,0.0,0.0,0.0,0.0,0.0,0.0,0.0,2.6743,2.767,2.8552,2.9393,0.0,0.0,0.0,0.0,0.0,3.3475,3.5232,3.6081,3.4738,3.5056,3.5633,3.5436,3.5497,3.5535,3.5342,3.5443,3.5777,0.0,3.705,3.7871,0.0,0.0,0.0,0.0,0.0,0.0,0.0,0.0,4.901,4.8275,4.8194,4.7475,4.5738,0.0,4.3923,4.3046,4.2995,4.2937,4.2802,4.2799,4.2795,4.2795,4.2044,4.1766,4.1925,4.3466,4.4281,4.4458,4.546,4.6217,4.6805,0.0,4.755,4.8037,4.7411,4.7098,4.6906,4.6162,4.5799,4.5652,4.5429,4.5273,4.5113,0.0,0.0,0.0,0.0,0.0,0.0,0.0,0.0,0.0,0.0,0.0,0.0,0.0,0.0,0.0,0.0,0.0,0.0,0.0,0.0,0.0,0.0,0.0,0.0,3.0764,3.3264,3.5603,3.7759,3.9439,4.0495,4.0947,4.0558,3.8088,3.3933,3.2293,3.0097,2.7515,2.5322,2.4853,2.5516,0.0,0.0,0.0,0.0,0.0,0.0,0.0,0.0,0.0,0.0,2.7643,2.8159,2.8978,0.0,0.0,0.0,0.0,0.0,3.2621,3.4149,3.5448,3.5611,3.7694,3.9496,3.8618,3.8769,3.8731,3.7373,3.7885,3.8401,0.0,0.0,4.0566,4.228,0.0,0.0,0.0,0.0,0.0,0.0,0.0,4.8836,4.843,4.8392,4.7869,4.6596,0.0,0.0,4.3956,4.3896,4.3696,4.3213,4.3191,4.3218,4.3257,4.3299,4.3085,4.2673,4.349,4.3931,4.4037,4.4977,4.5555,4.5867,0.0,4.6664,4.6928,4.6479,4.6298,4.6259,4.5858,4.5696,4.5639,4.5243,4.4943,4.4701,0.0,0.0,0.0,0.0,0.0,0.0,0.0,0.0,0.0,0.0,0.0,0.0,0.0,0.0,0.0,0.0,0.0,0.0,0.0,0.0,0.0,0.0,0.0,0.0,3.2589,3.4547,3.6676,3.9032,4.0301,4.1104,4.1377,4.0152,3.7924,3.4846,3.3007,3.0816,2.8345,2.5753,2.497,2.542,0.0,0.0,0.0,0.0,0.0,0.0,0.0,0.0,0.0,0.0,0.0,0.0,0.0,0.0,0.0,2.9689,3.0565,3.1848,3.2494,3.387,3.5583,3.7597,3.9947,4.1612,4.097,4.1167,4.099,3.928,3.9988,0.0,0.0,4.1141,0.0,4.4042,4.3259,0.0,0.0,4.5689,4.6113,4.7003,4.7869,4.8237,4.7831,4.7985,4.7657,4.6593,4.6074,0.0,4.4836,4.4798,4.4508,4.3831,4.3803,4.3833,4.3885,4.4499,4.4407,4.3607,4.3837,4.3966,4.4054,4.4761,4.5042,4.4996,4.56,4.5848,4.5799,4.5746,4.5715,4.5715,4.5715,4.5633,4.5454,4.4988,4.4592,4.4265,0.0,0.0,0.0,0.0,0.0,0.0,0.0,0.0,0.0,0.0,0.0,0.0,0.0,0.0,0.0,0.0,0.0,0.0,0.0,0.0,0.0,0.0,0.0,0.0,3.4429,3.7006,3.9154,4.091,4.3404,4.3822,4.2244,3.9822,3.7693,3.5799,3.3237,3.1098,2.9222,2.6558,2.5451,2.5417,2.4543,0.0,0.0,0.0,0.0,0.0,0.0,0.0,0.0,0.0,0.0,0.0,0.0,0.0,2.9504,3.0147,3.0978,3.2211,3.4587,3.6495,3.8439,4.0992,3.9422,3.7898,4.0347,4.0217,3.9818,4.0648,0.0,0.0,0.0,4.2924,4.3359,4.2605,4.299,4.3732,4.4642,0.0,4.6113,4.7003,4.7869,4.7753,4.6132,4.6712,4.6515,4.4907,4.5413,0.0,4.5703,4.5703,4.5684,4.5606,4.5606,4.5626,4.561,4.5687,4.5297,4.4527,4.5398,4.575,4.5641,4.5825,4.583,4.572,4.5778,4.5791,4.58,4.5796,4.5796,4.5796,4.5796,4.5455,4.4918,4.4631,4.4315,4.4013,0.0,0.0,0.0,0.0,0.0,0.0,0.0,0.0,0.0,0.0,0.0,0.0,0.0,0.0,0.0,0.0,0.0,0.0,0.0,0.0,0.0,0.0,0.0,3.1153,3.6208,3.783,3.9958,4.2729,4.3168,4.2513,4.0819,3.9862,3.8183,3.5937,3.4367,3.2398,3.0078,2.7432,2.6,2.5473,2.5095,2.4934,0.0,0.0,0.0,0.0,0.0,0.0,0.0,0.0,2.4424,2.4888,2.6039,2.7323,2.8707,3.0064,3.1787,3.3583,3.5148,3.7196,3.9283,4.0855,4.0649,4.0609,4.2772,4.3423,4.3365,4.2692,4.3905,0.0,0.0,0.0,4.4551,4.4696,4.4481,4.4593,4.5399,4.5702,4.5973,4.6302,4.7094,4.6922,4.522,4.5803,4.5819,4.4694,4.4887,4.5278,4.5765,4.5803,4.5803,4.5803,4.5803,4.6055,4.6596,4.6074,4.5944,4.6217,4.6075,4.5978,4.5935,4.598,4.5935,4.5803,4.5803,4.5803,4.5803,4.5803,4.5803,4.5796,4.5658,4.538,4.4986,4.4676,4.4376,4.4096,0.0,0.0,0.0,0.0,0.0,0.0,0.0,0.0,0.0,0.0,0.0,0.0,0.0,0.0,0.0,0.0,0.0,0.0,0.0,2.2799,2.4653,0.0,0.0,3.1139,3.6364,3.7855,4.0119,4.3294,4.2424,4.128,3.988,3.9061,3.7851,0.0,0.0,0.0,0.0,0.0,0.0,2.5488,2.5429,2.5088,0.0,0.0,0.0,0.0,0.0,0.0,0.0,0.0,2.3381,2.363,2.4982,2.6385,2.7955,3.0226,3.2666,3.4966,3.6401,3.828,4.0091,4.1268,4.1996,4.2889,4.4691,4.5618,4.5893,4.5271,4.6449,4.7422,4.6815,0.0,0.0,0.0,4.5661,4.5421,4.5951,4.5964,4.5917,4.5906,4.6399,4.6046,4.4346,4.4949,4.5084,4.4249,4.4442,4.4949,4.5765,4.5803,4.5803,4.5803,4.5803,4.6118,4.6742,4.6419,4.6602,4.7298,4.6738,4.6314,4.6029,4.6029,4.5972,4.5851,4.5824,4.5803,4.5803,4.5803,4.5756,4.5681,4.5541,4.528,4.4956,4.4726,4.4446,4.4169,0.0,0.0,0.0,0.0,0.0,0.0,0.0,0.0,0.0,0.0,0.0,0.0,0.0,0.0,0.0,0.0,0.0,0.0,2.2994,2.3092,2.4653,2.8147,2.9059,3.1129,3.4609,3.718,3.9777,4.2395,4.1525,4.0673,3.9819,3.7224,0.0,0.0,0.0,0.0,0.0,0.0,0.0,0.0,2.5429,2.4387,2.3002,0.0,0.0,0.0,0.0,0.0,0.0,0.0,2.1652,2.2125,2.46,2.5994,2.7363,3.0733,3.3554,3.6176,3.8704,4.0042,4.114,4.279,4.3283,4.3818,4.5631,4.6012,4.6536,4.8349,4.8137,4.7616,4.7623,4.6907,0.0,4.6315,4.6269,4.6196,4.6117,4.6033,4.5971,4.5899,4.59,4.5225,4.3463,4.4075,4.423,4.3359,4.4094,4.4949,4.5765,4.5807,4.5807,4.5807,4.5807,4.5877,4.6019,4.6806,4.7297,4.7513,4.7493,4.7001,4.6119,4.61,4.6054,4.5991,4.5867,4.5803,4.5803,4.5803,4.5673,4.5494,4.5494,4.517,4.4695,4.4707,4.4488,4.4184,0.0,0.0,0.0,0.0,0.0,0.0,0.0,0.0,0.0,0.0,0.0,0.0,0.0,0.0,0.0,0.0,0.0,0.0,2.2988,2.3105,2.4375,2.7266,2.8202,2.998,3.2812,3.5974,3.8867,4.1499,4.1232,4.0066,3.8061,0.0,0.0,0.0,0.0,0.0,0.0,0.0,0.0,2.624,2.5039,2.4262,2.3775,0.0,0.0,0.0,0.0,0.0,0.0,0.0,0.0,0.0,2.3943,2.5968,2.8275,3.1686,3.4471,3.688,3.8919,4.139,4.3378,4.3344,4.5154,0.0,0.0,4.7831,0.0,0.0,4.9545,4.935,4.9365,0.0,0.0,4.7309,4.7168,4.6883,4.6256,4.6118,4.6043,4.5986,4.5928,4.5221,4.354,4.3592,4.3621,4.3324,4.3534,4.4291,4.5726,4.585,4.5864,4.5864,4.5917,4.6255,4.6905,4.6584,4.7066,4.8347,4.7761,4.7329,4.698,4.6375,4.6,4.5867,4.5824,4.5803,4.5803,4.5803,4.5759,4.5673,4.5395,4.5192,4.5002,4.4576,4.4361,4.4233,0.0,0.0,0.0,0.0,0.0,0.0,0.0,0.0,2.0565,2.0604,2.0585,2.0565,0.0,0.0,0.0,2.0504,2.0504,2.109,2.2497,2.2575,2.3747,2.6365,2.6963,2.8577,3.1487,3.4238,3.6594,3.8515,3.9569,3.8925,0.0,0.0,0.0,0.0,0.0,0.0,0.0,0.0,0.0,2.7076,2.5393,2.45,2.4109,0.0,0.0,0.0,0.0,0.0,0.0,0.0,0.0,0.0,2.3163,2.521,2.7943,3.2694,3.5642,3.8038,4.1155,4.3512,4.5076,4.4948,4.6744,4.8874,5.017,0.0,0.0,0.0,5.0895,5.0502,5.0168,4.9423,0.0,4.8206,4.8061,4.7832,4.7317,4.687,4.6587,4.6528,4.6186,4.5277,4.3574,4.3404,4.3231,4.286,4.315,4.377,4.474,4.5493,4.5592,4.4938,4.5272,4.5753,4.6338,4.6201,4.6858,4.8261,4.7773,4.7662,4.7897,4.7012,4.6532,4.6389,4.5993,4.5847,4.5847,4.5847,4.5726,4.5556,4.5399,4.5171,4.4881,4.4602,4.4414,4.4278,0.0,0.0,0.0,0.0,0.0,0.0,0.0,2.0492,2.0525,2.0586,2.0546,2.0526,0.0,0.0,0.0,2.0502,2.0502,2.0874,2.1734,2.1793,2.2906,2.5367,2.5555,2.7128,3.0383,3.2098,3.3397,3.436,3.7149,3.7565,0.0,0.0,3.6684,0.0,0.0,3.4179,0.0,0.0,2.9457,2.7836,2.5992,2.4782,2.398,2.303,0.0,0.0,0.0,0.0,0.0,0.0,0.0,0.0,2.2358,2.4105,2.6781,3.3323,3.6599,3.9146,4.4021,4.5665,4.6201,4.7026,4.8171,0.0,5.1275,5.2943,5.3849,5.2809,0.0,5.1345,5.0383,4.9577,4.9026,4.9005,4.8961,4.8889,4.8808,4.8079,4.7479,4.734,4.6606,4.542,4.3571,4.3406,4.3033,4.2172,4.2836,4.3285,4.3301,4.4807,4.4968,4.3445,4.4182,4.4668,4.4773,4.5637,4.6542,4.7477,4.7555,4.7965,4.8677,4.7793,4.7361,4.7235,4.6392,4.5961,4.5903,4.5903,4.5653,4.5274,4.5487,4.5142,4.4573,4.472,4.4569,4.4292,0.0,0.0,0.0,0.0,0.0,0.0,2.0501,2.0492,2.0503,2.0517,2.0501,2.0502,2.0517,2.0514,0.0,2.0494,2.0493,2.0864,2.1742,2.1808,2.2366,2.3596,2.4911,2.6561,2.8616,2.9656,3.0956,3.2567,3.6497,3.7202,0.0,0.0,0.0,0.0,0.0,0.0,0.0,0.0,2.8339,2.7739,2.4685,2.335,2.3012,2.1504,2.071,0.0,0.0,0.0,0.0,0.0,0.0,0.0,2.2162,2.4097,2.6435,3.1229,3.4789,3.7873,4.1079,4.393,0.0,4.7195,5.0155,5.3121,5.4197,5.5252,5.5194,5.2284,5.2616,5.2965,5.1413,5.0965,5.0612,4.9954,4.982,4.9578,4.8906,4.8633,4.8212,4.7462,4.7215,4.6117,4.3632,4.34,4.3034,4.2172,4.2266,4.2673,4.3348,4.3729,4.3776,4.341,4.3686,4.3831,4.3794,4.4716,4.5623,4.6514,4.7137,4.7876,4.8668,4.7809,4.7338,4.7205,4.7016,4.6535,4.5899,4.5899,4.5844,4.5711,4.5417,4.5194,4.5004,4.4641,4.4418,4.4237,0.0,0.0,0.0,0.0,0.0,0.0,0.0,0.0,2.0976,2.0547,2.0508,2.0508,2.0508,2.0501,0.0,0.0,2.0499,2.0694,2.1141,2.1182,2.1549,2.24,2.367,2.4759,2.5587,2.7219,2.8528,2.9457,3.3333,0.0,0.0,0.0,0.0,0.0,0.0,0.0,0.0,0.0,0.0,0.0,0.0,2.326,2.2805,2.1933,2.1353,2.1025,2.1025,0.0,0.0,0.0,0.0,0.0,0.0,0.0,2.526,3.0325,3.3651,3.6646,4.0934,0.0,0.0,4.8226,0.0,5.4121,5.457,5.5664,5.5859,5.3183,5.3378,5.3474,5.1712,5.1397,5.1255,5.0798,5.0718,5.0566,5.0107,4.9685,4.9081,4.8181,4.7666,4.6514,4.4295,4.3668,4.3058,4.2205,4.2144,4.2161,4.2197,4.2984,4.308,4.2272,4.2718,4.295,4.293,4.3402,4.4092,4.496,4.5388,4.6455,4.8086,4.8004,4.7935,4.7869,4.7869,4.7384,4.6569,4.6569,4.6172,4.5539,4.5338,4.5085,4.4833,4.4546,4.4387,4.4229,0.0,0.0,0.0,0.0,0.0,0.0,0.0,0.0,0.0,2.0599,2.049,2.0506,2.0502,2.049,2.0499,0.0,0.0,0.0,2.0499,2.05,2.0856,2.1659,2.2393,2.2824,2.291,2.5124,2.6414,2.6704,2.9529,0.0,0.0,0.0,0.0,0.0,0.0,0.0,0.0,0.0,0.0,0.0,0.0,0.0,0.0,0.0,0.0,0.0,2.2189,2.147,2.0498,1.9628,0.0,0.0,0.0,0.0,2.3772,2.93,3.2358,3.5216,4.0951,4.3861,4.6059,4.9373,5.1894,0.0,5.4121,5.5332,5.5918,5.4336,5.4003,5.3475,5.1716,5.1398,5.1409,5.1407,5.14,5.1394,5.1394,5.0771,4.9999,4.9121,4.8193,4.6939,4.5189,4.4199,4.3305,4.2487,4.2293,4.1885,4.1164,4.2349,4.2419,4.1031,4.1687,4.2065,4.2066,4.2229,4.266,4.3359,4.3652,4.4989,4.7182,4.8154,4.8685,4.8817,4.8817,4.8332,4.7514,4.7356,4.6587,4.5486,4.5343,4.4981,4.4558,4.4503,4.4416,4.4237,0.0,0.0,0.0,0.0,0.0,0.0,0.0,0.0,0.0,0.0,2.0501,2.05,2.0504,2.0501,2.0499,2.0499,2.0499,2.0499,2.0499,0.0,0.0,2.1652,2.1801,2.2228,2.2977,2.3996,2.5258,2.6704,2.7168,0.0,0.0,0.0,0.0,0.0,0.0,0.0,0.0,0.0,0.0,0.0,0.0,0.0,0.0,0.0,0.0,0.0,0.0,2.2865,2.1396,2.0519,1.9146,0.0,0.0,0.0,2.2596,2.6281,2.9645,3.3142,3.7737,0.0,4.7633,0.0,5.0976,5.2344,0.0,0.0,5.5195,0.0,5.4003,5.3474,5.1713,5.1395,5.1407,5.1398,5.1395,5.1394,5.1394,5.1301,5.0904,5.0038,4.9091,4.7846,4.6099,4.5131,4.4263,4.3386,4.2631,4.2148,4.2032,4.1529,4.1145,4.0926,4.1077,4.1142,4.1084,4.1893,4.2321,4.241,4.3925,4.5179,4.6233,4.7869,4.9007,4.9726,4.9726,4.9238,4.8361,4.76,4.7052,4.6572,4.5663,4.5085,4.4752,4.456,4.4416,4.4237,0.0,0.0,0.0,0.0,0.0,0.0,0.0,0.0,0.0,0.0,0.0,2.0499,2.0499,2.0499,2.0499,2.0499,2.0499,2.0494,2.0503,2.0493,2.0653,2.1001,2.1027,2.1186,2.1535,2.2372,2.3382,2.4561,0.0,0.0,0.0,3.1683,3.2358,0.0,0.0,0.0,0.0,0.0,0.0,0.0,0.0,0.0,0.0,0.0,0.0,0.0,0.0,0.0,2.3617,2.2262,2.0345,1.8663,1.9435,0.0,0.0,0.0,2.7035,3.0531,3.7824,4.2527,4.6158,0.0,5.0801,5.1699,5.2851,0.0,5.4902,5.3555,5.3651,5.3471,5.1711,5.1394,5.1407,5.1396,5.1394,5.1394,5.1394,5.1394,5.1088,5.0202,4.9704,4.8737,4.7,4.6019,4.5125,4.4287,4.3413,4.2928,4.2928,4.2095,4.1628,4.1628,4.1181,4.093,4.0907,4.1319,4.1494,4.1492,4.2736,4.3785,4.4656,4.6368,4.8155,4.9926,5.0428,5.0137,4.9301,4.8913,4.8269,4.7413,4.6412,4.5805,4.5394,4.4741,4.4416,4.4207,0.0,0.0,0.0,0.0,0.0,0.0,0.0,0.0,0.0,0.0,0.0,2.0499,2.0499,0.0,0.0,0.0,2.0499,2.0493,2.0498,2.0491,2.0504,2.0496,2.0266,2.0232,2.0416,2.105,2.1767,2.2604,0.0,0.0,2.9323,3.0192,3.1736,0.0,3.2391,0.0,0.0,0.0,0.0,0.0,0.0,0.0,0.0,0.0,0.0,0.0,0.0,0.0,2.7037,2.4447,2.2146,2.0287,1.9628,2.0036,0.0,0.0,0.0,0.0,0.0,0.0,4.3663,4.7828,4.9296,5.0038,0.0,0.0,5.4004,0.0,5.322,5.3195,5.1672,5.1393,5.1403,5.1395,5.1394,5.1394,5.1394,5.1394,5.116,5.0515,5.0195,4.9516,4.8208,4.7044,4.6102,4.5517,4.446,4.3838,4.3838,4.3005,4.2522,4.2522,4.1898,4.1463,4.1254,4.1044,4.1044,4.1274,4.2112,4.2993,4.3896,4.5805,4.7592,4.9301,5.0386,5.0619,5.0214,4.9981,4.9282,4.8245,4.7281,4.666,4.619,4.5171,4.4723,4.4479,0.0,0.0,0.0,0.0,0.0,0.0,0.0,0.0,0.0,0.0,0.0,2.0499,2.0499,2.0499,2.0499,2.0499,2.0499,2.0498,2.0498,2.0499,2.0497,2.0496,1.9647,0.0,2.0483,2.0489,2.0883,0.0,0.0,0.0,2.9323,3.0192,3.2377,3.5455,3.2935,3.1427,3.0888,0.0,0.0,0.0,0.0,0.0,0.0,0.0,0.0,0.0,0.0,0.0,0.0,2.7015,2.4735,2.3519,2.1098,2.0927,2.1669,0.0,0.0,0.0,0.0,3.7263,0.0,4.4286,4.5217,0.0,0.0,0.0,0.0,5.2558,5.2732,5.2492,5.1574,5.1407,5.1395,5.1394,5.1394,5.1394,5.1394,5.1394,5.1375,5.1336,5.06,5.0058,4.9961,4.8358,4.7308,4.7269,4.5691,4.4734,4.4734,4.3916,4.343,4.343,4.3391,4.3009,4.2232,4.1414,4.1414,4.2232,4.305,4.3888,4.4812,4.7317,4.8094,4.7528,4.9224,5.0409,5.1066,5.0234,4.965,4.913,4.813,4.7495,4.7025,4.6006,4.5547,4.5267,0.0,0.0,0.0,0.0,0.0,0.0,0.0,0.0,0.0,0.0,0.0,0.0,0.0,2.0499,2.0499,2.0499,2.0507,2.0506,2.0498,2.05,2.0259,1.9686,1.9347,1.9291,1.9593,1.9613,0.0,0.0,0.0,2.4064,2.6884,2.8279,2.9282,2.9996,3.1811,3.2469,3.2237,3.2854,0.0,0.0,0.0,0.0,0.0,0.0,0.0,0.0,0.0,0.0,0.0,0.0,2.835,2.5468,2.3478,2.2302,0.0,0.0,0.0,0.0,0.0,0.0,0.0,4.2851,4.4864,4.6134,4.7705,4.9783,5.1348,5.1132,5.195,5.2433,5.157,5.1403,5.1394,5.1394,5.1394,5.1394,5.1394,5.1394,5.1394,5.1394,5.1127,5.0703,5.0156,4.9474,4.8841,4.8272,4.7132,4.6444,4.6407,4.562,4.5171,4.5171,4.5202,4.4824,4.3981,4.4212,4.3904,4.308,4.3923,4.4193,4.4013,4.5491,4.6579,4.7373,4.8541,4.9554,5.0384,5.0533,5.0521,5.0273,4.901,4.8408,4.8156,4.6975,4.6469,4.6221,0.0,0.0,0.0,2.0116,0.0,2.0499,2.0499,2.0499,0.0,0.0,0.0,0.0,0.0,0.0,2.0811,2.0538,2.0506,2.0505,2.0498,2.05,2.024,1.9667,1.9329,1.9296,1.9567,0.0,0.0,0.0,0.0,0.0,0.0,0.0,2.7155,2.7269,3.0421,0.0,0.0,0.0,0.0,3.2157,0.0,0.0,3.9506,0.0,0.0,0.0,0.0,0.0,0.0,0.0,0.0,0.0,0.0,0.0,0.0,0.0,0.0,0.0,3.0436,0.0,0.0,0.0,0.0,4.4276,4.5499,0.0,4.9645,4.9744,5.0855,5.1651,5.1078,5.1206,5.1394,5.1394,5.1394,5.1394,5.1394,5.1394,5.1394,5.1394,5.1395,5.1168,5.0581,0.0,0.0,4.9213,4.8336,0.0,4.776,4.727,4.6965,4.6965,4.6755,4.6359,4.5773,4.6053,4.5736,4.4857,4.5102,4.5085,4.4833,4.5381,4.6104,4.6975,4.8413,4.9535,5.0361,5.0822,5.0963,5.0797,4.9766,4.9316,4.9081,4.7919,4.7398,4.7116,0.0,1.9334,2.0234,1.9383,1.9945,2.0519,2.0538,2.0538,0.0,0.0,0.0,0.0,0.0,0.0,0.0,2.0616,2.0518,2.0498,2.0499,2.05,2.0497,2.0458,0.0,0.0,0.0,0.0,0.0,0.0,0.0,0.0,0.0,0.0,2.6285,0.0,2.8782,2.8257,2.6897,0.0,3.1794,3.2179,0.0,3.946,3.9686,0.0,0.0,0.0,4.0577,4.0712,0.0,0.0,0.0,0.0,0.0,0.0,0.0,0.0,0.0,0.0,0.0,0.0,0.0,0.0,0.0,0.0,4.3973,0.0,4.6654,4.8453,4.9487,5.0068,5.0062,5.0776,5.1355,5.1355,5.1375,5.1394,5.1375,5.1375,5.1394,5.1394,0.0,0.0,0.0,0.0,0.0,0.0,4.927,4.8747,4.8746,4.8747,4.8748,4.8789,4.8025,4.7597,4.7578,4.6755,4.6756,4.7519,4.6634,4.6634,4.74,4.7363,4.6909,4.631,4.8829,5.0395,5.1193,5.1051,5.0879,5.0683,5.0417,5.0136,4.9784,4.8805,4.8303,4.7966,1.9855,2.0168,2.0413,2.0176,2.0341,2.0713,2.1336,2.1434,0.0,0.0,0.0,0.0,0.0,0.0,0.0,0.0,2.0856,2.0504,2.0498,2.05,2.0212,1.9582,1.9305,1.927,0.0,0.0,0.0,0.0,0.0,0.0,0.0,0.0,0.0,0.0,2.5629,2.6283,2.6145,3.0765,0.0,0.0,3.6865,3.9444,0.0,0.0,0.0,0.0,0.0,4.3763,0.0,0.0,3.947,3.6606,0.0,0.0,0.0,0.0,0.0,0.0,2.6821,0.0,0.0,0.0,0.0,0.0,0.0,0.0,0.0,4.7017,4.8151,4.9163,4.9156,4.9873,5.0456,5.0456,5.0983,5.118,5.0554,5.1003,0.0,0.0,0.0,0.0,0.0,0.0,0.0,0.0,5.0214,4.9682,4.9642,4.9681,5.0,5.0632,5.0448,5.001,4.9397,4.9771,4.9435,4.8374,4.8747,4.8398,4.7426,4.8039,4.8164,4.799,4.9377,5.0436,5.1193,5.1051,5.0967,5.089,5.0463,5.0195,4.9981,4.9511,4.9243,4.8982,2.0422,2.0507,2.0503,2.0494,2.1103,2.1628,2.1784,2.2427,2.3069,0.0,0.0,0.0,0.0,0.0,0.0,0.0,2.154,2.1032,2.1044,2.0695,2.0268,1.9751,1.9723,1.9705,0.0,0.0,0.0,0.0,0.0,0.0,0.0,0.0,0.0,0.0,0.0,0.0,0.0,0.0,0.0,0.0,3.6607,0.0,0.0,4.2996,4.4758,0.0,0.0,0.0,4.4524,4.4444,4.2073,0.0,0.0,0.0,0.0,0.0,0.0,0.0,0.0,0.0,0.0,0.0,0.0,0.0,0.0,0.0,0.0,0.0,4.7896,4.8691,4.835,4.8993,4.9441,4.9109,4.9754,5.0399,0.0,0.0,0.0,0.0,0.0,0.0,0.0,5.0535,5.0466,5.0833,5.0384,5.0231,5.0566,5.0621,5.0879,5.137,5.1408,5.115,5.0654,5.1115,5.0838,4.9834,4.9942,4.9484,4.8534,4.8651,4.8695,4.8735,4.9621,5.0251,5.0673,5.0968,5.0993,5.0847,5.0499,5.0224,5.0006,4.9838,4.9648,4.9434,0.0,2.0501,2.0537,2.0632,2.2018,2.2875,2.2194,2.3557,2.4686,0.0,0.0,0.0,0.0,0.0,0.0,0.0,2.2583,2.2017,2.1801,2.1063,2.0602,2.0481,2.042,2.0425,2.0489,0.0,0.0,0.0,0.0,0.0,0.0,0.0,0.0,0.0,0.0,0.0,0.0,0.0,0.0,3.26,3.6752,3.8812,0.0,0.0,4.4186,0.0,4.4207,4.4986,4.6405,4.6938,4.4966,0.0,0.0,0.0,0.0,0.0,2.8584,0.0,0.0,0.0,0.0,0.0,0.0,0.0,0.0,0.0,0.0,0.0,0.0,4.786,4.7244,4.7809,4.8104,4.7405,0.0,0.0,0.0,0.0,0.0,0.0,0.0,0.0,4.9909,4.9344,4.9227,4.9909,4.9967,5.0294,5.1065,5.1201,5.1252,5.1255,5.1333,5.1391,5.1388,5.1336,5.1336,5.139,5.0544,5.0123,5.006,4.9333,4.8963,4.8975,4.9785,5.0108,5.012,5.0899,5.1008,5.0687,5.0567,5.0274,4.9905,4.9905,4.9736,4.9509,2.0471,2.0502,2.0713,2.1414,2.2408,2.3284,2.381,2.5329,2.6419,0.0,0.0,0.0,0.0,0.0,0.0,0.0,0.0,0.0,2.1897,2.1639,2.1212,2.0451,2.042,2.0405,2.0422,2.0414,0.0,0.0,0.0,0.0,0.0,0.0,0.0,0.0,0.0,0.0,0.0,0.0,0.0,3.5198,3.8095,0.0,3.8974,4.3005,4.5129,4.6008,4.6594,4.7456,4.8036,0.0,4.4455,4.2878,0.0,0.0,0.0,0.0,0.0,0.0,0.0,0.0,0.0,0.0,0.0,0.0,0.0,0.0,0.0,0.0,0.0,0.0,4.413,4.4911,4.5461,0.0,0.0,0.0,0.0,0.0,0.0,0.0,0.0,0.0,4.9169,4.9539,4.9637,4.9091,4.9044,4.9132,4.9296,4.9977,5.0359,5.0358,5.0984,5.133,5.1312,5.1308,5.1308,5.1312,5.1126,5.0681,5.0036,5.0561,5.0426,4.9817,5.067,5.1014,5.0967,5.119,5.1047,5.0696,5.067,5.0353,4.9905,4.9905,4.9736,4.9509,2.0461,2.0528,2.077,2.1645,2.3233,2.4399,2.4394,2.656,0.0,0.0,0.0,0.0,0.0,0.0,0.0,0.0,0.0,0.0,2.4499,2.3531,2.2636,2.1744,2.0851,2.0398,2.0402,2.04,2.04,0.0,0.0,0.0,0.0,0.0,0.0,0.0,0.0,0.0,0.0,0.0,3.2377,3.6486,3.8666,0.0,4.0626,4.4557,4.638,4.7011,4.8329,4.9118,4.9218,4.6958,4.5326,0.0,0.0,4.0715,3.9172,0.0,3.4751,3.3076,0.0,0.0,0.0,2.8492,0.0,0.0,0.0,0.0,0.0,0.0,0.0,0.0,0.0,0.0,0.0,0.0,0.0,0.0,0.0,0.0,0.0,0.0,0.0,0.0,4.8231,4.8192,4.819,4.8146,4.8546,4.8807,4.879,4.9627,5.0087,5.0049,5.0867,5.1292,5.13,5.13,5.13,5.13,5.13,5.1067,5.0657,5.1106,5.1068,5.0672,5.1111,5.1288,5.1241,5.1295,5.1113,5.0831,5.0746,5.0413,4.9993,4.9926,4.9736,4.9509,2.0468,2.0564,2.0847,2.1878,2.3932,2.5274,2.4727,2.7402,0.0,0.0,0.0,0.0,0.0,0.0,0.0,0.0,0.0,0.0,0.0,0.0,2.5168,2.4278,2.2086,2.1044,2.1386,2.0735,2.04,0.0,0.0,0.0,0.0,0.0,0.0,0.0,0.0,0.0,0.0,0.0,0.0,3.732,0.0,4.1081,4.2956,4.6109,4.7491,4.7948,4.9491,5.0208,5.0156,4.8368,0.0,4.5199,4.4174,4.2394,0.0,0.0,0.0,0.0,0.0,0.0,0.0,0.0,0.0,3.1441,0.0,0.0,0.0,0.0,0.0,0.0,0.0,0.0,0.0,0.0,0.0,0.0,0.0,0.0,0.0,0.0,0.0,0.0,4.6845,4.6805,4.6974,4.7467,4.8452,4.8907,4.8576,4.9374,4.9815,4.9761,5.0755,5.13,5.13,5.13,5.13,5.13,5.1476,5.1456,5.132,5.1476,5.1463,5.1308,5.1308,5.1283,5.1271,5.1271,5.1193,5.1027,5.0831,5.0514,5.0159,4.9993,4.9788,4.9555,2.0586,2.0586,2.1094,2.2672,2.3841,2.4778,2.5445,2.7806,0.0,0.0,0.0,0.0,0.0,0.0,0.0,0.0,0.0,0.0,3.1688,0.0,0.0,2.8701,2.4833,2.3394,2.4891,2.1957,2.04,2.04,0.0,0.0,0.0,0.0,0.0,0.0,2.5145,0.0,0.0,0.0,3.7056,0.0,4.0805,4.2862,0.0,4.6627,4.7906,4.8791,4.9802,5.0644,5.1016,0.0,4.8017,4.6835,0.0,4.4509,0.0,0.0,0.0,0.0,0.0,0.0,0.0,0.0,3.0907,0.0,0.0,0.0,0.0,0.0,0.0,0.0,0.0,0.0,0.0,0.0,0.0,0.0,0.0,0.0,0.0,0.0,0.0,0.0,0.0,4.6798,4.8226,4.7556,4.9013,4.9278,4.7721,4.8479,4.8947,4.8943,5.0463,5.13,5.13,5.13,5.13,5.132,5.2078,5.2058,5.1339,5.2097,5.2023,5.129,5.129,5.1279,5.1219,5.1219,5.1192,5.1156,5.1011,5.0763,5.042,5.0171,4.9949,4.974,2.0601,2.0603,2.0976,2.2148,2.3474,2.4528,2.4883,2.7578,0.0,0.0,0.0,0.0,0.0,0.0,0.0,0.0,0.0,3.7109,0.0,0.0,0.0,0.0,2.6272,2.4128,2.3318,2.1882,2.0909,2.04,2.04,0.0,0.0,0.0,0.0,0.0,2.7234,0.0,3.3712,0.0,0.0,0.0,0.0,0.0,0.0,4.802,4.8875,5.0935,5.0389,5.1035,5.1894,0.0,4.904,0.0,0.0,0.0,0.0,0.0,0.0,0.0,0.0,0.0,0.0,0.0,0.0,0.0,3.3189,0.0,3.2833,0.0,0.0,0.0,0.0,0.0,0.0,0.0,0.0,0.0,0.0,0.0,0.0,0.0,0.0,0.0,0.0,0.0,0.0,0.0,4.9078,4.9517,4.8321,4.904,4.9508,4.9508,5.0677,5.13,5.13,5.13,5.1552,5.2058,5.2428,5.2662,5.2799,5.2662,5.2409,5.2039,5.1513,5.1277,5.1269,5.1227,5.12,5.1193,5.1149,5.0902,5.0568,5.0228,4.9968,4.9762,2.0594,0.0,2.0857,2.1678,2.3066,2.4375,2.5329,2.8212,0.0,0.0,0.0,0.0,3.6616,3.7466,0.0,0.0,0.0,3.9626,0.0,0.0,3.5322,0.0,2.9055,0.0,0.0,2.3152,2.1756,2.1117,0.0,0.0,0.0,0.0,0.0,0.0,0.0,3.2245,3.7116,0.0,0.0,4.7,4.3808,4.6113,5.1234,4.9191,5.0175,5.2408,5.078,5.1426,5.2793,5.1094,4.994,0.0,4.8222,0.0,0.0,0.0,0.0,0.0,4.025,0.0,0.0,0.0,0.0,0.0,0.0,0.0,0.0,0.0,0.0,0.0,0.0,0.0,0.0,0.0,0.0,0.0,0.0,0.0,0.0,0.0,0.0,0.0,0.0,0.0,0.0,0.0,0.0,5.0105,4.8865,4.9566,4.9995,4.9995,5.0852,5.13,5.13,5.1534,5.1961,5.2604,5.3071,5.3519,5.389,5.3247,5.2838,5.2545,5.1688,5.1302,5.1283,5.1229,5.1193,5.1193,5.1208,5.1042,5.0754,5.0314,4.9993,4.9762,2.0594,2.0594,0.0,2.1744,2.2585,2.4283,2.7659,0.0,0.0,0.0,0.0,0.0,0.0,0.0,0.0,0.0,0.0,4.1917,4.0993,0.0,4.0839,0.0,0.0,3.1745,0.0,0.0,2.2937,2.2927,0.0,0.0,0.0,0.0,0.0,0.0,0.0,3.0942,3.3703,3.8794,4.2,4.365,4.3588,4.4246,4.5723,0.0,5.1855,5.248,5.0801,0.0,0.0,5.1953,5.0735,0.0,0.0,0.0,0.0,0.0,0.0,0.0,0.0,0.0,0.0,3.9174,0.0,0.0,0.0,0.0,3.61,0.0,0.0,0.0,0.0,0.0,0.0,0.0,0.0,0.0,0.0,0.0,0.0,0.0,0.0,0.0,0.0,0.0,0.0,0.0,0.0,0.0,4.8939,4.9566,4.9995,4.9995,5.0852,5.13,5.13,5.2136,5.2565,5.2623,5.4318,5.4688,5.3909,5.387,5.3403,5.2545,5.1688,5.1302,5.1283,5.1229,5.1193,5.1193,5.1208,5.1156,5.1016,5.0495,5.0071,4.9762,0.0,0.0,2.0691,2.0983,2.2174,2.4282,0.0,2.9962,0.0,0.0,0.0,0.0,0.0,0.0,3.9469,0.0,0.0,4.1657,4.1937,4.1419,0.0,0.0,0.0,3.21,0.0,0.0,0.0,0.0,0.0,0.0,0.0,0.0,0.0,0.0,0.0,3.241,0.0,0.0,0.0,0.0,0.0,4.7811,4.7676,0.0,0.0,5.2558,5.1406,5.2656,0.0,5.3516,5.2538,5.1636,5.0818,4.9957,4.9033,4.7874,4.6467,0.0,0.0,0.0,4.3395,4.1554,0.0,0.0,0.0,0.0,0.0,0.0,0.0,0.0,0.0,0.0,0.0,0.0,0.0,0.0,0.0,0.0,0.0,0.0,0.0,0.0,0.0,0.0,0.0,0.0,0.0,0.0,0.0,5.0404,5.1125,5.1708,5.2,5.2448,5.3013,5.274,5.3188,5.4338,5.4922,5.5351,5.5589,5.4437,5.3734,5.3383,5.1922,5.1336,5.135,5.125,5.1228,5.1262,5.1218,5.07,4.9946,4.976,4.9853,5.0006,2.0653,0.0,0.0,2.0594,2.2506,0.0,0.0,0.0,0.0,0.0,3.6677,0.0,3.8922,0.0,3.9352,0.0,4.1069,4.1791,4.2356,4.2446,0.0,4.1219,3.7947,0.0,0.0,0.0,0.0,0.0,0.0,2.2636,0.0,0.0,0.0,0.0,0.0,0.0,0.0,0.0,4.3532,0.0,0.0,4.8945,0.0,0.0,5.0703,5.3086,0.0,5.3613,5.5176,5.4297,5.3633,5.3008,5.2147,5.1717,5.1326,5.0149,4.8922,4.7839,4.7197,4.6575,0.0,4.3879,4.4062,0.0,4.2348,0.0,0.0,0.0,0.0,0.0,0.0,0.0,0.0,0.0,0.0,0.0,0.0,0.0,0.0,0.0,0.0,0.0,0.0,0.0,0.0,0.0,0.0,0.0,0.0,0.0,5.1708,5.2565,5.2604,5.3013,5.389,5.3656,5.4084,5.5195,5.5507,5.5957,5.6448,5.4691,5.3909,5.3792,5.2058,5.1342,5.1382,5.1286,5.1262,5.129,5.1233,5.0513,4.9533,4.9429,4.9493,4.9607,0.0,0.0,0.0,0.0,2.3638,0.0,0.0,0.0,3.5076,0.0,3.7575,3.8961,3.978,3.9897,4.0268,4.1089,4.1967,0.0,4.259,4.4054,0.0,0.0,4.2095,4.1106,4.1108,0.0,0.0,0.0,0.0,0.0,0.0,0.0,0.0,0.0,2.7358,0.0,3.8443,3.8514,4.1543,4.6387,4.7305,4.7734,4.8125,5.0586,5.2617,5.4121,5.4082,5.4629,5.5234,5.4414,5.4101,5.3926,5.3084,5.3376,5.3669,5.2004,5.1471,5.1032,4.9356,4.7595,4.6219,4.6151,4.5517,0.0,0.0,0.0,4.1941,0.0,0.0,0.0,0.0,0.0,0.0,0.0,0.0,0.0,0.0,0.0,0.0,0.0,0.0,0.0,0.0,0.0,0.0,0.0,0.0,0.0,0.0,0.0,5.1665,5.2506,5.2623,5.3071,5.3968,5.4786,5.5214,5.5273,5.6095,5.6507,5.6448,5.4691,5.3909,5.3792,5.2058,5.1342,5.1399,5.131,5.1308,5.1293,5.1229,5.0604,4.9707,4.9458,4.9031,4.8613,2.1607,2.2057,2.3072,0.0,2.6625,2.8283,0.0,0.0,0.0,0.0,3.8434,3.9819,4.0679,4.1342,4.1829,4.2045,4.2864,0.0,0.0,0.0,0.0,4.6514,4.3064,4.1095,4.1096,3.7081,0.0,2.9902,0.0,0.0,2.1872,0.0,0.0,0.0,0.0,0.0,3.7544,3.7616,4.0996,4.6426,4.7949,4.9707,0.0,0.0,5.4414,5.5859,5.5195,5.5527,5.623,5.6015,5.5508,5.4922,5.4703,5.4332,5.3903,5.3464,5.2425,5.1446,5.1614,4.9925,4.8091,4.8015,4.7837,4.7477,0.0,0.0,0.0,0.0,0.0,0.0,0.0,0.0,0.0,0.0,0.0,0.0,0.0,0.0,0.0,0.0,0.0,0.0,0.0,0.0,0.0,0.0,0.0,0.0,0.0,0.0,0.0,5.1628,5.2896,5.3987,5.4864,5.5098,5.5526,5.6173,5.6388,5.6507,5.6448,5.4691,5.3909,5.3792,5.2058,5.1316,5.1328,5.1247,5.1263,5.1282,5.1228,5.0222,4.8857,4.8971,4.8523,4.8008,2.3071,0.0,0.0,2.7757,0.0,0.0,3.2421,0.0,0.0,3.9312,4.0346,0.0,4.2669,4.2552,4.2551,4.2942,4.3762,0.0,0.0,0.0,0.0,4.6982,4.5051,4.3762,4.3373,4.0372,0.0,3.2962,0.0,0.0,2.2988,0.0,0.0,0.0,0.0,3.1148,0.0,3.9687,4.2851,4.6445,4.8203,0.0,0.0,5.2969,5.4277,5.539,5.4902,5.5293,5.6094,5.6465,5.6015,5.5371,5.5757,5.5521,5.513,5.5136,5.4175,5.3219,5.3706,5.2219,5.0492,5.0451,5.0167,4.9622,4.8652,4.778,4.7043,0.0,4.4264,0.0,0.0,0.0,0.0,0.0,0.0,0.0,0.0,0.0,0.0,0.0,0.0,0.0,0.0,0.0,0.0,0.0,0.0,0.0,0.0,0.0,0.0,5.1277,5.2993,5.4318,5.5195,5.5587,5.6018,5.6507,5.6507,5.6507,5.6448,5.4691,5.3909,5.3792,5.2058,5.1317,5.1331,5.1264,5.1265,5.1219,5.0342,4.9391,4.8498,4.8411,4.8058,4.7806,0.0,0.0,0.0,0.0,0.0,0.0,0.0,3.7373,0.0,4.1893,0.0,4.2876,4.4613,4.3466,4.2923,4.3783,0.0,4.5225,4.5323,4.665,4.7138,4.6495,4.7099,4.708,4.632,4.3846,0.0,0.0,0.0,0.0,0.0,0.0,0.0,0.0,0.0,0.0,0.0,4.3144,4.5703,0.0,4.8437,4.9687,5.0547,5.2226,5.334,5.4004,5.4004,5.4492,5.5254,5.5996,5.582,5.5429,5.6186,5.6515,5.659,5.6593,5.5981,5.5319,5.5436,5.4206,5.2898,5.3015,5.2293,5.1365,5.0537,4.9593,4.8872,4.8855,4.6817,4.5922,0.0,0.0,0.0,0.0,0.0,0.0,0.0,0.0,0.0,0.0,0.0,0.0,0.0,0.0,0.0,0.0,0.0,0.0,0.0,0.0,0.0,5.0871,5.2726,5.4067,5.4803,5.5927,5.6392,5.6261,5.6405,5.6472,5.6418,5.468,5.3883,5.3792,5.2058,5.1321,5.1378,5.1313,5.1208,5.0933,4.9185,4.8503,4.8446,4.7903,4.7766,4.799,0.0,0.0,0.0,0.0,0.0,3.6518,3.8512,3.982,4.0695,4.1049,4.1185,4.1886,4.358,4.3585,4.3821,4.4698,4.5578,0.0,0.0,0.0,0.0,4.7353,4.6827,4.6456,4.6301,4.4447,4.215,0.0,0.0,0.0,0.0,0.0,0.0,0.0,0.0,0.0,3.9785,4.4941,0.0,4.6562,4.9707,5.1055,5.1387,5.3105,5.3867,5.4004,5.4004,5.4101,5.4258,5.4394,5.4824,5.5332,5.5483,5.6026,5.659,5.6593,5.5981,5.5455,5.6177,5.5103,5.3932,5.4655,5.364,5.2428,5.2265,5.0993,4.9829,4.9717,4.8686,4.7742,4.7532,0.0,0.0,0.0,0.0,0.0,0.0,0.0,0.0,0.0,0.0,0.0,0.0,0.0,0.0,0.0,0.0,0.0,0.0,0.0,0.0,0.0,5.1383,0.0,0.0,0.0,5.5897,5.5022,5.5864,5.6278,5.6285,5.4587,5.385,5.3792,5.2058,5.1314,5.1309,5.1248,5.0768,4.9965,4.8912,4.8506,4.8433,4.7893,4.8115,4.8746,0.0,0.0,0.0,0.0,0.0,0.0,0.0,4.0276,0.0,4.2032,4.2207,4.2898,4.4617,4.447,4.4624,4.5482,4.6015,4.6475,4.6905,4.6963,4.7158,4.7587,4.7608,0.0,4.6983,4.6144,4.4237,4.1203,0.0,0.0,0.0,0.0,0.0,0.0,0.0,3.7656,0.0,0.0,0.0,4.6601,5.0019,5.1152,5.0957,5.2676,5.3047,5.2656,5.2656,5.2656,5.2793,5.3691,5.4277,5.4707,5.5151,5.5909,5.659,5.6593,5.6294,5.6079,5.6488,5.598,5.5453,5.5864,5.5337,5.4498,5.358,5.3073,5.2493,5.147,5.0836,4.9993,4.8461,4.742,0.0,0.0,0.0,0.0,0.0,0.0,0.0,0.0,0.0,0.0,0.0,0.0,0.0,0.0,0.0,0.0,0.0,0.0,0.0,0.0,0.0,0.0,0.0,0.0,5.5744,5.4753,5.5767,5.6264,5.6233,5.4554,5.3843,5.3792,5.2058,5.1317,5.1357,5.1289,5.0436,4.9138,4.8677,4.8215,4.7806,4.7696,4.8172,4.8936,0.0,3.427,0.0,0.0,3.8281,0.0,3.9664,4.0391,4.1506,4.3128,4.3192,4.3829,4.5745,4.5244,4.5114,4.5977,4.618,4.6268,4.6268,4.6939,4.7314,4.7314,4.8115,4.8154,4.7333,4.7509,4.6071,0.0,0.0,0.0,0.0,0.0,0.0,0.0,0.0,0.0,0.0,0.0,4.6621,4.7344,4.9863,5.0703,5.0605,5.1914,5.1992,5.1406,5.1406,5.1406,5.1641,5.3203,5.3847,5.414,5.5032,5.5908,5.659,5.6593,5.6605,5.6605,5.6605,5.6605,5.6605,5.6605,5.6312,5.5746,5.4556,5.4517,5.4365,5.3005,5.2447,5.1765,5.0361,4.9597,0.0,0.0,0.0,0.0,0.0,0.0,0.0,0.0,0.0,0.0,0.0,0.0,0.0,0.0,0.0,0.0,0.0,0.0,0.0,0.0,0.0,5.2687,5.1992,0.0,5.5555,5.444,5.5663,5.6247,5.6214,5.4538,5.3816,5.3792,5.2058,5.132,5.1338,5.1127,5.007,4.8572,4.8328,4.7905,4.7478,4.7576,4.8287,4.9184,0.0,0.0,0.0,0.0,0.0,0.0,4.0465,4.1217,4.2036,4.2999,4.2486,4.3015,4.5537,4.5101,4.4975,4.584,4.6045,4.613,4.613,4.6317,4.6417,4.6417,4.7255,4.7314,4.6436,4.7197,4.6674,0.0,0.0,0.0,0.0,0.0,0.0,0.0,0.0,0.0,0.0,4.6191,4.7676,4.9785,4.9316,5.0,5.1308,5.1465,5.1465,5.1406,5.1406,5.1406,5.1543,5.2499,5.3359,5.414,5.5027,5.5904,5.659,5.6593,5.6605,5.6605,5.6605,5.6605,5.6605,5.6605,5.5414,5.442,5.5045,5.4011,5.3047,5.3424,5.2619,5.2008,5.256,5.0749,4.9649,0.0,0.0,0.0,0.0,0.0,0.0,0.0,0.0,0.0,0.0,0.0,0.0,0.0,0.0,0.0,0.0,0.0,0.0,4.9026,0.0,5.1729,5.165,5.4492,5.5026,5.328,5.5139,5.6091,5.6146,5.4472,5.3777,5.3792,5.2058,5.1269,5.1168,5.043,4.9524,4.8514,4.7666,4.7724,4.8248,4.7849,4.8694,4.9991,0.0,0.0,0.0,0.0,0.0,0.0,0.0,4.1605,4.2293,4.3643,4.3546,4.3744,4.4793,4.5142,4.5457,4.5812,4.6,4.61,4.61,4.6237,4.6301,4.6301,4.7138,4.7431,4.7099,4.7411,4.726,0.0,0.0,0.0,0.0,0.0,0.0,0.0,0.0,4.453,4.5545,4.6074,4.7207,4.8652,4.8828,4.9902,5.1406,5.1406,5.1406,5.1406,5.1406,5.1738,5.2305,5.3182,5.371,5.414,5.5026,5.5903,5.659,5.6593,5.6605,5.6605,5.6605,5.6605,5.6605,5.6605,5.5689,5.4732,5.4556,5.3971,5.3491,5.3577,5.3473,5.3443,5.3727,5.2914,5.2248,5.2397,0.0,0.0,0.0,0.0,0.0,0.0,0.0,0.0,0.0,0.0,0.0,0.0,0.0,0.0,0.0,0.0,0.0,4.9701,0.0,5.2195,5.2195,5.4591,5.5112,5.3832,5.5345,5.6113,5.6136,5.4462,5.3208,5.2294,5.1656,5.1305,5.1143,5.033,4.9446,4.8514,4.7569,4.7298,4.7462,4.7639,4.8347,4.9238,3.8609,0.0,3.954,0.0,4.0465,4.1228,4.1755,4.2182,4.2856,4.4032,4.4474,4.4686,4.4686,4.5317,4.5738,4.5738,4.5865,4.5986,4.6041,4.6173,4.6269,4.63,4.7138,0.0,4.7216,4.747,4.7473,4.7225,4.6604,0.0,0.0,4.3488,4.4172,0.0,4.5388,4.5662,4.617,4.6523,4.7324,4.8418,4.9023,5.0137,5.1406,5.1406,5.1406,5.1406,5.1406,5.1953,5.2832,5.3709,5.4178,5.453,5.5416,5.6097,5.6607,5.6592,5.6605,5.6605,5.6605,5.6605,5.6605,5.6605,5.5747,5.4888,5.4766,5.4327,5.4004,5.4204,5.4496,5.4601,5.4311,5.4227,5.3974,5.3343,0.0,0.0,0.0,0.0,0.0,0.0,0.0,4.9675,4.8447,0.0,0.0,0.0,0.0,0.0,0.0,0.0,0.0,0.0,0.0,0.0,5.2594,5.4562,5.5144,5.4347,5.5473,5.6087,5.6139,5.4502,5.2869,5.1302,5.1379,5.131,5.1124,5.0057,4.9214,4.8475,4.7278,4.6969,4.7215,4.7564,4.8224,4.8971,3.9335,3.9489,3.9727,4.0461,4.1309,4.1892,4.1905,4.3088,4.3963,4.3906,4.4883,4.5575,4.5575,4.5594,4.5594,4.5594,4.5599,4.5692,4.5889,4.6037,4.6152,0.0,0.0,4.7197,4.634,4.7158,4.7177,4.632,0.0,0.0,3.9865,3.9931,4.2219,4.6282,4.6286,4.7244,4.8807,4.7949,4.8574,5.0176,5.0176,5.0664,5.1406,5.1406,5.1406,5.1406,5.1406,5.1953,5.2832,5.3705,5.4565,5.5446,5.6313,5.6582,5.6599,5.6608,5.6605,5.6605,5.6605,5.6605,5.6605,5.6605,5.5297,5.4456,5.6082,5.5085,5.4178,5.5491,5.5572,5.514,5.4342,5.4153,5.4104,5.4085,0.0,0.0,0.0,0.0,0.0,0.0,5.3175,5.2641,5.2622,0.0,0.0,0.0,0.0,0.0,0.0,0.0,0.0,4.9931,5.0751,0.0,5.2588,5.4325,5.4924,5.4414,5.5343,5.5943,5.6142,5.4604,5.2954,5.1302,5.1379,5.131,5.1066,4.9396,4.8672,4.8417,4.6622,4.6795,4.8047,4.7799,4.8572,4.9723,4.0204,4.0736,4.1218,4.1447,4.1873,4.2433,4.3208,4.3369,4.3783,4.4902,4.5364,4.5594,4.5594,4.5594,4.5594,0.0,4.5594,4.5665,0.0,4.5998,4.6166,4.6288,4.6562,4.6852,4.7177,4.6885,4.6866,4.7197,0.0,0.0,0.0,4.4241,4.4987,4.6335,4.693,4.7498,4.8026,4.8359,4.9141,5.0195,5.0195,5.0683,5.1406,5.1406,5.1406,5.1484,5.207,5.2851,5.3711,5.4587,5.5464,5.6223,5.6507,5.6601,5.6599,5.6608,5.6605,5.6605,5.6605,5.6605,5.6605,5.6605,5.5297,5.4143,5.4678,5.4177,5.3851,5.4781,5.521,5.5313,5.5078,5.4995,5.5002,5.5002,5.4046,0.0,5.4027,0.0,0.0,0.0,5.1769,5.1254,0.0,5.0158,0.0,0.0,0.0,0.0,0.0,0.0,0.0,0.0,5.1597,0.0,5.3343,5.4569,5.518,5.5159,5.5595,5.5335,5.4465,5.3475,5.2389,5.1302,5.1379,5.1355,5.1132,4.9404,4.8686,4.8478,4.6627,4.6681,4.7817,4.7731,4.846,4.9442,4.1621,4.1888,4.2139,4.2139,4.2434,4.2972,4.3852,4.4036,4.4435,4.5464,4.5594,4.562,4.5668,4.5676,0.0,4.5644,4.5644,4.5696,4.5834,4.5957,4.6064,4.6185,4.6245,4.6502,4.7036,4.6546,0.0,4.7119,4.689,4.6948,4.7238,4.7269,4.7449,4.7742,4.8316,4.8749,4.9062,4.9609,5.0156,5.0644,5.0644,5.0957,5.1406,5.1406,5.1406,5.1504,5.2383,5.3262,5.412,5.5016,5.5871,5.6607,5.6599,5.6595,5.6595,5.6607,5.6605,5.6605,5.6605,5.6605,5.6605,5.6605,5.5529,5.4444,5.4385,5.4391,5.451,5.4938,5.5215,5.539,5.5403,5.5396,5.5396,5.5396,5.4944,5.46,5.46,0.0,5.3594,0.0,0.0,0.0,0.0,5.1065,5.1056,0.0,0.0,0.0,0.0,0.0,0.0,5.0713,5.1521,5.2369,5.3239,5.4472,5.5203,5.5413,5.54,5.4746,5.3569,5.2896,5.2117,5.1302,5.1379,5.1171,5.0697,4.927,4.8497,4.8015,4.6499,4.6638,4.7706,4.7693,4.8388,4.93,4.3243,4.2915,4.2605,0.0,4.305,0.0,4.4056,4.5024,4.5668,4.5603,4.5603,4.5656,4.5789,4.5803,4.576,4.5702,0.0,0.0,0.0,4.5895,4.5933,4.6,4.6123,4.6153,4.61,4.6216,4.6298,4.6301,4.7169,4.8008,4.8799,4.8934,4.9427,5.0207,5.0329,5.0781,5.1484,5.1484,5.1484,5.1484,5.1426,5.1406,5.1406,5.1406,5.1406,5.1504,5.2383,5.3261,5.4138,5.5013,5.5885,5.6601,5.6609,5.6605,5.6605,5.6605,5.6605,5.6605,5.6605,5.6605,5.6605,5.6605,5.5893,5.516,5.5037,5.5442,5.5812,5.5721,5.5556,5.5403,5.5403,5.5396,5.5396,5.5396,5.5396,5.5396,5.5396,5.5396,5.5905,0.0,0.0,0.0,5.5004,5.4078,5.2682,0.0,0.0,0.0,0.0,0.0,5.1717,5.0038,5.0884,5.1764,5.2581,5.4123,5.5028,5.5282,5.4834,5.4184,5.3375,5.2774,5.208,5.1304,5.1361,5.0876,4.9934,4.9056,4.8158,4.72,4.6272,4.6644,4.7695,4.7689,4.8381,4.9273,0.0,0.0,4.3653,4.3185,4.4272,4.5255,4.5365,4.5514,4.5616,4.5594,4.5692,4.5764,4.58,4.5803,4.5782,4.5785,4.5785,4.5823,4.5968,4.5875,4.5883,4.5985,4.5974,4.6017,4.6098,4.6136,4.6206,4.6301,4.7174,4.8013,4.8819,4.9543,5.0328,5.1125,5.1796,5.2207,5.2383,5.2383,5.2383,5.2324,5.168,5.1406,5.1406,5.1406,5.1406,5.1504,5.2383,5.3262,5.4121,5.5013,5.5888,5.6607,5.6592,5.6605,5.6605,5.6605,5.6605,5.6605,5.6605,5.6605,5.6605,5.6605,5.5887,5.5194,5.5155,5.5139,5.5264,5.5743,5.569,5.552,5.5416,5.5396,5.5396,5.5396,5.5396,5.5396,5.5396,5.5396,5.5294,0.0,5.472,5.4203,5.3273,5.2394,5.266,0.0,0.0,0.0,0.0,5.3878,5.262,5.0952,5.2324,5.3203,5.3407,5.4397,5.5007,5.5217,5.4193,5.36,5.3356,5.2151,5.1503,5.1307,5.1366,5.0901,5.0009,4.9079,4.8185,4.7284,4.6296,4.6645,4.7707,4.7706,4.8355,4.9219,4.4078,4.4507,4.4836,4.4504,4.5204,4.5803,4.5803,4.5734,4.5668,4.5603,4.566,4.5727,4.5796,4.5803,4.5796,4.5794,4.5807,4.5838,4.5902,4.5845,4.5829,4.5865,4.5853,4.5883,4.5954,4.6043,4.6351,4.6891,4.7778,4.8619,4.9416,5.0737,5.1579,5.2047,5.332,5.3672,5.3281,5.3281,5.3066,5.2617,5.1758,5.1406,5.1406,5.1406,5.1406,5.1504,5.2383,5.3262,5.414,5.5013,5.5888,5.6605,5.6592,5.6605,5.6605,5.6605,5.6605,5.6605,5.6605,5.6605,5.6583,5.6552,5.6166,5.5794,5.5786,5.5635,5.5569,5.5829,5.5736,5.5555,5.5409,5.5396,5.5396,5.5396,5.5396,5.5396,5.5396,5.5396,5.5199,5.4677,5.4548,5.4157,5.3245,5.2695,5.2973,5.4352,5.3188,0.0,5.4389,5.3992,5.3094,5.1786,5.3018,5.3707,5.3707,5.4503,5.4949,5.5047,5.3842,5.3254,5.3228,5.19,5.1306,5.13,5.1364,5.0677,4.9462,4.8965,4.7989,4.6756,4.6179,4.6665,4.769,4.7701,4.8348,4.9205,4.5803,4.5803,4.5803,4.5803,4.5803,4.5803,4.5803,4.5803,4.5757,4.5654,4.5633,4.5672,4.5793,4.5803,4.5803,4.5803,4.5794,4.5791,4.5803,4.581,4.5773,4.5715,4.5766,4.5789,4.5794,4.6,4.6511,4.7378,4.8264,4.9246,5.0324,5.195,5.2908,5.3358,5.4843,5.5098,5.4375,5.4101,5.3574,5.2812,5.1797,5.1406,5.1406,5.1406,5.1406,5.1504,5.2246,5.3066,5.3943,5.4817,5.567,5.6424,5.6551,5.6605,5.6605,5.6605,5.6605,5.6605,5.6605,5.6584,5.6577,5.6511,5.6501,5.6491,5.6496,5.638,5.6188,5.599,5.5784,5.5605,5.5452,5.5409,5.5492,5.5708,5.5543,5.5492,5.5708,5.5536,5.5326,5.5216,5.5135,5.4792,5.4038,5.3921,5.3575,5.2828,5.2771,5.2771,5.2771,5.3473,5.3529,5.2809,5.3492,5.387,5.387,5.456,5.4844,5.4719,5.3626,5.3041,5.2886,5.18,5.1302,5.131,5.1245,5.0284,4.8791,4.8667,4.7608,4.6084,4.6029,4.6716,4.7739,4.7695,4.8342,4.9252,4.5803,4.5803,4.5803,4.5803,4.5803,4.5803,4.5803,4.5803,4.5796,4.5771,4.5771,4.5778,4.5803,4.5803,4.5803,4.5803,4.58,4.58,4.5803,4.581,4.5804,4.5777,4.5742,4.5741,4.5809,4.6,4.618,4.6336,4.7328,4.896,5.1223,5.2223,5.3885,5.6014,5.6289,5.6328,5.6094,5.4629,5.3926,5.3652,5.2051,5.1406,5.1406,5.1406,5.1406,5.1426,5.1543,5.2168,5.3025,5.3918,5.4772,5.5625,5.6375,5.6605,5.6605,5.6605,5.6605,5.6605,5.6605,5.6558,5.6506,5.6508,5.6491,5.6492,5.6492,5.6474,5.6395,5.6191,5.5994,5.5808,5.5596,5.5476,5.5835,5.7135,5.6248,5.5848,5.7154,5.6131,5.5222,5.519,5.5087,5.4957,5.4829,5.4756,5.4655,5.4515,5.4515,5.4515,5.4515,5.4628,5.4655,5.4515,5.4628,5.4712,5.4712,5.4844,5.456,5.3885,5.3358,5.2737,5.2066,5.1531,5.1339,5.1348,5.0613,4.9732,4.8739,4.8007,4.7076,4.6082,4.6033,4.68,4.7909,4.763,4.839,4.9499,4.5803,4.5803,4.5803,4.5803,4.5803,4.5803,4.5803,4.5803,4.5803,4.5803,4.5803,4.5803,4.5803,4.5803,4.5803,4.5803,4.5803,4.5803,4.5803,4.581,4.5807,4.5807,4.5746,4.5753,4.5845,4.6324,4.643,4.6098,4.7945,4.9459,5.0687,5.2532,5.4294,5.5917,5.6387,5.6348,5.582,5.4531,5.373,5.3183,5.1914,5.1406,5.1406,5.1406,5.1406,5.1406,5.1406,5.1953,5.283,5.3704,5.4577,5.5449,5.6336,5.6605,5.6605,5.6605,5.6605,5.6605,5.6605,5.6582,5.6553,5.6509,5.6496,5.6501,5.6494,5.6507,5.6439,5.6242,5.6032,5.5834,5.5649,5.548,5.5632,5.6362,5.5802,5.5548,5.6251,5.5664,5.5135,5.5094,5.5042,5.4985,5.4941,5.4923,5.4901,5.4901,5.4901,5.4901,5.4901,5.4901,5.4901,5.4901,5.4901,5.4901,5.4901,5.4901,5.4536,5.3802,5.3325,5.2716,5.1999,5.1513,5.1329,5.1309,5.0451,4.9608,4.8744,4.79,4.6988,4.6106,4.6077,4.6851,4.7953,4.7616,4.8384,4.9558,4.5803,4.5803,4.5803,4.5803,4.5803,4.5803,4.5803,4.5803,4.5803,4.5803,4.5803,4.5803,4.5803,4.5803,4.5803,4.5803,4.5803,4.5803,4.5803,4.5798,4.5799,4.5799,4.5742,4.578,4.5874,4.6444,4.6715,4.664,4.8666,5.0086,5.0949,5.3036,5.4568,5.5625,5.6308,5.623,5.5547,5.4668,5.3808,5.293,5.2051,5.1582,5.1406,5.1406,5.1406,5.1406,5.1406,5.1835,5.2536,5.3409,5.4145,5.488,5.5965,5.6294,5.6333,5.6546,5.6605,5.6605,5.6605,5.6583,5.6557,5.6511,5.6499,5.6509,5.6496,5.6507,5.6465,5.63,5.6078,5.5848,5.5696,5.5522,5.5498,5.5854,5.5515,5.5329,5.5677,5.5355,5.5071,5.5007,5.4985,5.4968,5.4901,5.4901,5.4901,5.4901,5.4901,5.4901,5.4901,5.4901,5.4901,5.4901,5.4901,5.4901,5.4901,5.4953,5.4605,5.3893,5.3615,5.2999,5.2086,5.1745,5.1499,5.1277,5.0233,4.9428,4.8713,4.771,4.6816,4.6127,4.6302,4.709,4.8062,4.7857,4.8587,4.9615,4.5803,4.5803,4.5803,4.5803,4.5803,4.5803,4.5803,4.5803,4.5803,4.5803,4.5803,4.5803,4.5803,4.5803,4.5803,4.5803,4.5803,4.5803,4.5803,4.5803,4.58,4.58,4.5803,4.5807,4.5818,4.5925,4.6726,4.8229,4.8663,5.0504,5.3616,5.3879,5.4902,5.6504,5.6562,5.6562,5.6445,5.5566,5.4707,5.3828,5.2969,5.2129,5.1406,5.1406,5.1406,5.1406,5.1405,5.1442,5.1633,5.2504,5.2848,5.3173,5.487,5.5397,5.5553,5.6352,5.6605,5.6605,5.6605,5.6558,5.6504,5.6508,5.6509,5.649,5.6492,5.6507,5.6505,5.6476,5.6175,5.5907,5.5874,5.5616,5.5854,5.7223,5.6179,5.5696,5.7126,5.5983,5.5007,5.5,5.4953,5.4909,5.4901,5.4901,5.4901,5.4901,5.4901,5.4901,5.4901,5.4901,5.4901,5.4901,5.4901,5.4901,5.4901,5.508,5.4757,5.39,5.4362,5.3716,5.2113,5.239,5.2099,5.1292,4.9616,4.8852,4.868,4.7057,4.6287,4.6164,4.6929,4.7686,4.838,4.8553,4.9156,4.9795,4.5803,4.5803,4.5803,4.5803,4.5803,4.5803,4.5803,4.5803,4.5803,4.5803,4.5803,4.5803,4.5803,4.5803,4.5803,4.5803,4.5803,4.5803,4.5803,4.5803,4.5803,4.5803,4.5806,4.605,4.6594,4.7127,4.8017,4.9274,5.0458,5.2027,5.3917,5.4525,5.5449,5.6601,5.6601,5.6601,5.6543,5.5664,5.4805,5.3965,5.3633,5.2656,5.1465,5.1992,5.2207,5.2148,5.1581,5.1754,5.2257,5.2582,5.2691,5.2918,5.4108,5.487,5.5475,5.6333,5.6605,5.6605,5.6605,5.6557,5.6503,5.6506,5.6509,5.6508,5.6492,5.6507,5.6507,5.6507,5.6181,5.5911,5.5911,5.5561,5.5458,5.6014,5.5533,5.528,5.5861,5.5374,5.4946,5.4946,5.4916,5.4901,5.4901,5.4901,5.4901,5.4901,5.4901,5.4901,5.4901,5.4901,5.4968,5.508,5.508,5.508,5.508,5.5294,5.501,5.4282,5.4556,5.4134,5.3097,5.3307,5.2652,5.126,5.0111,4.8994,4.7951,4.735,4.7009,4.6921,4.7785,4.8538,4.9117,4.881,4.9214,4.98,4.5803,4.5803,4.5803,4.5803,4.5803,4.5881,4.6171,4.6287,4.6403,4.6596,4.6384,4.6306,4.6596,4.6132,4.59,4.6171,4.5958,4.5803,4.5803,4.6055,4.6209,4.6209,4.6474,4.7016,4.7908,4.8454,4.9467,5.0962,5.1957,5.3185,5.4678,5.5383,5.6035,5.6601,5.6601,5.6601,5.6562,5.5957,5.5215,5.4414,5.4414,5.3535,5.2246,5.2578,5.2695,5.2598,5.1717,5.1772,5.2296,5.2286,5.2298,5.2449,5.3327,5.4382,5.5416,5.602,5.6391,5.6605,5.6605,5.6554,5.6497,5.6506,5.6509,5.6508,5.6492,5.6507,5.6507,5.6507,5.6236,5.5978,5.59,5.5582,5.5288,5.5196,5.5087,5.5021,5.4971,5.4938,5.4901,5.4901,5.4901,5.4901,5.4901,5.4901,5.4901,5.4901,5.4901,5.4901,5.4901,5.4901,5.4992,5.5183,5.5256,5.532,5.5382,5.5533,5.536,5.495,5.5093,5.4811,5.4135,5.4251,5.3359,5.1668,5.0859,4.9664,4.8306,4.8093,4.7887,4.7791,4.8679,4.9252,4.956,4.9211,4.9429,4.9798,4.5803,4.5803,4.5803,4.5803,4.5803,4.6093,4.6964,4.7328,4.7711,4.8314,4.7657,4.7447,4.8295,4.6848,4.6151,4.7022,4.6306,4.5823,4.5823,4.6635,4.7138,4.7138,4.7966,4.8817,4.9703,4.9722,5.0964,5.3502,5.2832,5.3826,5.6316,5.649,5.6601,5.6601,5.6601,5.6601,5.6601,5.6601,5.6094,5.5293,5.5312,5.4785,5.3906,5.3047,5.2715,5.2617,5.1734,5.1418,5.1416,5.1401,5.1394,5.155,5.243,5.3894,5.5299,5.5319,5.5923,5.6605,5.6605,5.6546,5.6503,5.6503,5.6509,5.6508,5.6492,5.6507,5.6507,5.6507,5.6344,5.6132,5.5945,5.5731,5.5491,5.5157,5.5101,5.5045,5.4923,5.4901,5.4901,5.4901,5.4901,5.4901,5.4901,5.4901,5.4901,5.4901,5.4901,5.4901,5.4901,5.4901,5.4992,5.5209,5.5408,5.5596,5.5792,5.5797,5.5851,5.5897,5.6108,5.5821,5.5107,5.518,5.4263,5.2563,5.1762,5.0923,5.0042,4.9247,4.8804,4.8714,4.9568,4.9793,4.9633,4.9828,4.9892,4.9791,4.5803,4.5803,4.5803,4.5803,4.6306,4.6809,4.7061,4.7695,4.8198,4.8372,4.8179,4.7869,4.7525,4.7022,4.6828,4.708,4.6867,4.7235,4.8469,4.8778,4.9455,5.0639,4.9803,4.9977,5.1413,5.1451,5.2457,5.4488,5.4282,5.4959,5.6446,5.6401,5.6457,5.6601,5.6554,5.6555,5.6601,5.6601,5.6094,5.5351,5.5976,5.5312,5.4043,5.4394,5.451,5.4334,5.2841,5.2719,5.3031,5.1809,5.1394,5.1668,5.3132,5.3971,5.4635,5.5845,5.6391,5.6605,5.6605,5.6546,5.6503,5.6503,5.65,5.6494,5.6507,5.6507,5.6507,5.6507,5.6344,5.6181,5.6118,5.575,5.5426,5.5331,5.5104,5.4953,5.4909,5.4901,5.4901,5.4901,5.4901,5.4901,5.4901,5.4901,5.4901,5.4901,5.4901,5.4901,5.4901,5.5023,5.5209,5.5395,5.5602,5.5778,5.5946,5.5946,5.5975,5.6048,5.6144,5.6115,5.5944,5.6057,5.5158,5.3498,5.3301,5.2386,5.0999,5.0751,5.0562,5.0447,5.07,5.0658,5.0404,5.0027,4.9866,4.9723,4.5803,4.5803,4.59,4.6248,4.6751,4.7331,4.8024,4.8585,4.903,4.9355,4.9107,4.8701,4.8198,4.7502,4.7235,4.7579,4.7618,4.8333,5.0051,4.9877,5.0751,5.3134,5.1931,5.1834,5.3192,5.3231,5.3921,5.5333,5.5045,5.5402,5.6373,5.6338,5.6395,5.6556,5.6519,5.6548,5.6601,5.6601,5.6308,5.5859,5.6387,5.5976,5.5058,5.5234,5.5291,5.5075,5.3329,5.3031,5.3261,5.1867,5.1394,5.1648,5.3034,5.3717,5.4264,5.5689,5.6333,5.6605,5.6605,5.6546,5.6503,5.6503,5.6496,5.6507,5.6507,5.6507,5.6507,5.6507,5.64,5.6297,5.6204,5.5864,5.5547,5.5426,5.5171,5.4956,5.4909,5.4901,5.4901,5.4901,5.4901,5.4901,5.4901,5.4901,5.4901,5.4901,5.4901,5.4919,5.5014,5.5135,5.532,5.5607,5.574,5.5866,5.6008,5.6008,5.6051,5.6149,5.6175,5.6263,5.6386,5.6463,5.573,5.4416,5.4497,5.372,5.241,5.2061,5.1849,5.1686,5.1316,5.1013,5.0733,5.0126,4.9865,4.9695,4.5803,4.5803,4.6055,4.6848,4.7119,4.7753,4.9339,4.9703,5.007,5.0801,5.0264,4.9742,4.9606,4.8179,4.7505,4.8217,4.8353,4.9107,5.0782,5.0206,5.1273,5.4542,5.3923,5.3865,5.4677,5.4832,5.5277,5.6008,5.5336,5.5411,5.6197,5.6244,5.6359,5.6507,5.6483,5.6527,5.6601,5.6601,5.6601,5.6601,5.6601,5.6601,5.6504,5.5723,5.5429,5.5192,5.3528,5.2878,5.2674,5.1729,5.1453,5.1668,5.2547,5.3405,5.4283,5.5163,5.5981,5.6605,5.6584,5.6546,5.6503,5.6501,5.6494,5.6507,5.6507,5.6507,5.6507,5.6507,5.6507,5.6439,5.6254,5.6032,5.5798,5.5492,5.5237,5.5057,5.4934,5.4916,5.4901,5.4901,5.4901,5.4901,5.4901,5.4901,5.4901,5.4901,5.4901,5.4985,5.5183,5.5229,5.5401,5.5782,5.5807,5.588,5.6008,5.6008,5.6079,5.6194,5.6194,5.6303,5.6507,5.6505,5.6072,5.5316,5.5384,5.4958,5.4152,5.3293,5.2805,5.2512,5.1572,5.1056,5.0729,5.0116,4.9864,4.9695,4.5803,4.5803,4.5861,4.6055,4.7215,4.8256,4.8624,4.98,5.0709,5.0879,5.0743,5.0148,4.8836,4.8333,4.7927,4.7428,4.8005,4.9107,5.0782,5.0747,5.1579,5.3691,5.3598,5.3598,5.3772,5.5064,5.5834,5.6008,5.5837,5.5904,5.6194,5.6108,5.6222,5.6506,5.6382,5.6442,5.6601,5.6601,5.6601,5.6601,5.6601,5.6601,5.6582,5.6386,5.6325,5.6184,5.5123,5.4295,5.3486,5.1922,5.1843,5.2566,5.3444,5.4322,5.5182,5.6059,5.6449,5.6583,5.6535,5.6518,5.6499,5.6503,5.6504,5.6507,5.6507,5.6507,5.6507,5.6507,5.6507,5.6481,5.6439,5.607,5.5764,5.5867,5.5356,5.4985,5.5114,5.5,5.4901,5.4901,5.4901,5.4901,5.4901,5.4901,5.4901,5.4901,5.4901,5.4985,5.5183,5.5339,5.5551,5.5787,5.5909,5.5977,5.6008,5.6008,5.6079,5.6194,5.6194,5.6303,5.6507,5.649,5.6392,5.6212,5.6231,5.6161,5.5968,5.5108,5.4251,5.3413,5.2472,5.1586,5.0729,5.0116,4.9864,4.9688,4.5803,4.5803,4.5919,4.6345,4.7525,4.8546,4.8952,5.009,5.0898,5.0898,5.0898,5.0418,4.9165,4.903,4.8836,4.8372,4.9107,5.0148,5.1447,5.1134,5.1676,5.3424,5.3095,5.3076,5.3482,5.4368,5.4813,5.4813,5.4813,5.4843,5.4927,5.526,5.5322,5.5129,5.5488,5.572,5.5849,5.5849,5.6113,5.6554,5.6554,5.6579,5.6601,5.66,5.6597,5.6494,5.561,5.4468,5.3171,5.1843,5.1981,5.2859,5.3737,5.4596,5.5475,5.6333,5.6605,5.6583,5.6511,5.6496,5.6498,5.6498,5.65,5.6507,5.6507,5.6507,5.6507,5.6507,5.6507,5.6507,5.6507,5.6184,5.5954,5.5997,5.5522,5.5151,5.519,5.5028,5.4946,5.5035,5.4968,5.4901,5.4901,5.4901,5.4901,5.4901,5.4985,5.5128,5.5326,5.545,5.5629,5.5895,5.5904,5.5941,5.6008,5.6008,5.6079,5.6194,5.6194,5.6303,5.6507,5.6496,5.6493,5.6504,5.6535,5.6578,5.6534,5.5658,5.4932,5.4247,5.2888,5.1962,5.1283,5.0239,4.9596,4.9164,4.5803,4.5919,4.6248,4.6964,4.7947,4.8875,4.9591,5.038,5.0898,5.0898,5.0898,5.0593,4.978,4.9571,4.9475,4.9475,5.009,5.0844,5.1722,5.1095,5.1405,5.2995,5.236,5.2322,5.3033,5.3053,5.3207,5.3502,5.3502,5.3502,5.3521,5.4233,5.4231,5.3623,5.4358,5.4716,5.4792,5.4792,5.5356,5.6242,5.6271,5.6391,5.6562,5.6581,5.6597,5.6512,5.5785,5.439,5.2781,5.1921,5.2196,5.3054,5.3776,5.4693,5.567,5.6391,5.6605,5.6582,5.6528,5.6494,5.6498,5.6494,5.6498,5.6507,5.6507,5.6507,5.6507,5.6507,5.6507,5.6507,5.6507,5.6336,5.6158,5.6048,5.5706,5.5392,5.5269,5.5101,5.5038,5.5177,5.5045,5.4946,5.4901,5.4901,5.4901,5.4901,5.508,5.5262,5.5444,5.5516,5.5684,5.5968,5.5885,5.589,5.6008,5.6005,5.6075,5.6194,5.6207,5.6314,5.6507,5.6507,5.6503,5.6506,5.6568,5.6606,5.6534,5.5817,5.5319,5.4827,5.3164,5.235,5.1919,5.0373,4.9298,4.8596,4.5803,4.6403,4.6964,4.708,4.843,4.9568,4.9684,5.038,5.0898,5.0898,5.0898,5.0593,4.978,4.903,4.8585,4.8585,4.8682,4.9107,4.9977,4.9935,5.0283,5.1211,5.1134,5.1134,5.125,5.125,5.1985,5.3502,5.3502,5.3502,5.3502,5.3618,5.3653,5.3607,5.372,5.3846,5.396,5.396,5.4432,5.5204,5.5323,5.5797,5.6433,5.6562,5.6594,5.6583,5.6465,5.5307,5.3698,5.282,5.3094,5.3834,5.3951,5.5121,5.6449,5.6566,5.6605,5.6581,5.6514,5.6504,5.6494,5.65,5.6509,5.6507,5.6507,5.6507,5.6507,5.6507,5.6507,5.6507,5.6507,5.6281,5.6135,5.6171,5.5839,5.5561,5.5467,5.5438,5.5351,5.5229,5.5182,5.5087,5.4916,5.4901,5.4901,5.4901,5.508,5.5203,5.523,5.5573,5.5776,5.5822,5.5927,5.5971,5.6008,5.6067,5.6112,5.6194,5.6252,5.6351,5.6507,5.6507,5.6503,5.6506,5.6568,5.6606,5.6593,5.6461,5.5866,5.4905,5.383,5.288,5.1919,5.0373,4.9298,4.8596,4.5789,4.65,4.7099,4.7099,4.8546,4.9703,4.9703,5.038,5.0898,5.0898,5.0898,5.0763,5.0418,5.0032,4.98,4.98,4.98,4.9954,5.0341,5.038,5.0534,5.0879,5.0898,5.0898,5.0898,5.0898,5.1289,5.2043,5.2043,5.2043,5.2062,5.255,5.2535,5.2102,5.2609,5.2841,5.2899,5.2899,5.3408,5.4234,5.4365,5.4659,5.5064,5.5644,5.5869,5.5879,5.5874,5.538,5.4517,5.3152,5.3601,5.4635,5.4147,5.52,5.6605,5.6605,5.6561,5.6532,5.6509,5.6494,5.65,5.6494,5.6507,5.6507,5.6507,5.6507,5.6507,5.6507,5.6507,5.6507,5.6507,5.6403,5.6303,5.6204,5.5986,5.5794,5.5684,5.5568,5.5474,5.5389,5.548,5.5407,5.5094,5.5059,5.5059,5.5059,5.5243,5.5377,5.5377,5.564,5.5792,5.5792,5.5856,5.5913,5.6008,5.6079,5.6123,5.6194,5.6261,5.6366,5.6502,5.6491,5.6508,5.65,5.6577,5.6609,5.6593,5.66,5.623,5.5528,5.4137,5.2469,5.074,5.0043,4.9298,4.8596]}]]